[[{"header":{"parameterUnit":"m.s-1","parameterCategory":1,"la1":30.6,"la2":29.2853,"lo1":-89.7004,"lo2":-87.6739,"dy":0.0162,"dx":0.0183,"nx":112,"ny":82,"refTime":"2023-07-17T12:00:00:Z","depth":0,"parameterNumber":2,"parameterNumberName":"U-component_of_WINDS"},"data":[0.0,0.0,0.0,0.0,0.0,0.0,0.0,0.0,0.0,0.0,0.0,0.0,0.0,0.0,0.0,0.0,0.0,0.0,0.0,0.0,0.0,0.0,0.0,0.0,0.0,0.0,0.0,0.0,0.0,0.0,0.0,0.0,0.0,0.0,0.0,0.0,0.0,0.0,0.0,0.0,0.0,0.0,0.0,0.0,0.0,0.0,0.0,0.0,0.0,0.0,0.0,0.0,0.0,0.0,0.0,0.0,0.0,0.0,0.0,0.0,0.0,0.0,0.0,0.0,0.0,0.0,0.0,0.0,0.0,0.0,0.0,0.0,0.0,0.0,0.0,0.0,0.0,0.0,0.0,0.0,0.0,0.0,0.0,0.0,0.0,0.0,0.0,0.0,0.0,0.0,-4.9625,-5.3629,-5.822,-6.0947,-6.0787,-6.0673,-5.7879,-5.1393,0.0,0.0,0.0,0.0,0.0,0.0,0.0,0.0,0.0,0.0,0.0,0.0,0.0,0.0,0.0,0.0,0.0,0.0,0.0,0.0,0.0,0.0,0.0,0.0,0.0,0.0,0.0,0.0,0.0,0.0,0.0,0.0,0.0,0.0,0.0,0.0,0.0,0.0,0.0,0.0,0.0,0.0,0.0,0.0,0.0,0.0,0.0,0.0,0.0,0.0,0.0,0.0,0.0,0.0,0.0,0.0,0.0,0.0,0.0,0.0,0.0,0.0,0.0,0.0,0.0,0.0,0.0,0.0,0.0,0.0,0.0,0.0,0.0,0.0,0.0,0.0,0.0,0.0,0.0,0.0,0.0,0.0,0.0,0.0,0.0,0.0,0.0,0.0,0.0,0.0,0.0,0.0,0.0,0.0,0.0,0.0,0.0,0.0,0.0,0.0,0.0,0.0,0.0,0.0,-5.063,-5.7243,-5.8701,-5.9725,-6.1006,-5.9239,-5.628,-5.2073,0.0,0.0,0.0,0.0,0.0,0.0,0.0,0.0,0.0,0.0,0.0,0.0,0.0,0.0,0.0,0.0,0.0,0.0,0.0,0.0,0.0,0.0,0.0,0.0,0.0,0.0,0.0,0.0,0.0,0.0,0.0,0.0,0.0,0.0,0.0,0.0,0.0,0.0,0.0,0.0,0.0,0.0,0.0,0.0,0.0,0.0,0.0,0.0,0.0,0.0,0.0,0.0,0.0,0.0,0.0,0.0,0.0,0.0,0.0,0.0,0.0,0.0,0.0,0.0,0.0,0.0,0.0,0.0,0.0,0.0,0.0,0.0,0.0,0.0,0.0,0.0,0.0,0.0,0.0,0.0,0.0,0.0,0.0,0.0,0.0,0.0,0.0,0.0,0.0,0.0,0.0,0.0,0.0,0.0,0.0,0.0,0.0,0.0,0.0,0.0,0.0,0.0,0.0,-4.8987,-5.1801,-5.6951,-5.7864,-5.8406,-5.9128,-5.8315,-5.591,-5.163,-4.9811,0.0,0.0,0.0,0.0,0.0,0.0,0.0,0.0,0.0,0.0,0.0,0.0,0.0,0.0,0.0,0.0,0.0,0.0,0.0,0.0,0.0,0.0,0.0,0.0,0.0,0.0,0.0,0.0,0.0,0.0,0.0,0.0,0.0,0.0,0.0,0.0,0.0,0.0,0.0,0.0,0.0,0.0,0.0,0.0,0.0,0.0,0.0,0.0,0.0,0.0,0.0,0.0,0.0,0.0,0.0,0.0,0.0,0.0,0.0,0.0,0.0,0.0,0.0,0.0,0.0,0.0,0.0,0.0,0.0,0.0,0.0,0.0,0.0,0.0,0.0,0.0,0.0,0.0,0.0,0.0,0.0,0.0,0.0,0.0,0.0,0.0,0.0,0.0,0.0,0.0,0.0,0.0,0.0,0.0,0.0,0.0,0.0,0.0,0.0,0.0,0.0,0.0,-5.0726,-5.2479,-5.586,-5.6638,-5.7034,-5.7303,-5.7051,-5.5133,-5.1059,-4.8875,0.0,0.0,0.0,0.0,0.0,0.0,0.0,0.0,0.0,0.0,0.0,0.0,0.0,0.0,0.0,0.0,0.0,0.0,0.0,0.0,0.0,0.0,0.0,0.0,0.0,0.0,0.0,0.0,0.0,0.0,0.0,0.0,0.0,0.0,0.0,0.0,0.0,0.0,0.0,0.0,0.0,0.0,0.0,0.0,0.0,0.0,0.0,0.0,0.0,0.0,0.0,0.0,0.0,0.0,0.0,0.0,0.0,0.0,0.0,0.0,0.0,0.0,0.0,0.0,0.0,0.0,0.0,0.0,0.0,0.0,0.0,0.0,0.0,0.0,0.0,0.0,0.0,0.0,0.0,0.0,0.0,0.0,0.0,0.0,0.0,0.0,0.0,0.0,0.0,0.0,0.0,0.0,0.0,0.0,0.0,0.0,0.0,0.0,0.0,0.0,0.0,0.0,-4.9771,-5.2111,-5.5403,-5.5413,-5.5629,-5.6768,-5.4825,-5.2766,-5.093,-4.7829,0.0,0.0,0.0,0.0,0.0,0.0,0.0,0.0,0.0,0.0,0.0,0.0,0.0,0.0,0.0,0.0,0.0,0.0,0.0,0.0,0.0,0.0,0.0,0.0,0.0,0.0,0.0,0.0,0.0,0.0,0.0,0.0,0.0,0.0,0.0,0.0,0.0,0.0,0.0,0.0,0.0,0.0,0.0,0.0,0.0,0.0,0.0,0.0,0.0,0.0,0.0,0.0,0.0,0.0,0.0,0.0,0.0,0.0,0.0,0.0,0.0,0.0,0.0,0.0,0.0,0.0,0.0,0.0,0.0,0.0,0.0,0.0,0.0,0.0,0.0,0.0,0.0,0.0,0.0,0.0,0.0,0.0,0.0,0.0,0.0,0.0,0.0,0.0,0.0,0.0,0.0,0.0,0.0,0.0,0.0,0.0,0.0,0.0,0.0,0.0,0.0,0.0,-4.8706,-5.0898,-5.3483,-5.4276,-5.4817,-5.5265,-5.4932,-5.3353,-5.0196,0.0,0.0,0.0,0.0,0.0,0.0,0.0,0.0,0.0,0.0,0.0,0.0,0.0,0.0,0.0,0.0,0.0,0.0,0.0,0.0,0.0,0.0,0.0,0.0,0.0,0.0,0.0,0.0,0.0,0.0,0.0,0.0,0.0,0.0,0.0,0.0,0.0,0.0,0.0,0.0,0.0,0.0,0.0,0.0,0.0,0.0,0.0,0.0,0.0,0.0,0.0,0.0,0.0,0.0,0.0,0.0,0.0,0.0,0.0,0.0,0.0,0.0,0.0,0.0,0.0,0.0,0.0,0.0,0.0,0.0,0.0,0.0,0.0,0.0,0.0,0.0,0.0,0.0,0.0,0.0,0.0,0.0,0.0,0.0,0.0,0.0,0.0,0.0,0.0,0.0,0.0,0.0,0.0,0.0,0.0,0.0,0.0,0.0,0.0,0.0,0.0,0.0,-4.6001,-4.7693,-4.9573,-5.1968,-5.3074,-5.3739,-5.3995,-5.3573,-5.2197,-4.9682,0.0,0.0,0.0,0.0,0.0,0.0,0.0,0.0,0.0,0.0,0.0,0.0,0.0,0.0,0.0,0.0,0.0,0.0,0.0,0.0,0.0,0.0,0.0,0.0,0.0,0.0,0.0,0.0,0.0,0.0,0.0,0.0,0.0,0.0,0.0,0.0,0.0,0.0,0.0,0.0,0.0,0.0,0.0,0.0,0.0,0.0,0.0,0.0,0.0,0.0,0.0,0.0,0.0,0.0,0.0,0.0,0.0,0.0,0.0,0.0,0.0,0.0,0.0,0.0,0.0,0.0,0.0,0.0,0.0,0.0,0.0,0.0,0.0,0.0,0.0,0.0,0.0,0.0,0.0,0.0,0.0,0.0,0.0,0.0,0.0,0.0,0.0,0.0,0.0,0.0,0.0,0.0,0.0,0.0,0.0,0.0,0.0,0.0,0.0,0.0,0.0,0.0,-4.5913,-4.6757,-4.8219,-5.1096,-5.1745,-5.2307,-5.3112,-5.0196,-4.8673,0.0,0.0,0.0,0.0,0.0,0.0,0.0,0.0,0.0,0.0,0.0,0.0,0.0,0.0,0.0,0.0,0.0,0.0,0.0,0.0,0.0,0.0,0.0,0.0,0.0,0.0,0.0,0.0,0.0,0.0,0.0,0.0,0.0,0.0,0.0,0.0,0.0,0.0,0.0,0.0,0.0,0.0,0.0,0.0,0.0,0.0,0.0,0.0,0.0,0.0,0.0,0.0,0.0,0.0,0.0,0.0,0.0,0.0,0.0,0.0,0.0,0.0,0.0,0.0,0.0,0.0,0.0,0.0,0.0,0.0,0.0,0.0,0.0,0.0,0.0,0.0,0.0,0.0,0.0,0.0,0.0,0.0,0.0,0.0,0.0,0.0,0.0,0.0,0.0,0.0,0.0,0.0,0.0,0.0,0.0,0.0,0.0,0.0,0.0,0.0,0.0,0.0,0.0,-4.4449,-4.6329,-4.8399,-5.0727,-5.1086,-5.1481,-5.2289,-5.0417,-4.882,-4.7902,0.0,0.0,0.0,0.0,0.0,0.0,0.0,0.0,0.0,0.0,0.0,0.0,0.0,0.0,0.0,0.0,0.0,0.0,0.0,0.0,0.0,0.0,0.0,0.0,0.0,0.0,0.0,0.0,0.0,0.0,0.0,0.0,0.0,0.0,0.0,0.0,0.0,0.0,0.0,0.0,0.0,0.0,0.0,0.0,0.0,0.0,0.0,0.0,0.0,0.0,0.0,0.0,0.0,0.0,0.0,0.0,0.0,0.0,0.0,0.0,0.0,0.0,0.0,0.0,0.0,0.0,0.0,0.0,0.0,0.0,0.0,0.0,0.0,0.0,0.0,0.0,0.0,0.0,0.0,0.0,0.0,0.0,0.0,0.0,0.0,0.0,0.0,0.0,0.0,0.0,0.0,0.0,0.0,0.0,0.0,0.0,0.0,0.0,0.0,0.0,0.0,0.0,-4.3818,-4.576,-4.7701,-4.9592,-5.0105,-5.0508,-5.1006,-4.9536,-4.8049,-4.6709,0.0,0.0,0.0,0.0,0.0,0.0,0.0,0.0,0.0,0.0,0.0,0.0,0.0,0.0,0.0,0.0,0.0,0.0,0.0,0.0,0.0,0.0,0.0,0.0,0.0,0.0,0.0,0.0,0.0,0.0,0.0,0.0,0.0,0.0,0.0,0.0,0.0,0.0,0.0,0.0,0.0,0.0,0.0,0.0,0.0,0.0,0.0,0.0,0.0,0.0,0.0,0.0,0.0,0.0,0.0,0.0,0.0,0.0,0.0,0.0,0.0,0.0,0.0,0.0,0.0,0.0,0.0,0.0,0.0,0.0,0.0,0.0,0.0,0.0,0.0,0.0,0.0,0.0,0.0,0.0,0.0,0.0,0.0,0.0,0.0,0.0,0.0,0.0,0.0,0.0,0.0,0.0,0.0,0.0,0.0,0.0,0.0,0.0,0.0,0.0,0.0,0.0,-4.376,-4.5027,-4.6452,-4.8233,-4.8985,-4.9445,-4.9592,-4.8067,-4.6746,-4.5957,0.0,0.0,0.0,0.0,0.0,0.0,0.0,0.0,0.0,0.0,0.0,0.0,0.0,0.0,0.0,0.0,0.0,0.0,0.0,0.0,0.0,0.0,0.0,0.0,0.0,0.0,0.0,0.0,0.0,0.0,0.0,0.0,0.0,0.0,0.0,0.0,0.0,0.0,0.0,0.0,0.0,0.0,0.0,0.0,0.0,0.0,0.0,0.0,0.0,0.0,0.0,0.0,0.0,0.0,0.0,0.0,0.0,0.0,0.0,0.0,-4.8993,0.0,0.0,0.0,0.0,0.0,0.0,0.0,0.0,0.0,0.0,0.0,0.0,0.0,0.0,0.0,0.0,0.0,0.0,0.0,0.0,0.0,0.0,0.0,0.0,0.0,0.0,0.0,0.0,0.0,0.0,0.0,0.0,0.0,0.0,0.0,0.0,0.0,0.0,0.0,0.0,0.0,-4.3395,-4.4394,-4.6085,-4.9003,-4.8306,-4.8177,-4.95,-4.8067,-4.6746,-4.5957,-4.3626,0.0,0.0,0.0,0.0,0.0,0.0,0.0,0.0,0.0,0.0,0.0,0.0,0.0,0.0,0.0,0.0,0.0,0.0,0.0,0.0,0.0,0.0,0.0,0.0,0.0,0.0,0.0,0.0,0.0,0.0,0.0,0.0,0.0,0.0,0.0,0.0,0.0,0.0,0.0,0.0,0.0,0.0,0.0,0.0,0.0,0.0,0.0,0.0,0.0,0.0,0.0,0.0,0.0,0.0,0.0,0.0,0.0,0.0,0.0,0.0,-4.9825,0.0,0.0,0.0,0.0,0.0,0.0,0.0,0.0,0.0,0.0,0.0,0.0,0.0,0.0,0.0,0.0,0.0,0.0,0.0,0.0,0.0,0.0,0.0,0.0,0.0,0.0,0.0,0.0,0.0,0.0,0.0,0.0,0.0,0.0,0.0,0.0,0.0,0.0,0.0,0.0,-4.3277,-4.4544,-4.5938,-4.7646,-4.7388,-4.7296,-4.7774,-4.6673,-4.5608,-4.48,-4.3204,0.0,0.0,0.0,0.0,0.0,0.0,0.0,0.0,0.0,0.0,0.0,0.0,0.0,0.0,0.0,0.0,0.0,0.0,0.0,0.0,0.0,0.0,0.0,0.0,0.0,0.0,0.0,0.0,0.0,0.0,0.0,0.0,0.0,0.0,0.0,0.0,0.0,0.0,0.0,0.0,0.0,0.0,0.0,0.0,0.0,0.0,0.0,0.0,0.0,0.0,0.0,0.0,0.0,-5.5605,-5.6113,-5.5156,-5.6015,-5.6015,-5.5293,-5.4362,-5.3819,-5.3411,-5.1054,0.0,0.0,0.0,0.0,0.0,0.0,0.0,0.0,0.0,0.0,0.0,0.0,0.0,0.0,0.0,0.0,0.0,0.0,0.0,0.0,0.0,0.0,0.0,0.0,-4.6067,-4.649,-4.4259,0.0,0.0,0.0,0.0,0.0,0.0,0.0,0.0,0.0,0.0,0.0,-4.3112,-4.4562,-4.559,-4.5865,-4.636,-4.647,-4.5938,-4.5296,-4.458,-4.3754,-4.2947,-4.1657,0.0,0.0,0.0,0.0,0.0,0.0,0.0,0.0,0.0,0.0,0.0,0.0,0.0,0.0,0.0,0.0,0.0,0.0,0.0,0.0,0.0,0.0,0.0,0.0,0.0,0.0,0.0,0.0,0.0,0.0,0.0,0.0,-4.8672,-5.0351,0.0,0.0,0.0,0.0,0.0,0.0,0.0,0.0,0.0,0.0,0.0,0.0,0.0,-5.2617,-5.3496,-5.5976,-5.6836,-5.6133,-6.0098,-6.1133,-5.959,-6.0469,-6.0781,-6.0644,-5.9746,0.0,-5.2711,-5.2228,0.0,0.0,0.0,0.0,0.0,0.0,0.0,0.0,0.0,0.0,0.0,0.0,0.0,0.0,0.0,0.0,0.0,0.0,0.0,0.0,0.0,0.0,-4.774,-4.7625,-4.7778,-4.7663,0.0,-4.5297,-4.4077,-4.3341,-4.2693,0.0,0.0,0.0,0.0,0.0,0.0,0.0,-4.2433,-4.324,-4.4342,-4.5755,-4.5369,-4.5278,-4.5847,-4.5792,-4.5406,-4.4599,-4.3791,-4.2893,-4.1908,-3.9929,0.0,0.0,0.0,0.0,0.0,0.0,0.0,0.0,0.0,0.0,0.0,0.0,0.0,0.0,0.0,0.0,0.0,0.0,0.0,0.0,0.0,0.0,0.0,0.0,0.0,0.0,0.0,0.0,0.0,-4.7187,-4.9355,-4.8613,-4.9512,-4.9629,0.0,0.0,0.0,0.0,0.0,0.0,0.0,0.0,0.0,-5.3555,-5.4433,-5.5312,-5.6172,-5.8262,-5.9101,-5.8769,-6.1621,-6.2344,-6.1152,-6.2031,-6.2168,-6.168,-6.1308,-5.9296,-5.6221,-5.503,-5.3259,-5.1084,0.0,0.0,0.0,0.0,-4.7567,-4.8375,-4.8875,-4.9029,-4.8875,-4.7894,0.0,0.0,0.0,0.0,0.0,0.0,0.0,0.0,0.0,0.0,-4.799,-4.7528,-4.8144,-4.8548,-4.7527,-4.6299,-4.5152,0.0,-4.3963,-4.3583,-4.2623,0.0,0.0,0.0,0.0,-4.2451,-4.291,-4.3681,-4.4268,-4.4507,-4.4635,-4.4672,-4.4562,-4.4544,-4.4397,-4.4048,-4.3681,-4.313,-4.2323,-4.1105,-3.9914,0.0,0.0,0.0,0.0,0.0,0.0,0.0,0.0,0.0,0.0,0.0,0.0,0.0,0.0,0.0,0.0,0.0,0.0,0.0,0.0,0.0,0.0,0.0,0.0,0.0,0.0,0.0,0.0,-4.8691,-5.0273,-4.7891,-5.0312,-5.1055,0.0,0.0,0.0,0.0,0.0,0.0,-5.332,-5.4199,-5.5176,-5.6269,-5.7129,-5.7988,-5.8867,-6.0117,-6.0723,-6.0742,-6.2265,-6.2539,-6.1719,-6.2363,-6.2305,-6.1699,-6.1465,-6.0664,-5.9355,-5.7345,-5.5371,-5.3361,-5.0977,-4.9529,-4.8779,-4.8779,-4.9317,-5.0125,-5.0779,-5.0856,-5.0519,-4.9433,-4.8077,-4.6509,-4.4374,0.0,0.0,0.0,0.0,-4.4836,-4.5701,-4.6855,-4.7702,-4.7288,-4.8163,-4.8731,-4.7532,-4.6691,-4.5891,0.0,-4.4888,-4.4649,-4.3657,0.0,0.0,0.0,0.0,-4.2745,-4.313,-4.3901,-4.4158,-4.3552,-4.403,-4.4158,-4.3551,-4.3515,-4.3515,-4.3515,-4.3515,-4.3222,-4.2635,-4.203,-4.089,-3.9135,0.0,0.0,0.0,0.0,0.0,0.0,0.0,0.0,0.0,0.0,0.0,0.0,0.0,0.0,0.0,0.0,0.0,0.0,0.0,0.0,0.0,0.0,0.0,0.0,0.0,0.0,0.0,0.0,0.0,-5.1367,-5.4902,0.0,0.0,0.0,0.0,-5.2578,-5.3359,-5.4258,-5.5117,-5.5996,-5.7246,-5.8945,-5.9785,-6.0625,-6.1504,-6.1582,-6.1621,-6.164,-6.2558,-6.2539,-6.1699,-6.1758,-6.1738,-6.164,-6.082,-6.043,-6.0195,-5.8242,-5.5925,-5.3477,-5.2254,-5.1279,-5.0577,-5.0577,-5.1087,-5.1769,-5.1827,-5.1337,-5.0808,-5.1491,-4.9519,-4.6721,-4.5759,-4.4902,0.0,0.0,-4.5537,-4.5748,-4.6605,-4.6904,-4.7135,-4.7875,-4.8105,-4.7828,-4.6623,-4.6075,-4.5714,0.0,-4.4624,-4.3934,-4.3565,0.0,-4.3185,-4.247,-4.2983,-4.3167,-4.2451,-4.3057,-4.3551,-4.3515,-4.3551,-4.3551,-4.3515,-4.3515,-4.3515,-4.3515,-4.3515,-4.3478,-4.3441,-4.2673,-4.1851,-4.0974,-3.8528,0.0,0.0,0.0,0.0,0.0,0.0,0.0,0.0,0.0,0.0,0.0,0.0,0.0,0.0,0.0,0.0,0.0,0.0,0.0,0.0,0.0,0.0,0.0,0.0,0.0,0.0,0.0,0.0,-5.3728,-5.7013,0.0,-5.4519,-5.5093,-5.5547,-5.5234,-5.6543,-5.7715,-5.8535,-5.9414,-6.0176,-6.0781,-6.1094,-6.1387,-6.1699,-6.1699,-6.1426,-6.0879,-6.1172,-6.1152,-6.0859,-6.0332,-6.0371,-6.082,-5.998,-5.9316,-5.873,-5.7958,-5.6706,-5.518,-5.4119,-5.3127,-5.2241,-5.1683,-5.201,-5.2654,-5.2096,-5.1712,-5.126,-4.9894,-4.7913,-4.6009,-4.5691,-4.5383,-4.521,-4.5518,-4.5594,-4.5671,-4.597,-4.649,-4.6836,-4.6567,-4.6913,-4.6935,-4.5516,-4.5117,-4.4852,-4.4265,-4.388,-4.3629,-4.3513,-4.3515,-4.3387,-4.3112,-4.3331,-4.3387,-4.3112,-4.3331,-4.3515,-4.3515,-4.3515,-4.3515,-4.3515,-4.3515,-4.3515,-4.3515,-4.3002,-4.2727,-4.2727,-4.1974,-4.0979,-3.9833,-3.7948,-3.6506,0.0,0.0,0.0,0.0,0.0,0.0,0.0,0.0,0.0,0.0,0.0,0.0,0.0,0.0,0.0,0.0,0.0,0.0,0.0,0.0,0.0,0.0,0.0,0.0,0.0,-5.3388,-5.5769,-5.4892,-5.8457,-5.9638,-5.6212,-5.7846,-5.8785,-5.7949,-5.9492,-6.0586,-6.082,-6.1387,-6.1699,-6.1699,-6.1699,-6.1699,-6.1699,-6.1699,-6.1269,-6.039,-6.039,-6.0254,-5.9961,-5.914,-5.9219,-5.9941,-5.9121,-5.8437,-5.789,-5.78,-5.6994,-5.5784,-5.528,-5.4525,-5.3639,-5.3002,-5.2972,-5.3049,-5.1895,-5.151,-5.1087,-4.8529,-4.6932,-4.597,-4.5691,-4.5594,-4.5594,-4.5594,-4.5594,-4.5594,-4.5594,-4.6028,-4.6317,-4.5748,-4.6028,-4.6129,-4.4877,-4.4593,-4.4303,-4.3297,-4.3296,-4.3515,-4.3515,-4.3515,-4.3515,-4.3515,-4.3515,-4.3515,-4.3515,-4.3515,-4.3515,-4.3515,-4.3515,-4.3515,-4.3515,-4.3515,-4.3386,-4.3112,-4.2598,-4.2176,-4.1919,-4.137,-4.0559,-3.938,-3.7245,-3.5545,-3.4272,0.0,0.0,0.0,0.0,0.0,0.0,0.0,0.0,0.0,0.0,0.0,0.0,0.0,0.0,0.0,0.0,0.0,0.0,0.0,0.0,0.0,0.0,0.0,-4.9978,-5.3527,-5.5913,-5.5113,-5.949,-6.1298,-5.8054,-6.1586,-6.3067,-6.0604,-6.1992,-6.2578,-6.1738,-6.1699,-6.1699,-6.1699,-6.1699,-6.1699,-6.166,-6.166,-6.1211,-6.0312,-6.0312,-5.9902,-5.9121,-5.8223,-5.8281,-5.9062,-5.8164,-5.7773,-5.7773,-5.7773,-5.6711,-5.5126,-5.5657,-5.5378,-5.463,-5.4448,-5.3828,-5.2818,-5.1183,-5.0596,-5.0173,-4.7702,-4.6885,-4.6701,-4.5864,-4.5594,-4.5594,-4.5594,-4.5594,-4.5594,-4.5594,-4.5594,-4.5594,-4.5594,-4.5594,-4.54,-4.4707,-4.4555,-4.4097,-4.256,-4.2892,-4.3441,-4.346,-4.346,-4.346,-4.346,-4.3441,0.0,-4.3441,-4.3441,-4.3441,-4.346,-4.346,-4.3478,-4.3515,-4.3478,-4.313,-4.2359,-4.2249,-4.1882,-4.1095,-4.104,-4.0634,-3.979,-3.6585,-3.407,-3.2334,0.0,0.0,0.0,0.0,0.0,0.0,0.0,0.0,0.0,0.0,0.0,0.0,0.0,0.0,0.0,0.0,0.0,0.0,0.0,0.0,0.0,-5.0067,-5.2858,-5.3908,-5.6647,-5.8944,-5.9966,-6.2499,-6.3327,-6.1213,-6.2756,-6.3093,-6.1201,-6.1582,-6.1805,-6.1571,-6.1656,-6.1699,-6.1699,-6.1699,-6.1406,-6.0762,-6.0762,-6.0039,-5.8594,-5.8594,-5.8476,-5.8203,-5.6699,-5.6484,-5.7226,-5.5723,-5.5078,-5.5078,-5.5078,-5.4765,-5.4368,-5.5055,-5.4675,-5.3611,-5.2348,-5.0878,-4.9452,-4.8971,-4.8432,-4.7836,-4.7144,-4.6471,-4.5913,-4.5671,-4.5594,-4.5594,-4.5594,-4.5594,-4.5594,-4.5594,-4.5594,-4.5594,-4.5594,-4.5594,-4.5237,-4.393,-4.3662,-4.3227,-4.1714,-4.1625,-4.1956,-4.2525,-4.2635,-4.2635,-4.2635,-4.2139,0.0,-4.1772,-4.1772,-4.1992,-4.2561,-4.2635,-4.2873,-4.346,-4.2965,-4.2543,-4.2304,-4.1203,-4.0451,-4.023,-3.968,-3.8707,-3.7312,-3.623,-3.4888,0.0,0.0,0.0,0.0,0.0,0.0,0.0,0.0,0.0,0.0,0.0,0.0,0.0,0.0,0.0,0.0,0.0,0.0,0.0,0.0,0.0,0.0,-5.2433,-5.4953,-5.6992,-5.8569,-6.0146,-6.1889,-6.3031,-6.3303,-6.2392,-6.3169,-6.304,-6.1419,-6.1715,-6.1794,-6.1443,-6.1547,-6.161,-6.161,-6.1327,-6.0918,-6.039,-6.0078,-5.9238,-5.789,-5.7539,-5.7168,-5.6758,-5.5371,-5.5039,-5.5449,-5.4433,-5.4004,-5.4004,-5.4004,-5.3789,0.0,0.0,0.0,0.0,0.0,-4.9039,-4.8048,-4.7721,-4.7298,-4.6827,-4.6471,-4.6009,-4.5594,-4.5594,-4.5594,-4.5594,-4.5594,-4.5594,-4.5594,-4.5594,-4.5594,-4.5594,-4.5594,-4.5325,-4.4776,-4.3734,-4.3125,-4.2389,-4.1026,-4.0951,0.0,-4.1277,-4.157,-4.1809,-4.1809,-4.1389,-4.1095,-4.1095,-4.1095,-4.1279,-4.1754,-4.1809,-4.1992,-4.2451,-4.2066,0.0,0.0,0.0,-3.9753,-3.9405,-3.8615,0.0,0.0,0.0,-3.5172,-3.3844,0.0,0.0,0.0,-3.4353,-3.4675,0.0,0.0,0.0,0.0,0.0,0.0,0.0,0.0,0.0,0.0,0.0,0.0,0.0,0.0,0.0,0.0,-5.5168,-5.664,-5.9069,-5.9546,-6.0223,-6.1774,-6.2043,-6.2097,-6.2124,-6.2916,-6.2831,-6.1356,-6.1972,-6.2082,-6.1317,0.0,0.0,0.0,0.0,-6.0195,-6.0097,-5.9394,-5.8574,-5.7598,-5.6816,-5.5996,-5.5117,-5.4258,-5.3848,-5.3848,-5.375,-5.3711,-5.3711,-5.3711,-5.3203,-5.248,-5.3114,-5.2269,-5.0442,-4.8639,-4.7912,-4.7721,-4.7009,0.0,0.0,-4.5845,-4.5594,-4.5594,-4.5594,-4.5594,-4.5594,-4.5594,-4.5594,-4.5594,-4.5594,-4.5594,-4.5575,-4.5479,-4.4855,-4.415,-4.3581,-4.2689,-4.16,-4.0365,-4.0428,-4.0469,-3.9753,-4.0377,-4.0948,-4.0948,-4.0893,-4.082,-4.082,-4.082,-4.0857,-4.0948,0.0,0.0,-4.1095,-4.1022,-4.0671,-3.9937,-3.9717,-3.935,-3.8726,-3.7826,-3.7147,-3.6678,-3.5818,-3.4938,-3.4064,-3.4681,-3.4415,-3.3423,-3.4235,-3.4928,0.0,0.0,0.0,0.0,0.0,0.0,0.0,0.0,0.0,0.0,0.0,0.0,0.0,0.0,0.0,-5.3442,-5.5256,-5.6874,-5.8675,-5.9862,-6.0666,-6.1012,-6.1678,-6.1824,-6.115,-6.1874,-6.1973,-6.0967,-6.1155,-6.1239,-6.1065,-6.0572,-6.0292,-6.0292,-5.9576,-5.8872,-5.8226,-5.8179,-5.7363,-5.5801,0.0,0.0,-5.4219,-5.3359,-5.2949,-5.291,-5.2207,-5.1894,-5.1894,-5.1894,-5.1426,-5.0683,-5.0715,-4.9598,-4.7898,-4.7404,-4.6738,-4.6056,-4.5922,-4.5845,-4.5825,-4.5652,-4.5594,-4.5594,-4.5594,-4.5594,0.0,-4.5594,-4.5594,-4.5594,-4.5594,-4.5594,-4.5421,-4.472,-4.4412,-4.3788,-4.1862,-4.1293,-4.0716,-3.9276,-3.8566,-3.8153,-3.7988,-3.9182,-4.012,-4.012,-3.9588,-3.9166,-3.9166,-3.9166,-3.9423,-4.0065,-4.012,-4.0396,-4.104,-4.0506,-4.0065,-3.9916,-3.8686,-3.819,-3.8689,-3.7294,-3.6306,-3.5847,-3.4661,-3.3794,-3.3228,-3.2994,-3.3056,-3.344,-3.4754,-3.5148,0.0,0.0,0.0,0.0,0.0,0.0,0.0,0.0,0.0,0.0,0.0,-4.7902,-5.0184,0.0,-5.2518,-5.547,-5.6892,-5.8025,-5.9283,-5.9843,-6.03,-6.0742,-6.1166,-6.1293,-6.0839,-6.1185,-6.1262,-6.0819,-6.0869,-6.0904,-6.0904,-6.0641,-6.0311,-5.991,-5.9187,-5.8394,-5.7556,-5.6858,-5.6061,-5.5181,-5.4373,-5.3769,-5.332,-5.2441,-5.2051,-5.2031,-5.1582,-5.1406,-5.1367,-5.0976,-5.0058,-4.8887,-4.8821,-4.8185,-4.7232,-4.6626,-4.6102,-4.5685,-4.561,-4.5594,-4.5594,-4.5594,-4.5594,-4.5594,-4.5594,-4.5306,-4.496,-4.496,-4.4662,-4.4355,-4.4355,-4.4355,-4.4239,-4.3797,-4.3374,-4.2693,-4.1381,-4.034,-3.9368,-3.847,-3.755,-3.6905,-3.6905,-3.7584,-3.8245,-3.8649,-3.8358,-3.823,-3.8652,-3.834,-3.8248,-3.8667,-3.8355,-3.8267,-3.867,-3.8322,-3.8102,-3.8102,-3.7331,-3.7088,-3.7477,-3.6321,-3.574,-3.5945,-3.4896,-3.4133,-3.3686,-3.3593,-3.3425,-3.3217,-3.4088,-3.4303,0.0,0.0,0.0,0.0,0.0,0.0,0.0,-4.4402,-4.5739,-4.7421,-4.8401,-4.9821,-5.2601,-5.3306,-5.4401,-5.7275,-5.8048,-5.8623,-5.9478,-5.9262,-5.9299,-6.009,-6.04,-6.0608,-6.0781,-6.08,-6.08,-6.08,-6.08,-6.08,-6.08,-6.0586,-6.0179,-5.9522,-5.8627,-5.7824,-5.713,-5.5751,-5.498,-5.4785,-5.3345,-5.2576,-5.2381,-5.1719,-5.1406,-5.1387,-5.123,-5.1172,-5.1094,-5.0273,-4.9023,-4.7598,-4.7598,-4.7437,-4.7071,-4.6183,-4.5834,-4.5783,-4.568,-4.561,-4.5594,-4.5594,-4.5594,-4.5575,-4.5402,-4.4855,-4.4259,-4.4105,-4.3605,-4.3104,-4.3104,-4.3104,-4.3008,-4.2681,-4.2066,-4.1374,-4.0693,-3.9332,-3.8116,-3.7754,-3.6845,-3.6113,-3.606,-3.5917,-3.6138,-3.7125,-3.7272,-3.7511,-3.8157,-3.7661,-3.7272,-3.7272,-3.6703,-3.6303,-3.6303,-3.6303,-3.6303,-3.6303,-3.6138,-3.6119,-3.6285,-3.5298,-3.5123,-3.5926,-3.4942,-3.4208,-3.3797,-3.4014,-3.3565,-3.2533,-3.2767,-3.3049,-3.7883,-3.841,-4.0296,-4.2972,-4.3957,-4.5063,0.0,-4.8529,-4.8773,-5.046,-5.1501,-5.2312,-5.3053,-5.4062,-5.5137,-5.6237,-5.65,-5.6874,-5.7678,-5.7495,-5.7442,-5.7895,-5.8961,-5.9954,-6.0723,-6.08,-6.08,-6.08,-6.08,-6.08,-6.08,-5.9392,-5.8556,-5.846,-5.7,-5.6168,-5.6071,-5.531,-5.4524,-5.3765,-5.2916,-5.2112,-5.1371,-5.1383,-5.1406,-5.1367,-5.0644,-5.0332,-5.0273,-4.9394,-4.8476,-4.7598,-4.7598,-4.7129,-4.6385,-4.6152,-4.5942,-4.5796,-4.5776,-4.57,-4.5594,-4.5594,-4.5594,-4.546,-4.4682,-4.4374,-4.4143,-4.3431,-4.3162,-4.3104,-4.3104,-4.3104,-4.2701,-4.117,-4.0727,-4.0145,-3.8316,-3.7756,-3.7459,-3.6932,-3.6161,-3.549,-3.5207,-3.4546,-3.4614,-3.6193,-3.6431,-3.6468,-3.656,-3.6486,-3.6431,-3.6431,-3.634,-3.6303,-3.6303,-3.6303,-3.6303,-3.6303,-3.5573,-3.5481,-3.6266,-3.478,-3.415,-3.4594,-3.3099,-3.2116,-3.1645,-3.1685,-3.1423,-3.0854,-3.0958,-3.1854,-3.9617,-4.0157,-4.1146,-4.3199,-4.4494,-4.5769,-4.7702,-4.8696,-4.9694,-5.1356,-5.2354,-5.3154,-5.3793,-5.4305,-5.4903,-5.5715,-5.6115,-5.6423,-5.6759,-5.6473,-5.6484,-5.7168,-5.7699,-5.8528,-5.99,-6.0031,-6.0242,-6.0762,-6.0319,-6.0031,-6.0031,-5.8934,-5.8069,-5.755,-5.6896,-5.6069,-5.5085,-5.4378,-5.3586,-5.2712,-5.2028,-5.1509,-5.1204,-5.1265,-5.1067,-5.0683,-5.0351,-4.9629,-4.8652,-4.8281,-4.7637,-4.6836,-4.6836,-4.6621,-4.6289,-4.6147,-4.6053,-4.5959,-4.5886,-4.5796,-4.5626,-4.5124,-4.5252,-4.5344,-4.4008,-4.3605,-4.3431,-4.2585,-4.1989,-4.1593,-4.1593,-4.1239,-4.07,-3.9977,-3.9419,-3.8762,-3.7715,-3.7136,-3.6692,-3.6299,-3.5425,-3.4692,-3.4562,-3.4123,-3.4045,-3.4743,-3.5238,-3.5734,-3.6229,-3.5862,-3.5367,-3.4908,-3.4853,-3.4853,-3.4853,-3.4412,-3.4156,-3.4156,-3.3366,-3.3073,-3.3421,-3.2792,-3.2475,-3.2643,-3.1987,-3.1542,-3.1359,-3.0891,-3.0566,-3.0357,-2.992,-3.0128,-3.9856,-4.0614,-4.1283,-4.2686,-4.4251,-4.5707,-4.6706,-4.8018,-4.9495,-5.1111,-5.1748,-5.2312,-5.3313,-5.3667,-5.4052,-5.4838,-5.5431,-5.578,-5.578,-5.5324,-5.5293,-5.6032,-5.6071,-5.6768,-5.8597,-5.9089,-5.9573,-6.0207,-5.958,-5.9165,-5.9165,-5.8396,-5.7646,-5.7022,-5.6772,-5.606,-5.4838,-5.384,-5.3039,-5.2382,-5.1477,-5.1089,-5.1174,-5.0998,-5.0654,-5.0176,-4.9687,-4.8769,-4.7578,-4.7344,-4.6875,-4.6308,-4.6308,-4.6308,-4.6289,-4.6198,-4.6122,-4.6082,-4.5988,-4.5891,-4.5723,-4.506,-4.5056,-4.5015,-4.3544,-4.2931,-4.2508,-4.1431,-4.0662,-4.0112,-3.9881,-3.9381,-3.8873,-3.8642,-3.8104,-3.7502,-3.7048,-3.6487,-3.5971,-3.5632,-3.4902,-3.4288,-3.4111,-3.3941,-3.3807,-3.3807,-3.4289,-3.4894,-3.5532,-3.5073,-3.4362,-3.355,-3.3476,-3.3385,-3.3164,-3.2596,-3.2284,-3.2284,-3.1715,-3.1397,-3.1397,-3.1397,-3.1397,-3.1397,-3.1182,-3.1072,-3.1072,-3.0477,-3.0089,-2.9849,-2.9295,-2.9022,-3.7104,-3.8415,-3.9939,-4.1463,-4.3048,-4.4654,-4.6157,-4.7216,-4.8264,-4.976,-4.9518,-4.9465,-5.0915,-5.1795,-5.2513,-5.3267,-5.3972,-5.4458,-5.4458,-5.3781,-5.3437,-5.3851,-5.3907,-5.4705,-5.6769,-5.8091,-5.8826,-5.8864,-5.8546,-5.8338,-5.8338,-5.7511,-5.7041,-5.7003,-5.6195,-5.5722,-5.5665,-5.404,-5.3194,-5.3155,-5.1628,-5.0972,-5.1084,-5.0508,-5.0215,-5.0117,-4.8418,-4.7656,-4.7539,-4.6699,-4.6328,-4.6308,-4.6308,-4.6308,-4.6308,-4.6308,-4.6202,-4.6108,-4.6106,-4.6021,-4.5876,-4.5795,-4.5196,-4.435,-4.3381,-4.2508,-4.1508,-3.9835,-3.9361,-3.915,-3.8296,-3.8065,-3.7834,-3.6981,-3.675,-3.6519,-3.5724,-3.5551,-3.5358,-3.4831,-3.4703,-3.4505,-3.3902,-3.382,-3.3807,-3.3807,-3.3825,-3.3844,-3.3862,-3.3844,-3.3532,-3.2711,-3.2638,-3.232,-3.1544,-3.1452,-3.1452,-3.1452,-3.1415,-3.1397,-3.1397,-3.1397,-3.1397,-3.1397,-3.0632,-3.0246,-3.0246,-3.0204,-2.9797,-2.9036,-2.908,-2.9057,-3.6833,-3.8229,-3.9548,-4.1995,-4.2987,-4.3806,-4.5412,-4.6388,-4.7234,-4.8322,-4.8305,-4.8269,-4.8759,-4.9078,-4.9514,-5.0276,-5.1367,-5.2295,-5.2817,-5.3518,-5.3857,-5.3455,-5.4822,-5.5641,-5.5273,-5.6149,-5.7217,-5.8318,-5.7553,-5.7041,-5.7041,-5.6468,-5.6137,-5.6137,-5.5838,-5.5164,-5.4049,-5.3491,-5.2645,-5.1539,-5.1117,-5.0668,-5.0233,-5.0118,-4.9484,-4.8437,-4.7851,-4.7266,-4.6719,-4.6426,-4.6308,-4.6308,-4.6308,-4.6308,-4.6308,-4.6308,-4.6268,-4.6226,-4.6226,-4.6145,-4.5829,-4.4602,-4.4342,-4.4105,-4.2002,-4.1566,-4.145,-3.9758,-3.9304,-3.9111,-3.8238,-3.7565,-3.7058,-3.6769,-3.6288,-3.5827,-3.5558,-3.55,-3.5446,-3.5273,-3.4944,-3.4632,-3.442,-3.408,-3.3807,-3.3807,-3.3807,-3.3605,-3.306,-3.2999,-3.2706,-3.188,-3.1806,-3.1678,-3.1415,-3.0907,-3.0595,-3.0595,-3.0099,-2.9812,-2.9812,-2.9812,-2.9812,-2.9812,-2.9537,-2.939,-2.9409,-2.8905,-2.8522,-2.8272,-2.7745,-2.7501,-3.5852,-3.7278,-3.8488,-4.0612,-4.1133,-4.1574,-4.3145,-4.3888,-4.4597,-4.5938,-4.576,-4.5621,-4.6442,-4.6386,-4.6557,-4.7572,-4.8675,-4.988,-5.1173,-5.2186,-5.2999,-5.3594,-5.5019,-5.5757,-5.5299,-5.5243,-5.5749,-5.696,-5.6491,-5.6088,-5.5941,-5.565,-5.5535,-5.5703,-5.5415,-5.4741,-5.3683,-5.3049,-5.2049,-5.0693,-5.0518,-5.0196,-4.9712,-4.9227,-4.8452,-4.7514,-4.7201,-4.6775,-4.6308,-4.6308,-4.6308,-4.6308,-4.6308,-4.6308,-4.6308,-4.6308,-4.6094,-4.584,-4.584,-4.5778,-4.5443,-4.389,-4.35,-4.3313,-4.1504,-4.0931,-4.0623,-3.9219,-3.8604,-3.818,-3.7334,-3.6692,-3.6269,-3.6269,-3.5885,-3.55,-3.55,-3.55,-3.5383,-3.4973,-3.4603,-3.4254,-3.3845,-3.3384,-3.3055,-3.297,-3.2944,-3.2852,-3.2619,-3.2344,-3.1861,-3.1054,-3.0962,-3.0852,-3.0577,-3.0081,-2.9757,-2.9757,-2.9299,-2.9005,-2.9005,-2.9005,-2.9005,-2.9005,-2.9005,-2.9005,-2.9005,-2.852,-2.8215,-2.8061,-2.7424,-2.7051,-3.4261,-3.5632,-3.6873,-3.7617,-3.7793,-3.8184,-3.9647,-3.9995,-4.0619,-4.2684,-4.2037,-4.1743,-4.3916,-4.3743,-4.3791,-4.5303,-4.6182,-4.7441,-4.9688,-5.005,-5.1148,-5.4037,-5.4437,-5.5016,-5.6492,-5.5317,-5.4594,-5.4892,0.0,-5.5441,-5.5059,-5.5075,-5.5262,-5.5651,-5.4914,-5.4472,-5.4434,-5.2722,-5.1433,-5.0635,-4.9911,-4.9546,-4.9424,-4.7883,-4.7244,-4.7277,-4.646,-4.6174,-4.6289,-4.6308,-4.6308,-4.6308,-4.6308,-4.6308,-4.6289,-4.625,-4.5703,-4.498,-4.4902,-4.4902,-4.4763,-4.3689,-4.277,-4.2052,-4.1764,-4.0566,-3.9111,-3.818,-3.7334,-3.65,-3.5712,-3.55,-3.55,-3.55,-3.55,-3.5481,-3.5442,-3.5423,-3.5105,-3.3979,-3.374,-3.3382,-3.2298,-3.1927,-3.1704,-3.1458,-3.136,-3.1604,-3.2381,-3.1806,-3.1017,-3.0228,-3.0136,-2.9831,-2.906,-2.9005,-2.8987,-2.895,-2.8932,-2.8932,-2.8877,-2.8877,-2.8877,-2.8877,-2.8932,-2.8932,-2.8932,-2.8957,-2.8773,-2.8394,-2.8047,-2.771,-3.4825,-3.5982,-3.6805,-3.7584,-3.7793,-3.7883,-3.8305,-3.8827,-3.9237,-3.9304,-3.9397,-3.9684,-4.0363,-4.1175,-4.2449,-4.4528,-4.6349,-4.8085,-4.9756,-5.1458,-5.2562,-5.2708,-5.4297,-5.5031,-5.4188,-5.4821,-5.485,-5.3744,-5.4036,-5.4236,-5.4153,-5.4741,-5.5147,-5.5237,-5.4767,-5.4184,-5.3549,-5.1856,-5.0567,-4.9721,-4.9536,-4.882,-4.7648,-4.7249,-4.6773,-4.6279,-4.6147,-4.6117,-4.615,-4.6268,-4.6308,-4.6308,-4.6308,-4.6308,-4.6211,-4.5566,-4.5195,-4.4805,-4.3516,-4.3496,-4.3846,-4.2776,-4.2288,-4.1838,-4.0382,-3.9642,-3.8977,-3.7469,-3.6865,-3.65,-3.5712,-3.55,-3.55,-3.55,-3.55,-3.5327,-3.4661,-3.4526,-3.4243,-3.3312,-3.2974,-3.2689,-3.2185,-3.1927,-3.179,-3.1711,-3.1027,-3.0577,-3.0797,-3.0632,-3.021,-2.939,-2.9317,-2.9225,-2.9023,-2.9005,-2.873,-2.8136,-2.8117,-2.7842,-2.7244,-2.7207,-2.7207,-2.7207,-2.7805,-2.8117,-2.8117,-2.8403,-2.8496,-2.8394,-2.8047,-2.7855,-3.4364,-3.5171,-3.5768,-3.6242,-3.6332,-3.6422,-3.6762,-3.7135,-3.7361,-3.7034,-3.7036,-3.7193,-3.7573,-3.8543,-3.9921,-4.1875,-4.3994,-4.6138,-4.8306,-5.022,-5.1764,-5.2608,-5.3876,-5.4583,-5.4332,-5.4478,-5.4355,-5.3772,-5.3937,-5.3995,-5.3814,-5.3929,-5.4069,-5.4264,-5.3505,-5.2779,-5.2106,-5.0779,-4.9875,-4.9394,-4.8644,-4.7822,-4.6936,-4.6557,-4.6202,-4.5861,0.0,-4.6031,-4.611,-4.6175,-4.6012,-4.5762,-4.6152,-4.582,-4.5156,-4.5039,-4.4512,-4.3711,-4.2734,-4.2246,-4.1913,-4.1269,-4.0782,-4.0263,-3.9114,-3.853,-3.8028,-3.699,-3.6442,-3.6077,-3.5615,-3.55,-3.55,-3.55,-3.55,-3.525,-3.4398,-3.4205,-3.384,-3.2602,-3.1935,-3.1488,-3.1229,-3.1017,-3.0849,-3.0754,-3.012,-2.9666,-2.9666,-2.9666,-2.95,-2.906,-2.9005,-2.8858,-2.8503,-2.8473,-2.8136,-2.7328,-2.7273,-2.7071,-2.662,-2.6602,-2.6602,-2.6602,-2.7034,-2.7273,-2.7273,-2.7497,-2.7604,-2.7592,-2.7241,-2.7072,-3.3439,-3.3903,-3.4384,-3.4384,-3.4384,-3.4526,-3.5062,-3.5181,-3.5186,-3.5205,-3.4792,-3.4654,-3.5379,-3.6149,-3.7268,-3.9109,-4.104,-4.3405,-4.6515,-4.818,-5.0103,-5.2857,-5.3245,-5.377,-5.5122,-5.3868,-5.3251,-5.388,-5.3934,-5.382,-5.3571,-5.2958,-5.2701,-5.2881,-5.1849,-5.1036,-5.0441,-4.975,-4.9279,-4.9048,-4.7586,-4.6827,-4.6701,-4.5932,-4.5657,-4.5763,-4.579,-4.5896,-4.6064,-4.6082,-4.5643,-4.5036,-4.582,-4.5137,-4.3769,-4.4414,-4.3691,-4.2363,-4.2148,-4.1035,-3.9726,-3.9702,-3.9119,-3.8334,-3.8026,-3.7445,-3.685,-3.6613,-3.6038,-3.55,-3.55,-3.55,-3.55,-3.55,-3.55,-3.5231,-3.4237,-3.3859,-3.3276,-3.1814,-3.0923,-3.0336,-3.0089,-2.9853,-2.9634,-2.9474,-2.9181,-2.8968,-2.8858,-2.884,-2.884,-2.884,-2.8748,-2.84,-2.7695,-2.764,-2.7291,-2.6484,-2.6447,-2.6392,-2.63,-2.6282,-2.6282,-2.6282,-2.6392,-2.6447,-2.6447,-2.6557,-2.6602,-2.6583,-2.6243,-2.608,-3.3136,-3.3574,-3.3664,-3.3664,-3.3664,-3.3545,-3.3141,-3.3035,-3.2884,-3.2351,-3.2628,-3.3205,-3.3932,-3.5104,-3.7075,-4.0392,-4.173,-4.363,-4.7203,-4.8972,-5.0311,-5.1452,-5.2113,-5.256,-5.2795,-5.1896,-5.1378,-5.1516,-5.1448,-5.1687,-5.2285,-5.2493,-5.216,-5.1254,-5.126,-5.0605,-4.9133,-4.9305,-4.8702,-4.7336,-4.7038,-4.6528,-4.5825,-4.5671,-4.5612,-4.5643,-4.5754,0.0,-4.5867,-4.6021,-4.5579,-4.4787,-4.5109,-4.4566,-4.3552,-4.3045,-4.2656,-4.2207,-4.0801,-3.9668,-3.8925,-3.9506,-3.9119,-3.8239,-3.7371,-3.7019,-3.6734,-3.5939,-3.5615,-3.55,-3.55,-3.55,-3.55,-3.55,-3.55,-3.5058,-3.3468,-3.2045,-3.0962,-3.0673,-3.05,-3.0392,-3.0349,-2.9985,-2.9687,-2.9652,-2.9272,-2.8767,-2.8081,-2.8007,-2.8007,-2.8007,-2.742,-2.695,-2.6833,-2.6814,-2.6465,-2.5668,-2.5613,-2.5319,-2.463,-2.4612,-2.4612,-2.4612,-2.5264,-2.5613,-2.5613,-2.6282,-2.6602,-2.6602,-2.653,-2.6508,-3.2198,-3.2627,-3.2976,-3.2976,-3.2976,-3.2811,-3.2123,-3.1974,-3.169,-3.0717,-3.1026,-3.1622,-3.1982,-3.3485,-3.5391,-3.758,-3.9797,-4.2273,-4.5193,-4.7538,-4.9376,-5.0475,-5.0946,-5.1283,-5.164,-5.0576,-5.0019,-5.0407,-5.0349,-5.0605,-5.1332,-5.1151,-5.0468,-4.9221,-4.934,-4.8942,-4.7935,-4.7826,-4.7373,-4.6587,-4.633,-4.599,-4.5594,-4.5594,-4.5594,-4.5594,-4.5665,-4.5481,-4.5138,-4.5225,-4.4502,-4.3409,-4.3941,-4.3379,-4.2268,-4.2328,-4.1813,-4.0976,-4.0176,-3.9023,-3.7988,-3.8334,-3.7861,-3.7052,-3.654,-3.6384,-3.6258,-3.5704,-3.5558,-3.554,-3.5508,-3.55,-3.5385,-3.493,-3.416,-3.3288,-3.2468,-3.1288,-3.0404,-3.0404,-3.0404,-3.0404,-3.0404,-3.0095,-2.9701,-2.9292,-2.8922,-2.8366,-2.7456,-2.6974,-2.6831,-2.7137,-2.6833,-2.6429,-2.6007,-2.597,-2.5631,-2.4824,-2.4787,-2.4603,-2.4208,-2.419,-2.419,-2.419,-2.4585,-2.4787,-2.4787,-2.5162,-2.5346,-2.5346,-2.5346,-2.5346,-3.1147,-3.1733,-3.2482,-3.2303,-3.2273,-3.2064,-3.1271,-3.1092,-3.0821,-2.9816,-2.9968,-3.0387,-3.0672,-3.2081,-3.3584,-3.4649,-3.7187,-4.009,-4.3072,-4.5641,-4.7919,-4.9881,-5.0084,-5.0249,-5.0681,-4.9452,-4.8736,-4.9025,-4.8875,-4.9219,-5.0193,-4.9334,-4.8347,-4.7348,-4.7411,-4.719,-4.6685,-4.6366,-4.6127,-4.6042,-4.5668,-4.5522,-4.5594,-4.5594,-4.5594,-4.5594,-4.5402,-4.5001,0.0,-4.4299,-4.3358,-4.2116,-4.284,-4.2224,-4.1017,-4.1749,-4.1095,-3.9823,-3.9687,-3.8594,-3.7266,-3.707,-3.6562,-3.5995,-3.5914,-3.5901,-3.5862,-3.5674,-3.5611,-3.5585,-3.5534,-3.5508,-3.5269,-3.4417,-3.291,-3.1698,-3.1698,-3.1019,-3.0404,-3.0404,-3.0404,-3.0346,-3.0154,-3.0055,-2.9648,-2.8603,-2.8393,-2.7901,-2.6739,-2.6033,-2.5754,-2.6046,-2.6098,-2.5823,-2.5191,-2.5136,-2.4879,-2.4245,-2.419,-2.419,-2.419,-2.419,-2.419,-2.419,-2.419,-2.419,-2.419,-2.419,-2.419,-2.419,-2.419,-2.419,-3.036,-3.141,-3.2333,-3.175,-3.1585,-3.1271,-3.0043,-2.9759,-2.9729,-2.9636,-2.9651,-3.0028,-3.1197,-3.1568,-3.2381,-3.4457,-3.5073,-3.7233,-4.2739,-4.4301,-4.6188,-4.9683,-5.0084,-4.9862,-4.9246,-4.8369,-4.7269,-4.6013,-4.5677,-4.6408,-4.8414,-4.7076,-4.6177,-4.6066,-4.6409,-4.6209,-4.5367,-4.5683,-4.5628,-4.5211,-4.5167,-4.5312,-4.5594,-4.5594,-4.5594,-4.5556,-4.4759,-4.4391,0.0,-4.3608,-4.2737,-4.1851,-4.2121,-4.1606,-4.0751,-4.1011,-4.053,-3.9621,-3.8943,-3.8105,-3.7168,-3.6387,-3.6074,-3.5995,-3.5914,-3.5901,-3.5871,-3.5739,-3.5642,-3.5605,-3.5595,-3.5546,-3.5269,-3.4417,-3.291,-3.1698,-3.1698,-3.1019,-3.0404,-3.0404,-3.0404,-3.0154,-2.9357,-2.9653,-2.9395,-2.7599,-2.7798,-2.7493,-2.5767,-2.5469,-2.5165,-2.4483,-2.441,-2.4392,-2.4318,-2.43,-2.4281,-2.419,-2.419,-2.419,-2.419,-2.419,-2.419,-2.419,-2.419,-2.419,-2.419,-2.419,-2.419,-2.419,-2.419,-2.419,-2.9498,-3.0988,-3.2333,-3.1675,-3.1197,-3.0672,-2.9789,-2.9307,-2.8996,-2.8996,-2.931,-2.9864,-3.0746,-3.1227,-3.1911,-3.3225,-3.4166,-3.6151,-4.0229,-4.1805,-4.3951,-4.7673,-4.7716,-4.7682,-4.8291,-4.681,-4.539,-4.4264,-4.3928,-4.4327,-4.5576,-4.5809,-4.5681,-4.5186,-4.5326,-4.5023,-4.4173,-4.4546,-4.4623,-4.4436,-4.4889,-4.518,-4.5312,-4.5504,-4.5306,-4.4797,-4.4451,-4.372,0.0,-4.2487,-4.1836,-4.0985,-4.0572,-4.0525,-4.0599,-3.9654,-3.9153,-3.8809,-3.8029,-3.7203,-3.6465,-3.6113,-3.5996,-3.5898,-3.5348,-3.5541,-3.5829,-3.5203,-3.5029,-3.498,-3.4855,-3.4013,-3.3141,-3.2776,-3.1775,-3.0923,-3.0923,-3.0635,-3.0404,-3.0404,-3.0404,-3.0115,-2.9261,-2.93,-2.8868,-2.7096,-2.7038,-2.6664,-2.5227,-2.5037,-2.4814,-2.4265,-2.419,-2.419,-2.419,-2.419,-2.419,-2.419,-2.419,-2.419,-2.419,-2.419,-2.419,-2.419,-2.419,-2.419,-2.419,-2.419,-2.419,-2.419,-2.419,-2.419,-2.8789,-3.0585,-3.2333,-3.1675,-3.0987,-3.0342,-2.9756,-2.9071,-2.8667,-2.8846,-2.9265,-2.9834,-3.0657,-3.1182,-3.1645,-3.2123,-3.3255,-3.5136,-3.8264,-3.978,-4.1952,-4.5701,-4.5686,-4.5703,-4.6486,-4.4773,-4.342,-4.2975,-4.255,-4.2585,-4.3248,-4.4338,-4.4766,-4.436,-4.436,-4.4066,-4.3515,-4.3742,-4.3893,-4.4016,-4.4535,-4.4709,-4.4585,-4.481,-4.4499,-4.3778,-4.3509,-4.2795,0.0,-4.1277,-4.07,-4.0054,-3.9246,-3.9326,-3.9766,-3.8626,-3.8095,-3.786,-3.7082,-3.6272,-3.5544,-3.5312,-3.5234,-3.5078,-3.4219,-3.4746,-3.5488,-3.4812,-3.4426,-3.4177,-3.3966,-3.283,-3.1713,-3.1711,-3.1019,-3.0404,-3.0404,-3.0404,-3.0404,-3.0404,-3.0192,-2.9737,-2.8896,-2.8742,-2.8148,-2.6395,-2.6351,-2.6107,-2.496,-2.4804,-2.4693,-2.441,-2.4312,-2.4257,-2.4218,-2.419,-2.419,-2.419,-2.419,-2.419,-2.419,-2.419,-2.419,-2.419,-2.419,-2.419,-2.419,-2.419,-2.419,-2.419,-2.419,-2.419,-2.8227,-3.0315,-3.2333,-3.1675,-3.0987,-3.0342,-2.9756,-2.9071,-2.8786,-2.9457,-2.9606,-2.9983,-3.1256,-3.1511,-3.1511,-3.1511,-3.2064,-3.3813,-3.7498,-3.8586,-4.0401,-4.4176,-4.4632,-4.4282,-4.3511,-4.2117,-4.1486,-4.2078,-4.1388,0.0,-4.1789,-4.24,-4.2976,-4.3497,-4.3497,-4.3515,-4.3515,-4.3496,-4.3679,-4.4001,-4.4016,-4.3769,-4.3335,-4.3316,-4.3068,-4.2572,-4.1703,-4.1513,0.0,-4.0008,-3.9323,-3.9227,-3.8354,-3.8027,-3.8036,-3.816,-3.7655,-3.6828,-3.6153,-3.5336,-3.4484,-3.369,-3.3437,-3.3281,-3.2461,-3.3398,-3.4707,-3.4707,-3.4034,-3.3278,-3.3061,-3.2401,-3.1777,-3.1715,-3.1019,-3.0404,-3.0404,-3.0404,-3.0404,-3.0404,-2.9698,-2.8857,-2.8049,-2.7915,-2.7251,-2.5302,-2.5755,-2.5939,-2.492,-2.4804,-2.4797,-2.4797,-2.4615,-2.4428,-2.4218,-2.419,-2.419,-2.419,-2.419,-2.419,-2.419,-2.419,-2.419,-2.419,-2.419,-2.419,-2.419,-2.419,-2.419,-2.419,-2.419,-2.419,-2.8295,-2.9667,-3.0986,-3.0357,-2.9699,-2.9146,-2.8951,-2.8742,-2.8786,-2.9472,-3.0298,-3.1017,-3.1436,-3.1869,-3.2168,-3.2168,-3.2766,-3.391,-3.6074,-3.7844,-3.9943,-4.27,-4.3962,-4.3876,-4.2083,-4.1474,-4.1061,-4.0745,-4.084,-4.077,-4.0468,-4.1014,-4.1828,-4.2921,-4.2774,-4.2928,-4.3496,-4.2415,-4.2187,-4.2832,-4.25,-4.2277,-4.2154,-4.2385,-4.1789,-4.0596,-4.0517,-3.989,0.0,-3.8551,-3.8411,-3.8315,-3.745,-3.7123,-3.6976,-3.5869,-3.5322,-3.5006,-3.4256,-3.3871,-3.3665,-3.3403,-3.3356,-3.3359,-3.3105,-3.3398,-3.3691,-3.3144,-3.2708,-3.2241,-3.1544,-3.1134,-3.0892,-3.0829,-3.016,-2.9506,-2.9506,-2.9083,-2.8698,-2.8698,-2.8467,-2.8011,-2.7159,-2.7005,-2.6605,-2.5386,-2.5439,-2.5442,-2.5006,-2.4949,-2.4904,-2.4818,-2.4746,-2.4623,-2.4409,-2.4275,-2.419,-2.419,-2.419,-2.419,-2.419,-2.419,-2.419,-2.419,-2.419,-2.419,-2.419,-2.419,-2.419,-2.419,-2.419,-2.419,-2.802,-2.9075,-3.0058,-2.9696,-2.9086,-2.8607,-2.8607,-2.8607,-2.8786,-2.9472,-3.0417,-3.1197,-3.1451,-3.1839,-3.2198,-3.2452,-3.2856,-3.3713,-3.5379,-3.7273,-3.936,-4.1615,-4.2734,-4.2642,-4.095,-4.0781,-4.0578,-4.013,-4.0144,-3.9982,-3.9519,-3.9765,-4.0329,-4.1151,-4.1433,-4.1878,-4.2598,-4.159,-4.1352,-4.1846,-4.1564,-4.1241,-4.0959,-4.0863,-4.017,-3.9011,-3.8972,0.0,0.0,-3.7214,-3.7238,-3.7353,-3.5853,-3.5468,-3.5584,-3.4218,-3.3748,-3.3666,-3.2871,-3.2656,-3.2694,-3.2406,-3.216,-3.1973,-3.1973,-3.2422,-3.2773,-3.1934,-3.1658,-3.1448,-3.0798,-3.0378,-3.0101,-3.0007,-2.9323,-2.8675,-2.8675,-2.8273,-2.7895,-2.7895,-2.7621,-2.7236,-2.6697,-2.6327,-2.5923,-2.5385,-2.5308,-2.5259,-2.5141,-2.5105,-2.5071,-2.5006,-2.4923,-2.4823,-2.47,-2.4526,-2.4436,-2.4436,-2.4436,-2.4436,-2.4436,-2.4348,-2.4321,-2.4321,-2.4247,-2.419,-2.419,-2.419,-2.419,-2.419,-2.419,-2.419,0.0,-2.851,-2.9532,-2.9532,-2.9086,-2.8667,-2.8667,-2.8697,0.0,-2.9547,-3.0178,-3.0836,-3.1391,-3.154,-3.1765,-3.2333,-3.2452,-3.3201,-3.5166,-3.6866,-3.8638,-4.0731,-4.1066,-4.0805,-4.002,-4.0054,-4.0096,-4.0096,-3.9436,-3.8971,-3.892,-3.8694,-3.8534,-3.8473,-3.9425,-4.031,-4.1027,-4.0879,-4.0861,-4.1003,-4.0838,-4.0414,-3.9698,-3.8909,-3.8221,0.0,-3.7122,0.0,0.0,-3.5848,-3.5743,-3.6192,-3.3814,-3.3353,-3.3917,-3.3103,-3.2776,-3.2621,-3.1932,-3.1709,-3.1579,-3.0858,-3.0147,-2.959,-2.9512,-3.0644,-3.1758,-3.0937,-3.0723,-3.0683,-3.0567,-2.9971,-2.9374,-2.9252,-2.8549,-2.7915,-2.7911,-2.7812,-2.7713,-2.7722,-2.7063,-2.6505,-2.6505,-2.5846,-2.5308,-2.5308,-2.5308,-2.5308,-2.5308,-2.5308,-2.5308,-2.5308,-2.5122,-2.5022,-2.5022,-2.4896,-2.4797,-2.4782,-2.4782,-2.4775,-2.476,-2.4567,-2.4478,-2.4478,-2.4294,-2.419,-2.419,-2.419,-2.419,-2.419,-2.419,-2.419,-2.7575,0.0,-2.8831,-2.8831,-2.9086,-2.934,0.0,-2.9714,-3.0103,-3.0253,-3.1225,-3.1914,-3.157,-3.1914,-3.2138,-3.1795,-3.2153,-3.2856,-3.3849,-3.6168,-3.7986,-3.8594,-3.9682,-3.9877,-3.8598,-3.948,-4.0096,-4.0096,-3.9436,-3.8751,-3.8193,-3.7579,-3.6884,-3.6125,-3.6337,-3.7764,-4.0455,-3.8662,-3.8556,-4.0157,-3.8303,-3.7643,-3.8043,-3.7221,-3.6419,-3.5648,0.0,0.0,-3.432,-3.3598,-3.3487,-3.3737,-3.3122,-3.2641,-3.2256,-3.2064,-3.1564,-3.0968,-3.0791,-3.0766,-3.0692,-3.0018,-2.9665,-2.9401,-2.8788,-2.8887,-2.918,-2.8965,-2.8906,-2.8886,-2.8808,-2.8642,-2.8475,-2.8407,-2.7714,-2.7065,-2.7017,-2.6463,-2.5977,-2.5924,-2.575,-2.5615,-2.5615,-2.5442,-2.5308,-2.5308,-2.5308,-2.5308,-2.5308,-2.5308,-2.5308,-2.5308,-2.5259,-2.5224,-2.5224,-2.4962,-2.4738,-2.4575,-2.4559,-2.4503,-2.4339,-2.4294,-2.4266,-2.4266,-2.4218,-2.419,-2.419,-2.419,-2.419,-2.419,-2.419,-2.419,-2.8127,-2.8308,-2.8607,-2.8607,-2.9086,-2.9606,-2.9606,-2.9834,-3.0163,-3.0447,-3.1091,-3.1555,-3.1511,-3.2049,-3.2392,-3.2019,-3.2512,-3.3337,-3.4379,-3.5875,-3.7103,-3.7819,-3.8939,-3.9319,-3.85,-3.9117,-3.9605,-3.9605,-3.8606,-3.7804,-3.7415,-3.6355,-3.5489,-3.4939,-3.4597,-3.5505,-3.7793,-3.6727,-3.6777,-3.7908,-3.6816,-3.6523,-3.6905,-3.5697,-3.4908,-3.4408,0.0,0.0,-3.263,-3.2096,-3.2225,-3.2644,-3.1474,-3.1053,-3.1058,-3.0641,-3.0217,-2.9794,-2.9794,-2.9602,-2.9284,-2.8941,-2.8573,-2.824,-2.7786,-2.7401,-2.7266,-2.8066,-2.8301,-2.8281,-2.8256,-2.794,-2.7643,-2.7605,-2.6901,-2.6234,-2.6201,-2.5801,-2.5434,-2.5402,-2.5371,-2.5352,-2.5357,-2.5327,-2.5308,-2.5308,-2.5308,-2.5308,-2.5308,-2.5308,-2.5308,-2.5308,-2.5308,-2.5308,-2.5308,-2.5132,-2.4981,-2.4864,-2.4876,-2.4809,-2.47,-2.4617,-2.4491,-2.433,-2.4256,-2.419,-2.419,-2.419,-2.419,-2.419,-2.419,-2.419,-2.8859,-2.8949,-2.9135,-2.8824,-2.9417,-3.0027,-2.9933,-3.0054,-3.0298,-3.0608,-3.0741,-3.0962,-3.1435,-3.1959,-3.2333,-3.2333,-3.3006,-3.397,-3.5411,-3.5686,-3.6158,-3.7247,-3.8181,-3.8597,-3.8297,-3.8602,-3.8772,-3.8679,-3.7503,-3.6745,-3.6626,-3.5267,-3.4387,-3.4167,-3.3558,-3.3591,-3.4323,-3.4898,-3.5341,-3.5596,-3.5753,-3.5856,-3.5862,-3.4321,-3.355,-3.3374,0.0,0.0,-3.156,-3.0988,-3.1319,-3.1935,-2.9682,-2.9365,-3.0067,-2.9212,-2.8915,-2.8915,-2.8915,-2.8512,-2.7969,-2.785,-2.7373,-2.6856,-2.6732,-2.6222,-2.5996,-2.748,-2.7891,-2.7891,-2.7891,-2.7363,-2.6797,-2.6797,-2.6187,-2.5607,-2.5602,-2.5556,-2.552,-2.5501,-2.5438,-2.5395,-2.5387,-2.5344,-2.5308,-2.5308,-2.5308,-2.5308,-2.5308,-2.5308,-2.5308,-2.5308,-2.5308,-2.5308,-2.5308,-2.5308,-2.5308,-2.5308,-2.5269,-2.5248,-2.5228,-2.5059,-2.485,-2.4543,-2.4339,-2.4256,-2.4256,-2.4209,-2.419,-2.419,-2.419,-2.419,-2.93,-3.0601,-3.1571,-2.9856,-3.0791,-3.1965,-3.1368,-3.2125,-3.2662,-3.1587,-3.184,-3.2121,-3.1596,-3.1585,-3.1645,-3.1645,-3.2706,-3.3785,-3.4586,-3.5189,-3.5401,-3.506,-3.6183,-3.654,-3.5441,-3.6945,-3.7763,-3.7168,-3.6928,-3.6485,-3.5802,-3.4962,-3.3935,-3.2682,-3.253,-3.2238,-3.1769,-3.2847,-3.4147,-3.5578,-3.4286,-3.3844,-3.4156,-3.3206,-3.2412,-3.1727,0.0,-3.056,-3.0735,-2.9956,-2.9833,-3.0065,-2.914,-2.8902,-2.8969,-2.8326,-2.8088,-2.8088,-2.8088,-2.8002,-2.7807,-2.7112,-2.6815,-2.6615,-2.599,-2.5703,-2.5671,-2.6015,-2.6094,-2.6094,-2.6094,-2.5996,-2.5898,-2.5898,-2.5781,-2.5662,-2.5606,-2.5597,-2.5552,-2.5441,-2.5413,-2.5372,-2.5336,-2.5303,-2.5308,-2.5308,-2.5308,-2.5308,-2.5308,-2.5308,-2.5308,-2.5308,-2.5308,-2.5308,-2.5308,-2.5308,-2.5308,-2.5308,-2.5146,-2.4999,-2.4869,-2.4861,-2.4818,-2.4753,-2.4569,-2.4452,-2.4452,-2.4275,-2.419,-2.419,-2.419,-2.419,-3.0029,-3.1193,-3.2289,-3.1438,-3.2798,-3.425,-3.3892,-3.4058,-3.3948,-3.2906,-3.2669,-3.253,-3.2134,-3.2333,-3.2811,-3.3529,-3.3574,-3.3724,-3.4414,-3.4442,-3.4292,-3.3978,-3.4896,-3.5327,-3.4752,-3.5889,-3.6371,-3.5655,-3.5589,-3.5216,-3.4433,-3.3711,-3.3004,-3.2327,-3.1921,-3.1343,-3.0615,-3.1151,-3.2136,-3.3544,-3.2862,-3.264,-3.2788,-3.1772,-3.1109,-3.0705,0.0,-2.9619,-2.9706,-2.9337,-2.9322,-2.9458,-2.8722,-2.8282,-2.8018,-2.7426,-2.7198,-2.7198,-2.7198,-2.689,-2.6433,-2.6067,-2.5974,-2.5924,-2.5599,-2.5547,-2.5604,-2.5635,-2.5662,-2.5703,-2.5703,-2.5703,-2.5703,-2.5703,-2.5703,-2.5683,-2.5661,-2.5659,-2.5632,-2.5535,-2.5488,-2.5431,-2.5371,-2.5317,-2.5308,-2.5308,-2.5308,-2.5308,-2.5308,-2.5308,-2.5308,-2.5308,-2.5308,-2.5308,-2.5308,-2.5308,-2.5308,-2.5308,-2.5214,-2.513,-2.508,-2.4975,-2.491,-2.491,-2.4749,-2.4662,-2.4662,-2.4559,-2.4528,-2.4528,-2.4419,-2.4357,-3.0707,-3.1597,-3.2667,-3.2753,-3.4149,-3.5556,-3.576,-3.5374,-3.4792,-3.4088,-3.3519,-3.2992,-3.2585,-3.2931,-3.3649,-3.4846,-3.4292,-3.3963,-3.4653,-3.4143,-3.3724,-3.3724,-3.4136,-3.4352,-3.4183,-3.4787,-3.4898,-3.4161,-3.4186,-3.3914,-3.3186,-3.2615,-3.2141,-3.1802,-3.1241,-3.0581,-2.9854,-2.9837,-3.0336,-3.1288,-3.1383,-3.144,-3.1397,-3.0485,-3.0009,-2.9879,-2.9262,-2.9005,-2.9005,-2.9005,-2.9012,-2.8949,-2.8124,-2.7445,-2.6848,-2.6355,-2.6236,-2.6288,-2.6238,-2.5821,-2.5308,-2.5308,-2.5335,-2.5379,-2.5402,-2.546,-2.5559,-2.5597,-2.5635,-2.5683,-2.5703,-2.5703,-2.5703,-2.5703,-2.5703,-2.5703,-2.5703,-2.5703,-2.5683,-2.5607,-2.5558,-2.5508,-2.5408,-2.5354,-2.5322,-2.5293,-2.5308,-2.5308,-2.5308,-2.5308,-2.5231,-2.5038,-2.5192,-2.5308,-2.5308,-2.5308,-2.5308,-2.5308,-2.5308,-2.5308,-2.5308,-2.5152,-2.5077,-2.5077,-2.4917,-2.4849,-2.4849,-2.4825,-2.4804,-2.4797,-2.4639,-2.4559,-3.1142,-3.2205,-3.3322,-3.333,-3.4016,-3.489,-3.5642,-3.5678,-3.537,-3.4757,-3.4477,-3.4,-3.2721,-3.2557,-3.2826,-3.3529,-3.4099,-3.4668,-3.5325,-3.4846,-3.4444,-3.4444,-3.392,-3.3336,-3.2721,-3.3256,-3.3364,-3.2686,-3.3166,-3.3152,-3.2429,-3.2327,-3.1684,-3.0311,-3.0226,-2.9837,-2.9094,-2.9077,-2.9313,-2.9745,-2.976,-2.9773,-2.9769,-2.9682,-2.9452,-2.9078,-2.9023,-2.9005,-2.9005,-2.9005,-2.8569,-2.7842,-2.722,-2.625,-2.5158,-2.4996,-2.5139,-2.5365,-2.5184,-2.5204,-2.5308,-2.5308,-2.5293,-2.5322,-2.5372,-2.5413,-2.5447,-2.5563,-2.5603,-2.561,-2.5683,-2.5703,-2.5703,-2.5703,-2.5703,-2.5703,-2.5703,-2.5703,-2.5683,-2.5607,-2.5599,-2.5552,-2.5411,-2.5395,-2.5375,-2.5303,-2.5308,-2.5308,-2.5308,-2.5308,-2.5,-2.4259,-2.4851,-2.5308,-2.5308,-2.5308,-2.5308,-2.5308,-2.5308,-2.5308,-2.5308,-2.5298,-2.5274,-2.5274,-2.5082,-2.4992,-2.4992,-2.4869,-2.4804,-2.4804,-2.479,-2.4782,-3.119,-3.2611,-3.4083,-3.4083,-3.5043,-3.6155,-3.6912,-3.7419,-3.7269,-3.5715,-3.5668,-3.535,-3.3457,-3.3814,-3.4322,-3.4143,-3.4666,-3.5055,-3.4891,-3.4668,-3.4054,-3.2796,-3.2392,-3.1869,-3.0791,-3.1649,-3.1974,-3.1262,-3.2138,-3.2374,-3.1667,-3.1173,-3.0683,-3.0125,-2.9651,-2.9042,-2.8264,-2.8264,-2.8098,-2.781,-2.8506,-2.885,-2.8845,-2.8855,-2.8773,-2.8645,-2.8893,-2.9005,-2.9005,-2.9005,-2.8539,-2.7691,-2.6589,-2.5859,-2.5385,-2.4964,-2.4936,-2.5099,-2.5028,-2.5122,-2.5308,-2.5308,-2.5308,-2.5293,-2.5321,-2.5375,-2.5404,-2.5465,-2.5539,-2.5628,-2.5683,-2.5703,-2.5703,-2.5703,-2.5703,-2.5703,-2.5703,-2.5703,-2.5683,-2.5607,-2.5602,-2.5566,-2.5485,-2.5468,-2.5441,-2.5364,-2.5367,-2.5342,-2.5317,-2.5308,-2.5173,-2.4889,-2.5115,-2.4885,-2.3832,-2.4692,-2.5096,-2.4586,-2.5019,-2.5308,-2.5308,-2.5308,-2.5308,-2.5308,-2.5219,-2.5198,-2.5198,-2.5138,-2.5115,-2.5109,-2.4908,-2.4804,-3.1588,-3.2645,-3.3914,-3.437,-3.5284,-3.6406,-3.7618,-3.8091,-3.7927,-3.6696,-3.6073,-3.5365,-3.4044,-3.4382,-3.4786,-3.4548,-3.4876,-3.5011,-3.4578,-3.4159,-3.3275,-3.169,-3.1316,-3.0776,-2.9711,-3.0365,-3.0744,-3.0408,-3.1188,-3.1537,-3.1224,-3.0497,-2.9989,-2.9753,-2.9008,-2.8247,-2.7452,-2.7452,-2.708,-2.6353,-2.7142,-2.7698,-2.8032,-2.7568,-2.7596,-2.8023,-2.8069,-2.8137,-2.8235,-2.8235,-2.7769,-2.6909,-2.5698,-2.5272,-2.525,-2.4791,-2.4756,-2.4924,-2.4865,-2.5005,-2.5208,-2.5208,-2.5253,-2.5308,-2.5308,-2.533,-2.5368,-2.5395,-2.5471,-2.5552,-2.5629,-2.5658,-2.5662,-2.5662,-2.5662,-2.5662,-2.5703,-2.5703,-2.5683,-2.5636,-2.5633,-2.5606,-2.5547,-2.5539,-2.552,-2.5447,-2.5434,-2.5311,-2.4981,-2.4943,-2.4835,-2.4543,-2.4269,-2.375,-2.2874,-2.3851,-2.4274,-2.3721,-2.4216,-2.475,-2.5288,-2.5308,-2.5308,-2.5308,-2.5308,-2.5308,-2.5308,-2.5308,-2.5308,-2.5284,-2.5049,-2.4968,-3.2417,-3.2293,-3.2666,-3.4117,-3.4506,-3.5115,-3.7381,-3.7286,-3.6901,-3.7616,-3.5502,-3.3694,-3.4384,-3.3933,-3.3709,-3.4384,-3.4503,-3.4503,-3.4488,-3.3335,-3.2228,-3.157,-3.0883,-3.0238,-2.9651,-2.9521,-2.9748,-3.0353,-3.0342,-3.0559,-3.1154,-3.0497,-2.9753,-2.901,-2.8213,-2.7435,-2.6725,-2.6691,-2.6319,-2.5592,-2.5592,-2.6173,-2.7217,-2.5753,-2.5861,-2.7145,-2.6405,-2.6288,-2.6583,-2.6583,-2.6117,-2.5319,-2.4511,-2.433,-2.4469,-2.4266,-2.4444,-2.4768,-2.4559,-2.4723,-2.5004,-2.5004,-2.5141,-2.5308,-2.5308,-2.5308,-2.5317,-2.5379,-2.5406,-2.5424,-2.5471,-2.5551,-2.5601,-2.5601,-2.5601,-2.5629,-2.5683,-2.5703,-2.5703,-2.5703,-2.5703,-2.5683,-2.5607,-2.5602,-2.557,-2.55,-2.5491,-2.5197,-2.4314,-2.4202,-2.3832,-2.2891,-2.2028,-2.1855,-2.2701,-2.2797,-2.2797,-2.2797,-2.2797,-2.3543,-2.5212,-2.5288,-2.5288,-2.5288,-2.5308,-2.5308,-2.5308,-2.5308,-2.5308,-2.5308,-2.5303,-2.5303,-3.2004,-3.2502,-3.3169,-3.3626,-3.4928,-3.6417,-3.7635,-3.7319,-3.6685,-3.6303,-3.4789,-3.3559,-3.3754,-3.4008,-3.3948,-3.3215,-3.3873,-3.4189,-3.323,-3.2333,-3.1376,-3.0298,-2.9564,-2.8906,-2.8259,-2.8553,-2.9045,-2.9642,-3.0065,-3.0323,-3.0408,-2.9719,-2.8958,-2.8197,-2.7418,-2.6911,-2.6691,-2.6184,-2.5828,-2.5592,-2.456,-2.4501,-2.532,-2.517,-2.5321,-2.5746,-2.599,-2.6156,-2.6211,-2.5879,-2.5613,-2.5319,-2.4511,-2.4237,-2.4275,-2.4218,-2.4366,-2.4575,-2.4528,-2.4723,-2.5004,-2.5004,-2.5141,-2.5308,-2.5308,-2.5308,-2.5293,-2.5317,-2.5367,-2.5398,-2.5371,-2.5401,-2.5463,-2.5526,-2.5563,-2.5604,-2.5632,-2.5661,-2.5703,-2.5703,-2.5703,-2.5683,-2.5662,-2.5662,-2.5657,-2.5572,-2.5566,-2.5241,-2.4321,-2.4202,-2.3637,-2.2175,-2.2344,-2.215,-2.1186,-2.2198,-2.2633,-2.205,-2.2505,-2.3028,-2.3524,-2.4125,-2.4452,-2.4452,-2.5,-2.5308,-2.5308,-2.5308,-2.5308,-2.5303,-2.5157,-2.5094,-3.2675,-3.3063,-3.3694,-3.4895,-3.5994,-3.6912,-3.7356,-3.7125,-3.6653,-3.6184,-3.4481,-3.3185,-3.344,-3.3604,-3.3529,-3.2991,-3.335,-3.332,-3.2243,-3.1525,-3.0642,-2.934,-2.8846,-2.8323,-2.766,-2.7919,-2.8268,-2.8625,-2.9172,-2.9469,-2.9348,-2.8832,-2.8298,-2.7824,-2.708,-2.6556,-2.6268,-2.5828,-2.5321,-2.4729,-2.3816,-2.3477,-2.3628,-2.3873,-2.4226,-2.4635,-2.4998,-2.5141,-2.5127,-2.4988,-2.4915,-2.4879,-2.4392,-2.419,-2.419,-2.419,-2.4275,-2.4384,-2.4384,-2.4564,-2.4797,-2.4797,-2.4936,-2.5103,-2.5103,-2.5143,-2.5173,-2.5173,-2.5274,-2.5346,-2.5308,-2.5326,-2.5372,-2.545,-2.5481,-2.5533,-2.5554,-2.5607,-2.566,-2.566,-2.5683,-2.5586,-2.5234,-2.5176,-2.5058,-2.4661,-2.4327,-2.3928,-2.3324,-2.2946,-2.2335,-2.1282,-2.1647,-2.153,-2.0486,-2.1323,-2.1703,-2.1219,-2.1593,-2.1849,-2.1849,-2.3302,-2.411,-2.411,-2.4889,-2.5308,-2.5308,-2.5308,-2.5308,-2.5303,-2.5187,-2.5111,-3.3987,-3.3774,-3.4126,-3.6975,-3.728,-3.6885,-3.6804,-3.6706,-3.6581,-3.6498,-3.4388,-3.2677,-3.3215,-3.2886,-3.2647,-3.3066,-3.2736,-3.2153,-3.1436,-3.0761,-2.9894,-2.8742,-2.8547,-2.8263,-2.766,-2.76,-2.7588,-2.7597,-2.7987,-2.8222,-2.8187,-2.789,-2.7738,-2.7705,-2.7046,-2.6353,-2.5609,-2.5525,-2.4797,-2.3393,-2.3325,-2.2953,-2.2296,-2.2296,-2.2846,-2.3783,-2.3678,-2.3671,-2.3724,-2.4064,-2.419,-2.419,-2.419,-2.419,-2.419,-2.419,-2.419,-2.419,-2.419,-2.4321,-2.4503,-2.4503,-2.4631,-2.4804,-2.4804,-2.4884,-2.4986,-2.5004,-2.5122,-2.5274,-2.5303,-2.5308,-2.5317,-2.5372,-2.5398,-2.5424,-2.5488,-2.5547,-2.5598,-2.5601,-2.5599,-2.5312,-2.4531,-2.4336,-2.4023,-2.3223,-2.248,-2.1972,-2.1823,-2.1117,-2.056,-2.0427,-2.0423,-2.0423,-2.0423,-2.0418,-2.0418,-2.0423,-2.0414,-2.0391,-2.0416,-2.2719,-2.3989,-2.3989,-2.4856,-2.5308,-2.5308,-2.5308,-2.5308,-2.5308,-2.5308,-2.5308,-3.3634,-3.3832,-3.4294,-3.5745,-3.6907,-3.7501,-3.692,-3.5958,-3.4978,-3.4332,-3.3279,-3.2363,-3.1989,-3.2228,-3.2063,-3.0642,-3.1165,-3.1316,-3.0163,-2.943,-2.8906,-2.8637,-2.8154,-2.7764,-2.76,-2.76,-2.7799,-2.8247,-2.7906,-2.7815,-2.8106,-2.7573,-2.7149,-2.6928,-2.6776,-2.6353,-2.5609,-2.5032,-2.4288,0.0,-2.2818,-2.2448,-2.2296,-2.2296,-2.2538,-2.2981,-2.3218,-2.3466,-2.3724,-2.4064,-2.419,-2.419,-2.419,-2.419,-2.419,-2.419,-2.419,-2.419,-2.419,-2.4321,-2.4503,-2.4503,-2.4631,-2.4804,-2.4804,-2.4814,-2.485,-2.4974,-2.5028,-2.5099,-2.5264,-2.5308,-2.5293,-2.5322,-2.5359,-2.5406,-2.5427,-2.5463,-2.5543,-2.5597,-2.5059,-2.4561,-2.4414,-2.3887,-2.3398,-2.3203,-2.3027,-2.2676,-2.1972,-2.1718,-2.1327,-2.0621,-2.0563,-2.0563,-2.0563,-2.0511,-2.0508,-2.0542,-2.0468,-2.0427,-2.0477,-2.22,-2.316,-2.316,-2.4561,-2.5308,-2.5308,-2.5308,-2.5308,-2.5308,-2.5308,-2.5308,-3.3949,-3.412,-3.4416,-3.5841,-3.6772,-3.7165,-3.6456,-3.5184,-3.3958,-3.322,-3.2509,-3.1809,-3.1137,-3.133,-3.112,-2.9816,-3.0163,-3.0253,-2.925,-2.8816,-2.8472,-2.8169,-2.7809,-2.76,-2.76,-2.76,-2.7615,-2.7585,-2.7196,-2.6911,-2.6805,-2.6651,-2.6518,-2.6366,-2.6573,-2.6353,-2.5609,-2.488,-2.4135,-2.3393,-2.2649,-2.2296,-2.2296,-2.2296,-2.2374,-2.2527,-2.284,-2.3153,-2.3488,-2.3816,-2.4064,-2.419,-2.419,-2.419,-2.419,-2.419,-2.419,-2.419,-2.419,-2.4266,-2.4348,-2.4348,-2.4436,-2.452,-2.452,-2.4575,-2.4678,-2.4745,-2.4878,-2.4946,-2.4657,-2.4936,-2.5192,-2.4812,-2.5051,-2.5342,-2.5342,-2.5103,-2.4894,-2.4929,-2.4255,-2.3563,-2.3216,-2.2499,-2.1953,-2.1953,-2.1953,-2.1797,-2.1348,-2.1289,-2.1094,-2.0644,-2.0605,-2.0605,-2.0605,-2.0564,-2.0564,-2.0605,-2.0539,-2.0511,-2.0541,-2.2114,-2.2778,-2.2333,-2.3937,-2.4764,-2.4731,-2.5144,-2.533,-2.5308,-2.5308,-2.5308,-3.4389,-3.456,-3.4812,-3.6231,-3.6711,-3.6565,-3.5703,-3.4525,-3.3386,-3.2594,-3.1931,-3.1256,-3.0492,-3.0432,-3.0223,-2.9397,-2.9352,-2.9175,-2.8517,-2.8427,-2.8173,-2.751,-2.7525,-2.751,-2.7285,-2.7465,-2.727,-2.6482,-2.6328,-2.5995,-2.5425,-2.5602,-2.5815,-2.5979,-2.6367,-2.6253,-2.5609,-2.488,-2.4135,-2.3393,-2.2649,-2.2296,-2.2296,-2.2296,-2.2296,-2.2307,-2.2573,-2.286,-2.3141,-2.3544,-2.3858,-2.4113,-2.418,-2.419,-2.419,-2.419,-2.419,-2.419,-2.419,-2.419,-2.419,-2.419,-2.419,-2.419,-2.419,-2.4321,-2.4452,-2.4495,-2.4606,-2.4569,-2.3921,-2.4255,-2.4624,-2.3996,-2.4457,-2.5091,-2.5264,-2.472,-2.4195,-2.4193,-2.3434,-2.2521,-2.1715,-2.103,-2.0586,-2.0605,-2.0605,-2.0605,-2.0605,-2.0605,-2.0605,-2.0605,-2.0605,-2.0605,-2.0605,-2.0605,-2.0605,-2.0605,-2.0605,-2.0605,-2.0605,-2.2082,-2.2529,-2.1755,-2.3508,-2.4402,-2.4332,-2.5062,-2.5391,-2.5335,-2.5335,-2.5335,-3.4235,-3.5151,-3.5979,-3.5801,-3.6282,-3.6447,-3.5057,-3.4152,-3.3242,-3.1986,-3.1612,-3.1137,-2.9924,-3.0148,-2.9924,-2.8154,-2.8338,-2.8487,-2.7824,-2.7735,-2.748,-2.6821,-2.7255,-2.7151,-2.5974,-2.6926,-2.7091,-2.5839,-2.573,-2.5622,-2.5404,-2.4901,-2.5047,-2.5961,-2.605,-2.593,-2.5592,-2.488,-2.4135,-2.3393,-2.2649,-2.2296,-2.2296,-2.2296,-2.2296,-2.2307,-2.2573,-2.2733,-2.2822,-2.3437,-2.3724,-2.3795,-2.4084,-2.419,-2.419,-2.419,-2.419,-2.419,-2.419,-2.419,-2.419,-2.419,-2.419,-2.419,-2.419,-2.4218,-2.4275,-2.4444,-2.4022,-2.3536,-2.3539,-2.312,-2.2727,-2.277,-2.3414,-2.423,-2.5115,-2.4673,-2.4124,-2.4182,-2.2943,-2.162,-2.0816,-2.0589,-2.0538,-2.0586,-2.0605,-2.0605,-2.0605,-2.0605,-2.0605,-2.0605,-2.0605,-2.0605,-2.0605,-2.0605,-2.0605,-2.0605,-2.0605,-2.0605,-2.0605,-2.1543,-2.1991,-2.1873,-2.4151,-2.5311,-2.5301,-2.544,-2.5473,-2.5463,-2.5463,-2.5463,-3.4056,-3.4495,-3.4949,-3.4478,-3.4945,-3.5043,-3.3279,-3.295,-3.2546,-3.0845,-3.047,-3.0148,-2.9205,-2.925,-2.9026,-2.7794,-2.7854,-2.7944,-2.7645,-2.76,-2.7345,-2.6686,-2.6866,-2.6821,-2.6213,-2.6701,-2.6806,-2.6198,-2.5809,-2.5408,-2.4962,-2.4589,-2.4632,-2.5105,-2.5689,-2.5721,-2.5163,-2.472,-2.3915,-2.2784,-2.2448,-2.2296,-2.2296,-2.2296,-2.2296,-2.231,-2.2426,-2.2563,-2.2721,-2.3021,-2.3357,-2.3692,-2.366,-2.3876,-2.417,-2.3996,-2.4026,-2.419,-2.419,-2.419,-2.419,-2.419,-2.419,-2.4116,-2.3657,-2.3841,-2.4126,-2.3749,-2.3807,-2.3774,-2.2888,-2.2823,-2.2767,-2.195,-2.2454,-2.325,-2.3686,-2.3578,-2.3103,-2.2192,-2.142,-2.0801,-2.0454,-2.0423,-2.0446,-2.0481,-2.0483,-2.0483,-2.0483,-2.0483,-2.0509,-2.054,-2.054,-2.0563,-2.0605,-2.0605,-2.0605,-2.0605,-2.0605,-2.0605,-2.0605,-2.1875,-2.2598,-2.2637,-2.4113,-2.4875,-2.4833,-2.5322,-2.5543,-2.5491,-2.5491,-2.5491,-3.3775,-3.3741,-3.3871,-3.3413,-3.3901,-3.4029,-3.2169,-3.22,-3.2028,-3.0003,-2.947,-2.9131,-2.8457,-2.8487,-2.8368,-2.7705,-2.76,-2.76,-2.76,-2.76,-2.7345,-2.6686,-2.6761,-2.6707,-2.6378,-2.6497,-2.6452,-2.6123,-2.563,-2.5053,-2.438,-2.4259,-2.4266,-2.4389,-2.5182,-2.5346,-2.4805,-2.4408,-2.3577,-2.2296,-2.2296,-2.2296,-2.2296,-2.2296,-2.2296,-2.2296,-2.2296,-2.2412,-2.2599,-2.2656,-2.2996,-2.3426,-2.3259,-2.3511,-2.3927,-2.3764,-2.3806,-2.3976,-2.4151,-2.4151,-2.4084,-2.417,-2.419,-2.4043,-2.3244,-2.341,-2.3731,-2.2923,-2.3241,-2.3471,-2.2001,-2.2186,-2.2405,-2.1048,-2.1442,-2.2178,-2.23,-2.2407,-2.2043,-2.0577,-2.029,-2.0305,-2.0307,-2.0337,-2.0372,-2.0406,-2.0408,-2.0408,-2.0408,-2.0408,-2.0423,-2.0474,-2.0476,-2.0486,-2.0541,-2.0542,-2.0563,-2.0565,-2.0565,-2.0683,-2.0918,-2.2324,-2.3223,-2.3496,-2.4316,-2.4706,-2.4655,-2.5318,-2.5602,-2.5552,-2.5552,-2.5552,-3.3342,-3.3418,-3.353,-3.313,-3.3761,-3.4134,-3.2751,-3.2528,-3.2019,-3.0011,-2.9083,-2.8442,-2.7779,-2.8184,-2.8368,-2.7705,-2.76,-2.76,-2.76,-2.76,-2.7345,-2.6686,-2.7165,-2.7061,-2.5779,-2.6228,-2.6078,-2.4799,-2.4679,-2.435,-2.3684,-2.3646,-2.3879,-2.4389,-2.445,-2.4601,-2.4805,-2.3906,-2.3071,-2.2296,-2.2296,-2.2296,-2.2296,-2.2296,-2.2296,-2.2296,-2.2296,-2.231,-2.2335,-2.2599,-2.2721,-2.2784,-2.3081,-2.3212,-2.33,-2.3588,-2.3511,-2.3346,-2.3986,-2.3996,-2.3785,-2.4094,-2.419,-2.4043,-2.3244,-2.3024,-2.2896,-2.2088,-2.1894,-2.1738,-2.0821,-2.0627,-2.0489,-1.9822,-2.0289,-2.101,-2.1464,-2.1558,-2.1331,-2.0462,-2.0292,-2.0307,-2.0295,-2.0294,-2.0322,-2.0381,-2.0408,-2.0408,-2.0408,-2.0408,-2.0391,-2.0393,-2.0412,-2.0414,-2.0416,-2.0418,-2.0437,-2.0508,-2.051,-2.091,-2.1797,-2.2656,-2.3496,-2.4316,-2.5195,-2.5625,-2.5625,-2.5664,-2.5683,-2.5683,-2.5683,-2.5683,-3.3357,-3.3055,-3.2789,-3.235,-3.2652,-3.2656,-3.0908,-3.0896,-3.0696,-2.871,-2.8122,-2.7884,-2.7645,-2.7809,-2.7884,-2.7645,-2.76,-2.76,-2.76,-2.76,-2.7345,-2.6686,-2.6821,-2.6752,-2.6288,-2.6078,-2.5764,-2.5277,-2.4844,-2.4306,-2.364,-2.3595,-2.3702,-2.3879,-2.422,-2.4302,-2.4098,-2.2857,-2.2254,-2.2296,-2.2296,-2.2296,-2.2296,-2.2296,-2.2296,-2.2296,-2.2296,-2.2296,-2.231,-2.2398,-2.2537,-2.2695,-2.263,-2.2857,-2.3189,-2.3093,-2.3117,-2.3224,-2.3471,-2.361,-2.3682,-2.3588,-2.351,-2.3235,-2.2207,-2.2063,-2.2042,-2.1198,-2.1363,-2.1592,-2.0731,-2.0503,-2.0357,-1.9746,-1.9826,-2.01,-2.0356,-2.0852,-2.1056,-2.0418,-2.0197,-2.0146,-2.0288,-2.0303,-2.0317,-2.0328,-2.0334,-2.0334,-2.0334,-2.0334,-2.0334,-2.0344,-2.0349,-2.0347,-2.0406,-2.0408,-2.0416,-2.0434,-2.0435,-2.0609,-2.0988,-2.2356,-2.3278,-2.3613,-2.498,-2.5703,-2.5703,-2.5703,-2.5703,-2.5703,-2.5703,-2.5703,-3.3656,-3.3145,-3.2632,-3.2144,-3.2301,-3.1979,-2.9885,-2.998,-2.9943,-2.8006,-2.76,-2.76,-2.76,-2.76,-2.7524,-2.728,-2.7034,-2.6864,-2.6864,-2.7086,-2.7066,-2.6638,-2.6778,-2.6941,-2.6941,-2.6318,-2.5839,-2.563,-2.4978,0.0,-2.364,-2.3595,-2.3505,-2.3295,-2.356,-2.3513,-2.3127,-2.2112,-2.184,-2.2296,-2.2296,-2.2296,-2.2296,-2.2296,-2.2296,-2.2296,-2.2296,-2.2296,-2.2296,-2.2296,-2.2398,-2.255,-2.236,-2.2531,-2.2883,-2.2764,-2.2772,-2.2933,-2.3117,-2.3259,-2.3346,-2.3242,-2.2962,-2.2531,-2.1591,-2.1223,-2.0988,-2.0295,-2.0653,-2.1076,-2.0293,-2.0089,-2.0,-1.96,-1.9499,-1.9536,-1.9695,-2.0219,-2.057,-2.0203,-2.0017,-1.9987,-2.0107,-2.014,-2.014,-2.014,-2.0176,-2.0201,-2.0201,-2.0269,-2.0296,-2.0302,-2.0305,-2.0311,-2.0363,-2.0366,-2.0376,-2.0378,-2.0361,-2.0523,-2.0882,-2.2018,-2.279,-2.3137,-2.4231,-2.4933,-2.5226,-2.5546,-2.5703,-2.5703,-2.5703,-2.5703,0.0,0.0,0.0,-3.2632,-3.2739,-3.2363,-2.9962,-2.9987,-2.995,-2.8031,-2.7625,-2.7625,-2.76,-2.7575,-2.7331,-2.6616,-2.5933,-2.5453,-2.5453,-2.6095,-2.6537,-2.6537,-2.7178,-2.76,-2.76,-2.7001,-2.6318,-2.5659,-2.4978,-2.4306,-2.364,-2.3595,-2.3325,-2.2748,-2.243,-2.2194,-2.2011,-2.1711,-2.1794,-2.2282,-2.2282,-2.2282,-2.2296,-2.2296,-2.2296,-2.2296,-2.2296,-2.2296,-2.2296,-2.2296,-2.2296,-2.2296,-2.2296,-2.2296,-2.2335,-2.2586,-2.2527,-2.2374,-2.2982,-2.2972,-2.2759,-2.3034,-2.2669,-2.1992,-2.1409,-2.0551,-1.9715,-1.9383,-1.9696,-2.002,-1.9429,-1.9282,-1.9289,-1.9289,-1.9289,-1.935,-1.9548,-1.9682,-1.9778,-1.9809,-1.9809,-1.9803,-1.979,-1.979,-1.979,-1.979,-1.9917,-1.9984,-1.9984,-2.0161,-2.03,-2.03,-2.03,-2.0281,-2.0285,-2.0285,-2.0288,-2.0301,-2.0307,-2.0715,-2.166,-2.172,-2.2152,-2.3015,-2.3054,-2.3499,-2.4332,-2.5225,-2.5664,-2.5703,-2.5703,-2.5703,-3.4277,0.0,0.0,0.0,0.0,0.0,-3.0727,-3.0422,-2.9944,-2.8542,-2.8262,-2.8116,-2.7685,-2.7178,-2.6747,-2.6537,-2.68,-2.6993,-2.6993,-2.7163,-2.7306,-2.7306,-2.7473,-2.76,-2.76,-2.7001,-2.6318,0.0,-2.4978,-2.4306,-2.364,-2.3595,-2.352,-2.3355,-2.2385,-2.1988,-2.2207,-2.118,-2.1039,-2.1794,-2.1794,-2.1957,-2.2296,-2.2296,-2.2296,-2.2296,-2.2296,-2.2296,-2.2296,-2.2296,-2.2296,-2.2296,-2.2296,-2.2296,-2.231,-2.2388,-2.236,-2.2307,-2.2494,-2.2616,-2.2595,-2.1971,-2.1875,-2.1763,-2.0304,-1.9783,-1.9588,-1.8976,-1.8905,-1.8992,-1.8843,-1.8948,-1.9086,-1.9086,-1.9198,-1.9312,-1.9365,-1.9398,-1.9499,-1.9749,-1.9713,-1.9688,-1.9773,-1.979,-1.979,-1.979,-1.983,-1.9858,-1.9858,-1.9909,-1.9931,-1.9931,-1.9931,-1.9972,-2.0069,-2.0078,-2.0146,-2.0284,-2.0292,-2.0704,-2.1579,-2.223,-2.2976,-2.3854,-2.4481,-2.4931,-2.5162,-2.4845,-2.5009,-2.5633,-2.5682,-2.5703,-3.4489,-3.4031,-3.3547,-3.327,0.0,0.0,-3.074,-3.0244,-2.977,-2.8645,-2.8168,-2.7875,-2.7603,-2.696,-2.6475,-2.6542,-2.6891,-2.707,-2.6715,-2.6707,-2.6828,-2.7108,-2.7408,-2.76,-2.76,-2.7255,-2.6746,-2.6063,-2.5397,-2.459,-2.3655,-2.3595,-2.3475,-2.3242,-2.2218,-2.1765,-2.1867,-2.0822,-2.065,-2.1353,-2.1521,-2.1733,-2.2017,-2.2209,-2.2296,-2.2296,-2.2296,-2.2296,-2.2296,-2.2296,-2.2296,-2.2296,-2.2296,-2.2296,-2.2296,-2.2296,-2.2296,-2.2296,-2.2296,-2.2398,-2.2445,-2.1851,-2.1439,-2.0998,-2.0039,-1.9369,-1.8857,-1.8651,-1.8595,-1.8595,-1.8595,-1.8725,-1.8825,-1.8825,-1.9008,-1.9174,-1.9174,-1.9174,-1.9259,-1.9533,-1.9536,-1.9495,-1.9585,-1.9586,-1.9586,-1.9586,-1.9663,-1.9726,-1.9726,-1.9768,-1.979,-1.979,-1.979,-1.983,-1.9917,-1.9978,-2.006,-2.0165,-2.0245,-2.0681,-2.1527,-2.2044,-2.2729,-2.3605,-2.4116,-2.4545,-2.4914,-2.4846,-2.5065,-2.5559,-2.5601,-2.5628,-3.469,-3.4358,-3.3937,-3.3231,-3.3016,0.0,-3.0368,-2.9833,-2.9494,-2.8535,-2.7769,-2.7333,-2.7451,-2.692,-2.6541,-2.666,-2.6624,-2.6347,-2.5739,-2.5704,-2.5951,-2.6544,-2.7129,-2.748,-2.748,-2.742,-2.7106,-2.6422,-2.5764,-2.4866,-2.3655,-2.3595,-2.334,-2.2823,-2.2164,-2.167,-2.1353,-2.0674,-2.0544,-2.0926,-2.1291,-2.1506,-2.1612,-2.2032,-2.2237,-2.2296,-2.2296,-2.2296,-2.2296,-2.2296,-2.2296,-2.2296,-2.2296,-2.2296,-2.2296,-2.2296,-2.2296,-2.2296,-2.2296,-2.2296,-2.2279,-2.2195,-2.1248,-2.0149,-2.0208,-1.9161,-1.7996,-1.8398,-1.8508,-1.8508,-1.8508,-1.8528,-1.8556,-1.8556,-1.8761,-1.8949,-1.8949,-1.8949,-1.9018,-1.9188,-1.9243,-1.9259,-1.9259,-1.9282,-1.9297,-1.9297,-1.9456,-1.9562,-1.9562,-1.9663,-1.9737,-1.9737,-1.9737,-1.9749,-1.978,-1.989,-1.9954,-1.9988,-2.0143,-2.0602,-2.1427,-2.147,-2.1878,-2.276,-2.2871,-2.3328,-2.4183,-2.5053,-2.5481,-2.5481,-2.5508,-2.5491,-3.4169,-3.3781,-3.3323,-3.2317,-3.1783,0.0,-3.0728,-3.0059,-2.9384,-2.868,-2.821,-2.779,-2.7339,-2.7131,-2.7101,-2.7219,-2.6773,-2.6618,-2.7102,-2.7187,-2.7234,-2.7367,-2.7046,-2.6806,-2.6806,-2.6303,-2.5719,-2.5038,-2.4388,-2.3879,-2.361,-2.3595,-2.355,-2.343,-2.2838,-2.2219,-2.1622,-2.096,-2.0563,-2.0449,-2.0516,-2.0911,-2.1597,-2.1688,-2.1943,-2.2296,-2.2296,-2.2296,-2.2296,-2.2296,-2.2296,-2.2296,-2.2296,-2.2296,-2.2296,-2.2296,-2.2296,-2.2296,-2.2296,-2.2296,-2.2195,-2.1613,-2.1207,-2.0733,-1.9559,-1.8958,-1.8579,-1.8097,-1.796,-1.796,-1.796,-1.8131,-1.828,-1.828,-1.8479,-1.8688,-1.8688,-1.8688,-1.8679,-1.8734,-1.8913,-1.906,-1.906,-1.9198,-1.9297,-1.9297,-1.9327,-1.935,-1.935,-1.9387,-1.9398,-1.9398,-1.9398,-1.9455,-1.9629,-1.9656,-1.9719,-1.983,-1.9882,-2.0283,-2.1134,-2.1178,-2.1632,-2.2616,-2.3269,-2.3951,-2.4662,-2.5181,-2.5418,-2.5421,-2.5465,-2.5491,-3.4596,-3.402,-3.3422,-3.2604,-3.1911,0.0,0.0,-2.9862,-2.9347,-2.8647,-2.8064,-2.7591,-2.7235,-2.685,-2.6768,-2.7277,-2.6759,-2.6682,-2.7783,-2.7178,-2.6746,-2.7061,-2.6497,-2.6093,-2.6093,-2.5809,-2.5307,-2.4649,-2.4291,-2.3947,-2.3625,-2.3595,-2.3595,-2.3595,-2.3017,-2.2388,-2.171,-2.1051,-2.0459,-2.0,-2.0195,-2.0649,-2.1291,-2.1291,-2.166,-2.2282,-2.2046,-2.2092,-2.2296,-2.2296,-2.2296,-2.2296,-2.2296,-2.2296,-2.2296,-2.2296,-2.2296,-2.2296,-2.2296,-2.2296,-2.2229,-2.187,-2.1512,-2.0987,-1.9807,-1.8932,-1.8268,-1.7901,-1.78,-1.78,-1.78,-1.7894,-1.8003,-1.8003,-1.8208,-1.84,-1.84,-1.84,-1.84,-1.84,-1.8508,-1.8632,-1.878,-1.8887,-1.9007,-1.9134,-1.915,-1.919,-1.9282,-1.9297,-1.9297,-1.9297,-1.9297,-1.9335,-1.9431,-1.9541,-1.9629,-1.9701,-1.9768,-2.0198,-2.1053,-2.1091,-2.1713,-2.3012,-2.3872,-2.4452,-2.4804,-2.4991,-2.5105,-2.5105,-2.5134,-2.5144,-3.502,-3.4284,-3.347,-3.283,-3.2058,-3.1115,0.0,0.0,0.0,-2.8546,-2.7875,-2.7382,-2.7262,-2.6699,-2.65,-2.723,-2.6768,0.0,0.0,-2.6851,0.0,-2.6509,-2.5895,-2.5397,-2.5397,-2.5397,-2.5128,-2.4455,-2.453,-2.4306,-2.364,-2.3595,-2.3595,-2.3595,-2.3137,-2.2508,-2.171,-2.1171,-2.0498,-1.9693,-2.0035,-2.0416,-2.0862,-2.0862,-2.1338,-2.2135,-2.1764,-2.1869,-2.2296,-2.2296,-2.2296,-2.2296,-2.2296,-2.2296,-2.2296,-2.2296,-2.2296,-2.2296,-2.2296,-2.2296,-2.2296,-2.2296,-2.1701,-2.0788,-1.9862,-1.8746,-1.78,-1.78,-1.78,-1.78,-1.78,-1.78,-1.78,-1.78,-1.7971,-1.8103,-1.8033,-1.8082,-1.8103,-1.8033,-1.8082,-1.8208,-1.8479,-1.8566,-1.866,-1.8896,-1.8923,-1.8974,-1.913,-1.9172,-1.9172,-1.9172,-1.9212,-1.9235,-1.9235,-1.9435,-1.9541,-1.9541,-1.9644,-2.0014,-2.0709,-2.0948,-2.1714,-2.314,-2.4046,-2.4565,-2.4685,-2.4685,-2.4723,-2.4804,-2.4804,-2.4804,-3.4525,-3.3673,-3.2755,-3.176,-3.0833,-3.0067,-2.9544,0.0,-2.8797,-2.8476,0.0,-2.7829,-2.7813,0.0,0.0,-2.7429,-2.7108,-2.6945,-2.7285,-2.7211,-2.6945,-2.6485,-2.5417,-2.4709,-2.4709,-2.4709,-2.444,-2.3759,-2.4261,-2.4306,-2.364,-2.3595,-2.3595,-2.3595,-2.3535,-2.2921,-2.171,-2.162,-2.0946,-1.9708,-1.9747,-1.9982,-2.0382,-2.0382,-2.0862,-2.1673,-2.1612,-2.1869,-2.2296,-2.2296,-2.2296,-2.2296,-2.2296,-2.2296,-2.2296,-2.2296,-2.2296,-2.2296,-2.2296,-2.2296,-2.2296,-2.2296,-2.1316,-1.9879,-1.8476,-1.7935,-1.78,-1.78,-1.78,-1.78,-1.78,-1.78,-1.78,-1.78,-1.7822,-1.776,-1.7474,-1.7641,-1.776,-1.7462,-1.7641,-1.7927,-1.8198,-1.844,-1.8604,-1.8632,-1.8659,-1.8651,-1.8679,-1.8679,-1.8679,-1.8679,-1.8887,-1.9026,-1.9026,-1.9222,-1.9327,-1.9327,-1.935,-1.9402,-1.9501,-2.0366,-2.1202,-2.1971,-2.2906,-2.3677,-2.4257,-2.4257,-2.4444,-2.4804,-2.4804,-2.4804,-3.5053,-3.3949,-3.2756,0.0,0.0,0.0,-2.9634,0.0,-2.9202,-2.8729,0.0,0.0,0.0,0.0,0.0,0.0,-2.7671,-2.7317,-2.7811,0.0,-2.711,-2.6931,0.0,0.0,-2.5188,-2.4814,-2.4321,-2.3655,-2.4216,-2.4306,-2.364,-2.3595,-2.3595,-2.3595,-2.3595,-2.3176,-2.2298,-2.1889,-2.1216,-2.0288,-1.9902,-1.9909,-2.0297,-2.0054,-2.0431,-2.1244,-2.1244,-2.1492,-2.1913,-2.2194,-2.2296,-2.2296,-2.2296,-2.2296,-2.2296,-2.2296,-2.2296,-2.2296,-2.2296,-2.2296,-2.2229,-2.1803,-2.0787,-1.9549,-1.8699,-1.8005,-1.7549,-1.7755,-1.78,-1.7766,-1.7561,-1.7641,-1.7755,-1.7561,-1.7514,-1.7479,-1.7332,-1.7248,-1.724,-1.7296,-1.7403,-1.7607,-1.7899,-1.805,-1.8187,-1.8341,-1.8371,-1.842,-1.8576,-1.8595,-1.8595,-1.8595,-1.8834,-1.901,-1.901,-1.919,-1.9297,-1.9297,-1.9297,-1.9517,-1.9987,-2.0699,-2.1523,-2.2483,-2.2971,-2.3436,-2.3907,-2.3907,-2.3991,-2.4174,-2.4364,-2.4444,-3.5527,0.0,0.0,0.0,0.0,0.0,0.0,0.0,0.0,0.0,-2.9012,0.0,0.0,0.0,-2.8198,-2.8753,0.0,-2.7664,-2.819,-2.8083,-2.7766,-2.73,0.0,0.0,0.0,-2.5652,-2.4949,-2.3912,-2.4312,-2.4231,-2.3385,-2.334,-2.343,-2.3595,-2.3595,-2.3206,-2.2433,-2.1934,-2.1276,-2.0423,-1.9929,-1.9856,-2.0124,-1.9821,-2.012,-2.0813,-2.0943,-2.1228,-2.1643,-2.2106,-2.2296,-2.2296,-2.2296,-2.2296,-2.2296,-2.2296,-2.2296,-2.2296,-2.2296,-2.2088,-2.1715,-2.0945,-1.9957,-1.8983,-1.8575,-1.7842,-1.7236,-1.7561,-1.7601,-1.7479,-1.7344,-1.742,-1.7455,-1.7224,-1.7163,-1.715,-1.7052,-1.6917,-1.6837,-1.7002,-1.6946,-1.7013,-1.7446,-1.767,-1.7878,-1.8068,-1.8082,-1.8156,-1.8361,-1.8381,-1.8381,-1.8381,-1.8614,-1.878,-1.878,-1.8982,-1.9105,-1.9105,-1.9105,-1.937,-1.997,-2.0768,-2.158,-2.2407,-2.2936,-2.3323,-2.3566,-2.3566,-2.3566,-2.3577,-2.3996,-2.419,0.0,0.0,0.0,-3.3083,0.0,0.0,0.0,0.0,-2.9931,0.0,0.0,0.0,0.0,-2.8825,-2.8394,-2.843,-2.812,0.0,0.0,-2.918,-2.9358,-2.735,-2.7283,0.0,0.0,-2.7378,-2.6581,-2.4621,-2.4552,-2.4036,-2.2808,-2.2733,-2.3002,-2.358,-2.3595,-2.2996,-2.1739,-2.171,-2.1036,-1.9738,-1.9708,-1.9708,-1.9711,-1.9708,-1.9927,-2.0348,-2.0813,-2.1228,-2.1643,-2.2106,-2.2296,-2.2296,-2.2296,-2.2296,-2.2296,-2.2296,-2.2296,-2.2296,-2.2296,-2.1577,-2.0515,-1.972,-1.8765,-1.7877,-1.747,-1.7093,-1.6892,-1.7224,-1.7076,-1.6904,-1.7224,-1.7064,-1.6828,-1.6815,-1.6815,-1.6725,-1.6394,-1.6581,-1.6712,-1.638,-1.6063,-1.6056,-1.6712,-1.7372,-1.78,-1.7811,-1.7811,-1.7822,-1.7822,-1.7833,-1.7833,-1.7833,-1.8078,-1.8229,-1.8229,-1.8469,-1.8623,-1.8623,-1.8623,-1.8641,-1.8658,-2.0111,-2.0919,-2.0965,-2.245,-2.32,-2.323,-2.323,-2.323,-2.3224,-2.3896,-2.419,0.0,0.0,-3.2385,-3.3002,0.0,0.0,0.0,0.0,0.0,0.0,0.0,0.0,0.0,-2.9409,-2.9262,-2.9262,-2.8938,-2.8661,0.0,-2.9476,-3.0325,-3.0629,-2.9746,-2.9001,0.0,0.0,-2.6156,-2.5064,-2.4449,-2.3818,-2.3127,-2.3091,-2.3254,-2.3601,-2.3595,-2.3385,-2.2951,-2.2113,-2.147,-2.1006,-2.0127,-1.9708,-1.9708,-1.9708,-1.9764,-1.9929,-2.0682,-2.1071,-2.126,-2.2005,-2.212,-2.1869,-2.218,-2.1945,-2.1461,-2.1735,-2.1714,-2.1454,-2.0699,-2.0682,-2.0712,-1.8963,-1.8181,-1.7792,-1.7165,-1.6892,-1.6828,-1.6942,-1.7052,-1.7052,-1.6722,-1.6725,-1.6738,-1.6514,-1.6461,-1.645,-1.6328,-1.6219,-1.6163,-1.6287,-1.6207,-1.6271,-1.6716,-1.6993,-1.7199,-1.7444,-1.7479,-1.7549,-1.7777,-1.78,-1.78,-1.78,-1.8046,-1.8198,-1.8198,-1.845,-1.8595,-1.8595,-1.8595,-1.8834,-1.9377,-1.9679,-2.0423,-2.1682,-2.1289,-2.1428,-2.2134,-2.1657,-2.1412,-2.1424,-2.1868,-2.261,-3.4077,-3.3002,0.0,-3.2622,-3.1615,0.0,-3.0521,0.0,-3.0423,0.0,0.0,0.0,0.0,0.0,-2.9705,-2.9705,-2.9739,-2.9942,0.0,-3.063,-3.1189,-3.2337,-3.1528,-3.0585,-2.9859,-2.8665,-2.7121,-2.5262,-2.49,-2.4216,0.0,0.0,-2.3407,-2.3601,-2.3595,-2.349,-2.3266,-2.2218,-2.1575,-2.1335,-2.0232,-1.9708,-1.9708,-1.9708,-1.9708,-1.9747,-2.0615,-2.0991,-2.1071,-2.193,-2.2017,-2.1643,-2.1928,-2.1615,-2.1055,-2.1645,-2.1628,-2.1184,-2.0068,-1.9914,-1.9942,-1.8237,-1.7446,-1.7094,-1.6736,-1.6528,-1.6414,-1.6294,-1.6505,-1.6645,-1.6084,-1.6196,-1.638,-1.6163,-1.6122,-1.6122,-1.6122,-1.5941,-1.587,-1.6081,-1.5938,-1.5914,-1.6376,-1.626,-1.6323,-1.7019,-1.7126,-1.7236,-1.7572,-1.7607,-1.767,-1.7789,-1.7949,-1.8068,-1.8068,-1.8218,-1.832,-1.832,-1.832,-1.8557,-1.907,-1.94,-2.0131,-2.1336,-2.099,-2.1028,-2.1459,-2.0978,-2.0599,-2.0324,-2.0535,-2.115]},{"header":{"parameterUnit":"m.s-1","parameterCategory":1,"la1":30.6,"la2":29.2853,"lo1":-89.7004,"lo2":-87.6739,"dy":0.0162,"dx":0.0183,"nx":112,"ny":82,"refTime":"2023-07-17T12:00:00:Z","depth":0,"parameterNumber":3,"parameterNumberName":"V-component_of_WINDS"},"data":[0.0,0.0,0.0,0.0,0.0,0.0,0.0,0.0,0.0,0.0,0.0,0.0,0.0,0.0,0.0,0.0,0.0,0.0,0.0,0.0,0.0,0.0,0.0,0.0,0.0,0.0,0.0,0.0,0.0,0.0,0.0,0.0,0.0,0.0,0.0,0.0,0.0,0.0,0.0,0.0,0.0,0.0,0.0,0.0,0.0,0.0,0.0,0.0,0.0,0.0,0.0,0.0,0.0,0.0,0.0,0.0,0.0,0.0,0.0,0.0,0.0,0.0,0.0,0.0,0.0,0.0,0.0,0.0,0.0,0.0,0.0,0.0,0.0,0.0,0.0,0.0,0.0,0.0,0.0,0.0,0.0,0.0,0.0,0.0,0.0,0.0,0.0,0.0,0.0,0.0,-0.8862,-0.9879,-1.2044,-1.4281,-1.643,-1.8116,-1.8876,-1.8579,0.0,0.0,0.0,0.0,0.0,0.0,0.0,0.0,0.0,0.0,0.0,0.0,0.0,0.0,0.0,0.0,0.0,0.0,0.0,0.0,0.0,0.0,0.0,0.0,0.0,0.0,0.0,0.0,0.0,0.0,0.0,0.0,0.0,0.0,0.0,0.0,0.0,0.0,0.0,0.0,0.0,0.0,0.0,0.0,0.0,0.0,0.0,0.0,0.0,0.0,0.0,0.0,0.0,0.0,0.0,0.0,0.0,0.0,0.0,0.0,0.0,0.0,0.0,0.0,0.0,0.0,0.0,0.0,0.0,0.0,0.0,0.0,0.0,0.0,0.0,0.0,0.0,0.0,0.0,0.0,0.0,0.0,0.0,0.0,0.0,0.0,0.0,0.0,0.0,0.0,0.0,0.0,0.0,0.0,0.0,0.0,0.0,0.0,0.0,0.0,0.0,0.0,0.0,0.0,-0.9555,-1.2233,-1.2879,-1.4684,-1.8433,-1.8465,-1.8422,-1.8824,0.0,0.0,0.0,0.0,0.0,0.0,0.0,0.0,0.0,0.0,0.0,0.0,0.0,0.0,0.0,0.0,0.0,0.0,0.0,0.0,0.0,0.0,0.0,0.0,0.0,0.0,0.0,0.0,0.0,0.0,0.0,0.0,0.0,0.0,0.0,0.0,0.0,0.0,0.0,0.0,0.0,0.0,0.0,0.0,0.0,0.0,0.0,0.0,0.0,0.0,0.0,0.0,0.0,0.0,0.0,0.0,0.0,0.0,0.0,0.0,0.0,0.0,0.0,0.0,0.0,0.0,0.0,0.0,0.0,0.0,0.0,0.0,0.0,0.0,0.0,0.0,0.0,0.0,0.0,0.0,0.0,0.0,0.0,0.0,0.0,0.0,0.0,0.0,0.0,0.0,0.0,0.0,0.0,0.0,0.0,0.0,0.0,0.0,0.0,0.0,0.0,0.0,0.0,-0.9411,-1.0775,-1.2561,-1.4561,-1.6541,-1.843,-1.93,-1.9456,-1.8728,-1.813,0.0,0.0,0.0,0.0,0.0,0.0,0.0,0.0,0.0,0.0,0.0,0.0,0.0,0.0,0.0,0.0,0.0,0.0,0.0,0.0,0.0,0.0,0.0,0.0,0.0,0.0,0.0,0.0,0.0,0.0,0.0,0.0,0.0,0.0,0.0,0.0,0.0,0.0,0.0,0.0,0.0,0.0,0.0,0.0,0.0,0.0,0.0,0.0,0.0,0.0,0.0,0.0,0.0,0.0,0.0,0.0,0.0,0.0,0.0,0.0,0.0,0.0,0.0,0.0,0.0,0.0,0.0,0.0,0.0,0.0,0.0,0.0,0.0,0.0,0.0,0.0,0.0,0.0,0.0,0.0,0.0,0.0,0.0,0.0,0.0,0.0,0.0,0.0,0.0,0.0,0.0,0.0,0.0,0.0,0.0,0.0,0.0,0.0,0.0,0.0,0.0,0.0,-1.0667,-1.2236,-1.296,-1.5974,-1.812,-1.8688,-1.9923,-2.0067,-1.8584,-1.7789,0.0,0.0,0.0,0.0,0.0,0.0,0.0,0.0,0.0,0.0,0.0,0.0,0.0,0.0,0.0,0.0,0.0,0.0,0.0,0.0,0.0,0.0,0.0,0.0,0.0,0.0,0.0,0.0,0.0,0.0,0.0,0.0,0.0,0.0,0.0,0.0,0.0,0.0,0.0,0.0,0.0,0.0,0.0,0.0,0.0,0.0,0.0,0.0,0.0,0.0,0.0,0.0,0.0,0.0,0.0,0.0,0.0,0.0,0.0,0.0,0.0,0.0,0.0,0.0,0.0,0.0,0.0,0.0,0.0,0.0,0.0,0.0,0.0,0.0,0.0,0.0,0.0,0.0,0.0,0.0,0.0,0.0,0.0,0.0,0.0,0.0,0.0,0.0,0.0,0.0,0.0,0.0,0.0,0.0,0.0,0.0,0.0,0.0,0.0,0.0,0.0,0.0,-1.1376,-1.372,-1.4716,-1.6414,-1.8276,-2.0312,-1.9887,-1.9205,-1.8537,-1.7408,0.0,0.0,0.0,0.0,0.0,0.0,0.0,0.0,0.0,0.0,0.0,0.0,0.0,0.0,0.0,0.0,0.0,0.0,0.0,0.0,0.0,0.0,0.0,0.0,0.0,0.0,0.0,0.0,0.0,0.0,0.0,0.0,0.0,0.0,0.0,0.0,0.0,0.0,0.0,0.0,0.0,0.0,0.0,0.0,0.0,0.0,0.0,0.0,0.0,0.0,0.0,0.0,0.0,0.0,0.0,0.0,0.0,0.0,0.0,0.0,0.0,0.0,0.0,0.0,0.0,0.0,0.0,0.0,0.0,0.0,0.0,0.0,0.0,0.0,0.0,0.0,0.0,0.0,0.0,0.0,0.0,0.0,0.0,0.0,0.0,0.0,0.0,0.0,0.0,0.0,0.0,0.0,0.0,0.0,0.0,0.0,0.0,0.0,0.0,0.0,0.0,0.0,-1.1975,-1.4235,-1.5779,-1.7701,-1.921,-2.0047,-1.9993,-1.9419,-1.827,0.0,0.0,0.0,0.0,0.0,0.0,0.0,0.0,0.0,0.0,0.0,0.0,0.0,0.0,0.0,0.0,0.0,0.0,0.0,0.0,0.0,0.0,0.0,0.0,0.0,0.0,0.0,0.0,0.0,0.0,0.0,0.0,0.0,0.0,0.0,0.0,0.0,0.0,0.0,0.0,0.0,0.0,0.0,0.0,0.0,0.0,0.0,0.0,0.0,0.0,0.0,0.0,0.0,0.0,0.0,0.0,0.0,0.0,0.0,0.0,0.0,0.0,0.0,0.0,0.0,0.0,0.0,0.0,0.0,0.0,0.0,0.0,0.0,0.0,0.0,0.0,0.0,0.0,0.0,0.0,0.0,0.0,0.0,0.0,0.0,0.0,0.0,0.0,0.0,0.0,0.0,0.0,0.0,0.0,0.0,0.0,0.0,0.0,0.0,0.0,0.0,0.0,-1.0251,-1.3003,-1.5215,-1.6261,-1.8275,-1.9559,-1.9653,-1.9499,-1.8998,-1.8083,0.0,0.0,0.0,0.0,0.0,0.0,0.0,0.0,0.0,0.0,0.0,0.0,0.0,0.0,0.0,0.0,0.0,0.0,0.0,0.0,0.0,0.0,0.0,0.0,0.0,0.0,0.0,0.0,0.0,0.0,0.0,0.0,0.0,0.0,0.0,0.0,0.0,0.0,0.0,0.0,0.0,0.0,0.0,0.0,0.0,0.0,0.0,0.0,0.0,0.0,0.0,0.0,0.0,0.0,0.0,0.0,0.0,0.0,0.0,0.0,0.0,0.0,0.0,0.0,0.0,0.0,0.0,0.0,0.0,0.0,0.0,0.0,0.0,0.0,0.0,0.0,0.0,0.0,0.0,0.0,0.0,0.0,0.0,0.0,0.0,0.0,0.0,0.0,0.0,0.0,0.0,0.0,0.0,0.0,0.0,0.0,0.0,0.0,0.0,0.0,0.0,0.0,-1.0547,-1.4407,-1.6898,-1.6172,-1.7817,-1.9038,-1.9397,-1.827,-1.7716,0.0,0.0,0.0,0.0,0.0,0.0,0.0,0.0,0.0,0.0,0.0,0.0,0.0,0.0,0.0,0.0,0.0,0.0,0.0,0.0,0.0,0.0,0.0,0.0,0.0,0.0,0.0,0.0,0.0,0.0,0.0,0.0,0.0,0.0,0.0,0.0,0.0,0.0,0.0,0.0,0.0,0.0,0.0,0.0,0.0,0.0,0.0,0.0,0.0,0.0,0.0,0.0,0.0,0.0,0.0,0.0,0.0,0.0,0.0,0.0,0.0,0.0,0.0,0.0,0.0,0.0,0.0,0.0,0.0,0.0,0.0,0.0,0.0,0.0,0.0,0.0,0.0,0.0,0.0,0.0,0.0,0.0,0.0,0.0,0.0,0.0,0.0,0.0,0.0,0.0,0.0,0.0,0.0,0.0,0.0,0.0,0.0,0.0,0.0,0.0,0.0,0.0,0.0,-1.2851,-1.4663,-1.6312,-1.7653,-1.8279,-1.8738,-1.9032,-1.835,-1.7769,-1.7435,0.0,0.0,0.0,0.0,0.0,0.0,0.0,0.0,0.0,0.0,0.0,0.0,0.0,0.0,0.0,0.0,0.0,0.0,0.0,0.0,0.0,0.0,0.0,0.0,0.0,0.0,0.0,0.0,0.0,0.0,0.0,0.0,0.0,0.0,0.0,0.0,0.0,0.0,0.0,0.0,0.0,0.0,0.0,0.0,0.0,0.0,0.0,0.0,0.0,0.0,0.0,0.0,0.0,0.0,0.0,0.0,0.0,0.0,0.0,0.0,0.0,0.0,0.0,0.0,0.0,0.0,0.0,0.0,0.0,0.0,0.0,0.0,0.0,0.0,0.0,0.0,0.0,0.0,0.0,0.0,0.0,0.0,0.0,0.0,0.0,0.0,0.0,0.0,0.0,0.0,0.0,0.0,0.0,0.0,0.0,0.0,0.0,0.0,0.0,0.0,0.0,0.0,-1.3921,-1.5089,-1.6425,-1.7989,-1.8237,-1.8384,-1.8502,-1.8029,-1.7488,-1.7058,0.0,0.0,0.0,0.0,0.0,0.0,0.0,0.0,0.0,0.0,0.0,0.0,0.0,0.0,0.0,0.0,0.0,0.0,0.0,0.0,0.0,0.0,0.0,0.0,0.0,0.0,0.0,0.0,0.0,0.0,0.0,0.0,0.0,0.0,0.0,0.0,0.0,0.0,0.0,0.0,0.0,0.0,0.0,0.0,0.0,0.0,0.0,0.0,0.0,0.0,0.0,0.0,0.0,0.0,0.0,0.0,0.0,0.0,0.0,0.0,0.0,0.0,0.0,0.0,0.0,0.0,0.0,0.0,0.0,0.0,0.0,0.0,0.0,0.0,0.0,0.0,0.0,0.0,0.0,0.0,0.0,0.0,0.0,0.0,0.0,0.0,0.0,0.0,0.0,0.0,0.0,0.0,0.0,0.0,0.0,0.0,0.0,0.0,0.0,0.0,0.0,0.0,-1.4166,-1.5669,-1.6907,-1.7555,-1.7829,-1.7935,-1.7989,-1.7495,-1.7072,-1.6727,0.0,0.0,0.0,0.0,0.0,0.0,0.0,0.0,0.0,0.0,0.0,0.0,0.0,0.0,0.0,0.0,0.0,0.0,0.0,0.0,0.0,0.0,0.0,0.0,0.0,0.0,0.0,0.0,0.0,0.0,0.0,0.0,0.0,0.0,0.0,0.0,0.0,0.0,0.0,0.0,0.0,0.0,0.0,0.0,0.0,0.0,0.0,0.0,0.0,0.0,0.0,0.0,0.0,0.0,0.0,0.0,0.0,0.0,0.0,0.0,-0.1711,0.0,0.0,0.0,0.0,0.0,0.0,0.0,0.0,0.0,0.0,0.0,0.0,0.0,0.0,0.0,0.0,0.0,0.0,0.0,0.0,0.0,0.0,0.0,0.0,0.0,0.0,0.0,0.0,0.0,0.0,0.0,0.0,0.0,0.0,0.0,0.0,0.0,0.0,0.0,0.0,0.0,-1.5367,-1.5994,-1.6774,-1.7836,-1.7582,-1.7535,-1.7955,-1.7495,-1.7072,-1.6727,-1.5879,0.0,0.0,0.0,0.0,0.0,0.0,0.0,0.0,0.0,0.0,0.0,0.0,0.0,0.0,0.0,0.0,0.0,0.0,0.0,0.0,0.0,0.0,0.0,0.0,0.0,0.0,0.0,0.0,0.0,0.0,0.0,0.0,0.0,0.0,0.0,0.0,0.0,0.0,0.0,0.0,0.0,0.0,0.0,0.0,0.0,0.0,0.0,0.0,0.0,0.0,0.0,0.0,0.0,0.0,0.0,0.0,0.0,0.0,0.0,0.0,-0.2393,0.0,0.0,0.0,0.0,0.0,0.0,0.0,0.0,0.0,0.0,0.0,0.0,0.0,0.0,0.0,0.0,0.0,0.0,0.0,0.0,0.0,0.0,0.0,0.0,0.0,0.0,0.0,0.0,0.0,0.0,0.0,0.0,0.0,0.0,0.0,0.0,0.0,0.0,0.0,0.0,-1.5752,-1.6213,-1.672,-1.7283,-1.7248,-1.7273,-1.7388,-1.6987,-1.66,-1.6306,-1.5725,0.0,0.0,0.0,0.0,0.0,0.0,0.0,0.0,0.0,0.0,0.0,0.0,0.0,0.0,0.0,0.0,0.0,0.0,0.0,0.0,0.0,0.0,0.0,0.0,0.0,0.0,0.0,0.0,0.0,0.0,0.0,0.0,0.0,0.0,0.0,0.0,0.0,0.0,0.0,0.0,0.0,0.0,0.0,0.0,0.0,0.0,0.0,0.0,0.0,0.0,0.0,0.0,0.0,0.0,0.0,0.0,0.0,0.0,-0.006,-0.1186,-0.1762,-0.2215,-0.4691,0.0,0.0,0.0,0.0,0.0,0.0,0.0,0.0,0.0,0.0,0.0,0.0,0.0,0.0,0.0,0.0,0.0,0.0,0.0,0.0,0.0,0.0,0.0,0.0,-0.8123,-0.8197,-0.7804,0.0,0.0,0.0,0.0,0.0,0.0,0.0,0.0,0.0,0.0,0.0,-1.5691,-1.6219,-1.6593,-1.6693,-1.6931,-1.6971,-1.672,-1.6486,-1.6226,-1.5925,-1.5631,-1.5627,0.0,0.0,0.0,0.0,0.0,0.0,0.0,0.0,0.0,0.0,0.0,0.0,0.0,0.0,0.0,0.0,0.0,0.0,0.0,0.0,0.0,0.0,0.0,0.0,0.0,0.0,0.0,0.0,0.0,0.0,0.0,0.0,0.0,0.0,0.0,0.0,0.0,0.0,0.0,0.0,0.0,0.0,0.0,0.0,0.0,0.0,0.0,0.0,0.0,0.0,0.0,0.0,0.0,0.0,0.0,0.0,0.0,0.0,-0.0196,0.0,-0.2129,-0.3767,0.0,0.0,0.0,0.0,0.0,0.0,0.0,0.0,0.0,0.0,0.0,0.0,0.0,0.0,0.0,0.0,0.0,0.0,0.0,0.0,0.0,0.0,-0.8418,-0.8397,-0.8425,-0.8404,0.0,-0.7987,-0.8468,-1.0806,-1.129,0.0,0.0,0.0,0.0,0.0,0.0,0.0,-1.5444,-1.5738,-1.6139,-1.6653,-1.6513,-1.648,-1.6687,-1.6667,-1.6526,-1.6233,-1.5939,-1.5665,-1.5513,-1.598,0.0,0.0,0.0,0.0,0.0,0.0,0.0,0.0,0.0,0.0,0.0,0.0,0.0,0.0,0.0,0.0,0.0,0.0,0.0,0.0,0.0,0.0,0.0,0.0,0.0,0.0,0.0,0.0,0.0,0.0,0.0,0.0,0.0,0.0,0.0,0.0,0.0,0.0,0.0,0.0,0.0,0.0,0.0,0.0,0.0,0.0,0.0,0.0,0.0,0.0,0.0,0.0,0.0,0.0,0.0,0.0,0.0,-0.0323,-0.1043,-0.3426,-0.4601,-0.52,0.0,0.0,0.0,0.0,-0.8387,-0.853,-0.8618,-0.8645,-0.8618,-0.8445,0.0,0.0,0.0,0.0,0.0,0.0,0.0,0.0,0.0,0.0,-0.8462,-0.8381,-0.8489,-0.8779,-0.9346,-0.9314,-0.9649,0.0,-1.2347,-1.3429,-1.5146,0.0,0.0,0.0,0.0,-1.5451,-1.5618,-1.5899,-1.6112,-1.6199,-1.6246,-1.6259,-1.6219,-1.6213,-1.6159,-1.6032,-1.5899,-1.5698,-1.5404,-1.6192,-1.6737,0.0,0.0,0.0,0.0,0.0,0.0,0.0,0.0,0.0,0.0,0.0,0.0,0.0,0.0,0.0,0.0,0.0,0.0,0.0,0.0,0.0,0.0,0.0,0.0,0.0,0.0,0.0,0.0,0.0,0.0,0.0,0.0,0.0,0.0,0.0,0.0,0.0,0.0,0.0,0.0,0.0,0.0,0.0,0.0,0.0,0.0,0.0,0.0,0.0,0.0,0.0,0.0,0.0,0.0,0.0,0.0,0.0,-0.0259,-0.3319,-0.4419,-0.4551,-0.7619,-0.8733,-0.8601,-0.8601,-0.8696,-0.8838,-0.8954,-0.8967,-0.8851,-0.8716,-0.8531,-0.8201,-0.7824,0.0,0.0,0.0,0.0,-0.7906,-0.8058,-0.8262,-0.8411,-0.8391,-0.8492,-0.8977,-1.0103,-1.0565,-1.107,0.0,-1.3297,-1.44,-1.5621,0.0,0.0,0.0,0.0,-1.5558,-1.5698,-1.5979,-1.6072,-1.5852,-1.6025,-1.6072,-1.5798,-1.5784,-1.5784,-1.5784,-1.5784,-1.5732,-1.5518,-1.6186,-1.6729,-1.7067,0.0,0.0,0.0,0.0,0.0,0.0,0.0,0.0,0.0,0.0,0.0,0.0,0.0,0.0,0.0,0.0,0.0,0.0,0.0,0.0,0.0,0.0,0.0,0.0,0.0,0.0,0.0,0.0,0.0,0.0,0.0,0.0,0.0,0.0,0.0,0.0,0.0,0.0,0.0,0.0,0.0,0.0,0.0,0.0,0.0,0.0,0.0,0.0,0.0,0.0,0.0,0.0,0.0,0.0,0.0,0.0,-0.0263,-0.3371,-0.4586,-0.4796,-0.7926,-0.9042,-0.8861,-0.8861,-0.9008,-0.9187,-0.9197,-0.9052,-0.8902,-0.9079,-0.8787,-0.8238,-0.8069,-0.7867,0.0,0.0,-0.7978,-0.8015,-0.8218,-0.8323,-0.8364,-0.8442,-0.8482,-0.881,-0.9963,-1.1221,-1.2463,0.0,-1.3963,-1.4328,-1.5588,0.0,-1.5718,-1.5458,-1.5645,-1.5712,-1.5451,-1.5671,-1.5798,-1.5784,-1.5798,-1.5798,-1.5784,-1.5784,-1.5784,-1.5784,-1.5784,-1.5771,-1.5758,-1.5584,-1.5388,-1.5167,-1.6503,0.0,0.0,0.0,0.0,0.0,0.0,0.0,0.0,0.0,0.0,0.0,0.0,0.0,0.0,0.0,0.0,0.0,0.0,0.0,0.0,0.0,0.0,0.0,0.0,0.0,0.0,0.0,0.0,0.358,0.2552,0.0,0.1844,0.0721,0.0,0.0,0.0,0.0,0.0,0.0,0.0,0.0,0.0,0.0,0.0,0.0,0.0,0.0,0.0,0.0,0.0,0.0,0.0,0.0,0.0,0.0,-0.0192,-0.2404,-0.3841,-0.4828,-0.7005,-0.8414,-0.9211,-0.9113,-0.9171,-0.9344,-0.9245,-0.9176,-0.9039,-0.8798,-0.8448,-0.8113,-0.8005,-0.7951,-0.7921,-0.7975,-0.7988,-0.8002,-0.8106,-0.8197,-0.8258,-0.8211,-0.8272,-0.8911,-1.0875,-1.1668,-1.265,-1.4757,-1.5163,-1.5289,-1.573,-1.5784,-1.5792,-1.5691,-1.5718,-1.5792,-1.5691,-1.5718,-1.5784,-1.5784,-1.5784,-1.5784,-1.5784,-1.5784,-1.5784,-1.5784,-1.5651,-1.5551,-1.5551,-1.5277,-1.5322,-1.5691,-1.5767,-1.6445,0.0,0.0,0.0,0.0,0.0,0.0,0.0,0.0,0.0,0.0,0.0,0.0,0.0,0.0,0.0,0.0,0.0,0.0,0.0,0.0,0.0,0.0,0.0,0.0,0.0,0.4906,0.5247,0.5588,0.4537,0.3582,0.2946,0.1704,0.0705,0.0063,0.0,0.0,0.0,0.0,0.0,0.0,0.0,0.0,0.0,0.0,0.0,0.0,0.0,0.0,0.0,0.0,0.0,0.0,0.0,0.0,-0.0063,-0.1198,-0.2551,-0.4145,-0.6359,-0.7784,-0.8676,-0.9167,-0.934,-0.9354,-0.915,-0.9083,-0.9008,-0.8557,-0.8275,-0.8106,-0.8005,-0.7988,-0.7988,-0.7988,-0.7988,-0.7988,-0.7988,-0.8116,-0.8167,-0.8015,-0.8116,-0.8862,-1.1345,-1.1896,-1.2651,-1.5173,-1.5758,-1.5784,-1.5784,-1.5784,-1.5784,-1.5784,-1.5784,-1.5784,-1.5784,-1.5784,-1.5784,-1.5784,-1.5784,-1.5784,-1.5784,-1.5784,-1.5738,-1.5691,-1.5504,-1.5351,-1.5257,-1.5109,-1.5164,-1.5562,-1.5475,-1.6387,-1.8415,0.0,0.0,0.0,0.0,0.0,0.0,0.0,0.0,0.0,0.0,0.0,0.0,0.0,0.0,0.0,0.0,0.0,0.0,0.0,0.0,0.0,0.0,0.0,0.5253,0.5095,0.5384,0.5732,0.5728,0.5026,0.3233,0.3026,0.2202,0.0331,0.0135,0.0068,0.0067,0.0,0.0,0.0,0.0,0.0,0.0,0.0,0.0,0.0,0.0,0.0,0.0,0.0,0.0,0.0,0.0,0.0,0.0,0.0,-0.0928,-0.2768,-0.5973,-0.7168,-0.7313,-0.8928,-0.9431,-0.9313,-0.9025,-0.8865,-0.879,-0.8411,-0.832,-0.8235,-0.8035,-0.7988,-0.7988,-0.7988,-0.7988,-0.7988,-0.7988,-0.7988,-0.7988,-0.7988,-0.7988,-0.8722,-1.1302,-1.1886,-1.2592,-1.4915,-1.5611,-1.5758,-1.5764,-1.5764,-1.5764,-1.5764,-1.5758,0.0,-1.5758,-1.5758,-1.5758,-1.5764,-1.5764,-1.5771,-1.5784,-1.5771,-1.5698,-1.5418,-1.5378,-1.5244,-1.5008,-1.4988,-1.479,-1.4482,-1.5482,-1.6848,-1.8527,0.0,0.0,0.0,0.0,0.0,0.0,0.0,0.0,0.0,0.0,0.0,0.0,0.0,0.0,0.0,0.0,0.0,0.0,0.0,0.0,0.0,0.8603,0.9083,0.8478,0.8782,0.9138,0.9431,0.8436,0.7495,0.6907,0.5628,0.4619,0.3944,0.2689,0.1956,0.1948,0.074,0.0,0.0,0.0,0.0,0.0,0.0,0.0,0.0,0.0,0.0,0.0,0.0,0.0,0.0,0.0,0.0,0.0,0.0,-0.0299,-0.089,-0.3006,-0.5204,-0.7118,-0.7415,-0.8001,-0.872,-0.8635,-0.854,-0.8435,-0.8313,-0.8194,-0.8096,-0.8002,-0.7988,-0.7988,-0.7988,-0.7988,-0.7988,-0.7988,-0.7988,-0.7988,-0.7988,-0.7988,-0.864,-1.1106,-1.1597,-1.2293,-1.467,-1.515,-1.5271,-1.5478,-1.5518,-1.5518,-1.5518,-1.5337,0.0,-1.5204,-1.5204,-1.5284,-1.5491,-1.5518,-1.5605,-1.5764,-1.5638,-1.5484,-1.5398,-1.4997,-1.4723,-1.4643,-1.4442,-1.4088,-1.3581,-1.5519,-1.6547,0.0,0.0,0.0,0.0,0.0,0.0,0.0,0.0,0.0,0.0,0.0,0.0,0.0,0.0,0.0,0.0,0.0,0.0,0.0,0.0,0.0,0.0,0.9245,0.969,1.0049,1.0327,1.0605,1.0843,1.0054,0.9178,0.8353,0.7337,0.6348,0.5441,0.4451,0.3847,0.3825,0.2082,0.1143,0.1143,0.0401,0.0,0.0,0.0,0.0,0.0,0.0,0.0,0.0,0.0,0.0,0.0,0.0,0.0,0.0,0.0,0.0,0.0,0.0,0.0,0.0,0.0,-0.7877,-0.8472,-0.8414,-0.834,-0.831,-0.8194,-0.8113,-0.7988,-0.7988,-0.7988,-0.7988,-0.7988,-0.7988,-0.7988,-0.7988,-0.7988,-0.7988,-0.7988,-0.7941,-0.845,-1.0348,-1.1103,-1.1955,-1.3727,-1.4602,0.0,-1.5023,-1.513,-1.5217,-1.5217,-1.5115,-1.5008,-1.5008,-1.5008,-1.5075,-1.5197,-1.5217,-1.5284,-1.5451,-1.5311,0.0,0.0,0.0,-1.4469,-1.4342,-1.4055,0.0,0.0,0.0,-1.6075,-1.6598,0.0,0.0,0.0,-1.9834,-2.0019,0.0,0.0,0.0,0.0,0.0,0.0,0.0,0.0,0.0,0.0,0.0,0.0,0.0,0.0,0.0,0.0,1.0038,1.0242,1.0748,1.0634,1.0619,1.0823,1.087,1.0322,0.8731,0.8562,0.7854,0.6111,0.5831,0.5705,0.5702,0.0,0.0,0.0,0.0,0.0263,0.0262,0.0065,0.0,0.0,0.0,0.0,0.0,0.0,0.0,0.0,0.0,0.0,0.0,0.0,0.0,-0.0172,-0.1797,-0.314,-0.4524,-0.7269,-0.834,-0.8414,-0.8289,0.0,0.0,-0.8032,-0.7988,-0.7988,-0.7988,-0.7988,-0.7988,-0.7988,-0.7988,-0.7988,-0.7988,-0.7988,-0.7985,-0.7968,-0.7909,-0.8183,-0.9612,-1.0594,-1.1586,-1.2727,-1.397,-1.473,-1.4469,-1.4696,-1.4955,-1.4955,-1.4934,-1.4908,-1.4908,-1.4908,-1.4921,-1.4955,0.0,0.0,-1.5008,-1.4981,-1.4803,-1.4536,-1.4456,-1.4322,-1.4095,-1.3768,-1.4027,-1.5005,-1.4836,-1.5693,-1.7638,-1.8102,-1.8686,-1.9297,-1.9766,-2.0166,0.0,0.0,0.0,0.0,0.0,0.0,0.0,0.0,0.0,0.0,0.0,0.0,0.0,0.0,0.0,1.1603,1.1808,1.2089,1.2539,1.1501,1.0697,1.0758,1.0806,1.0762,1.0302,1.0354,1.0232,0.9724,0.8323,0.7519,0.7498,0.5699,0.4613,0.4613,0.2927,0.1992,0.2033,0.0698,0.0,0.0,0.0,0.0,0.0,0.0,0.0,0.0,0.0,0.0,0.0,0.0,0.0,-0.0166,-0.166,-0.2979,-0.4243,-0.6083,-0.7298,-0.8069,-0.8046,-0.8032,-0.8029,-0.7998,-0.7988,-0.7988,-0.7988,-0.7988,0.0,-0.7988,-0.7988,-0.7988,-0.7988,-0.7988,-0.7958,-0.7885,-0.7831,-0.8313,-1.0195,-1.0775,-1.1483,-1.3476,-1.3847,-1.384,-1.378,-1.4213,-1.4603,-1.4603,-1.4409,-1.4255,-1.4255,-1.4255,-1.4349,-1.4583,-1.4603,-1.4703,-1.4988,-1.4743,-1.4583,-1.4479,-1.4033,-1.3853,-1.4082,-1.3574,-1.371,-1.4665,-1.5161,-1.6028,-1.7297,-1.8148,-1.8798,-1.9307,-2.0116,-2.0293,0.0,0.0,0.0,0.0,0.0,0.0,0.0,0.0,0.0,0.0,0.0,1.1888,1.1586,0.0,1.3155,1.383,1.3265,1.2864,1.3143,1.17,1.0633,1.0711,1.0785,1.0739,1.0727,1.0789,1.0802,1.0724,0.9845,0.9374,0.9374,0.758,0.6539,0.6429,0.4723,0.3763,0.3709,0.2048,0.1223,0.1264,0.0415,0.0,0.0,0.0,0.0,0.0,0.0,0.0,0.0,0.0,0.0,-0.0053,-0.0799,-0.1893,-0.3251,-0.5364,-0.6531,-0.7083,-0.7786,-0.7988,-0.7988,-0.7988,-0.7988,-0.7988,-0.7988,-0.7938,-0.7877,-0.7877,-0.7875,-0.7821,-0.7821,-0.7821,-0.7801,-0.7723,-0.7648,-0.8009,-0.9601,-1.0245,-1.101,-1.2686,-1.3205,-1.3387,-1.3387,-1.3633,-1.3873,-1.4019,-1.3961,-1.3915,-1.4068,-1.3955,-1.3921,-1.4026,-1.3913,-1.3928,-1.4075,-1.3948,-1.3868,-1.3868,-1.3587,-1.3453,-1.3641,-1.322,-1.3274,-1.3888,-1.4099,-1.4709,-1.5708,-1.6841,-1.7679,-1.8271,-1.9433,-1.9805,0.0,0.0,0.0,0.0,0.0,0.0,0.0,1.2942,1.317,1.3542,1.3879,1.4168,1.4526,1.4908,1.5343,1.6018,1.4945,1.4007,1.4211,1.2596,1.1325,1.1137,1.0854,1.0687,1.0717,1.0721,1.0721,1.0721,1.0721,1.0721,1.0721,0.9257,0.8391,0.8299,0.6485,0.5504,0.5375,0.3776,0.2942,0.2931,0.1222,0.0401,0.04,0.0113,0.0,0.0,0.0,0.0,0.0,0.0,0.0,0.0,0.0,-0.0673,-0.1901,-0.4345,-0.5577,-0.6129,-0.7235,-0.7786,-0.7988,-0.7988,-0.7988,-0.7985,-0.7955,-0.7909,-0.7804,-0.7777,-0.7689,-0.76,-0.76,-0.76,-0.7584,-0.7526,-0.7417,-0.7622,-0.8742,-0.9443,-1.0258,-1.1588,-1.2373,-1.2877,-1.308,-1.3073,-1.3153,-1.3467,-1.352,-1.3606,-1.3888,-1.3707,-1.352,-1.352,-1.3313,-1.3213,-1.3213,-1.3213,-1.3213,-1.3213,-1.3153,-1.3146,-1.3206,-1.2891,-1.2914,-1.3388,-1.3064,-1.3346,-1.4303,-1.5367,-1.628,-1.7026,-1.8116,-1.8889,1.0372,1.0517,1.1317,1.3292,1.3073,1.3188,0.0,1.6355,1.5612,1.5849,1.6053,1.5807,1.4651,1.5886,1.7187,1.7597,1.7341,1.7185,1.7496,1.581,1.399,1.2636,1.1327,1.0571,1.0707,1.0721,1.0721,1.0721,1.0721,1.0721,1.0721,1.0272,1.0062,1.0045,0.8138,0.7146,0.7133,0.5326,0.4471,0.4408,0.2773,0.1934,0.1906,0.0617,0.0,0.0,0.0,0.0,0.0,0.0,0.0,0.0,0.0,-0.0103,-0.0405,-0.1914,-0.3969,-0.6029,-0.6179,-0.6983,-0.7988,-0.7988,-0.7988,-0.7965,-0.7879,-0.7824,-0.7784,-0.7658,-0.7611,-0.76,-0.76,-0.76,-0.7529,-0.7213,-0.7136,-0.7395,-0.8275,-0.8543,-0.9209,-1.1335,-1.1575,-1.1746,-1.2684,-1.2616,-1.2599,-1.3173,-1.326,-1.3273,-1.3307,-1.328,-1.326,-1.326,-1.3227,-1.3213,-1.3213,-1.3213,-1.3213,-1.3213,-1.2991,-1.2958,-1.32,-1.2659,-1.2896,-1.4065,-1.3541,-1.3715,-1.463,-1.4775,-1.5326,-1.6233,-1.6245,-1.7385,1.4273,1.427,1.452,1.498,1.4996,1.537,1.7127,1.7304,1.7233,1.7746,1.8027,1.8043,1.7608,1.8236,1.8905,1.9184,1.83,1.7655,1.776,1.6127,1.4674,1.4121,1.3586,1.2574,1.0764,1.0585,1.0622,1.0714,1.0636,1.0585,1.0585,1.0392,1.0239,1.0148,0.933,0.8818,0.8663,0.6978,0.6046,0.5948,0.4323,0.3094,0.218,0.1566,0.0836,0.0,0.0,0.0,0.0,0.0,0.0,0.0,0.0,0.0,-0.0151,-0.1511,-0.2716,-0.3768,-0.457,-0.5724,-0.6819,-0.6744,-0.7319,-0.7944,-0.776,-0.7689,-0.7658,-0.7509,-0.7404,-0.7287,-0.7287,-0.7272,-0.7177,-0.7004,-0.6906,-0.714,-0.8189,-0.8275,-0.864,-1.0237,-1.0788,-1.1105,-1.1564,-1.2,-1.2392,-1.2645,-1.2826,-1.3006,-1.3186,-1.3053,-1.2872,-1.2705,-1.2685,-1.2685,-1.2685,-1.2525,-1.2432,-1.2432,-1.2144,-1.2037,-1.2164,-1.1895,-1.2021,-1.2571,-1.2319,-1.2385,-1.279,-1.3834,-1.4538,-1.497,-1.5909,-1.6873,1.7124,1.7239,1.7311,1.6922,1.7264,1.7832,1.828,1.8733,1.9247,1.994,2.0189,2.0409,2.0799,2.0534,2.0344,2.064,1.929,1.8191,1.8191,1.698,1.592,1.5605,1.5682,1.4747,1.2055,1.1486,1.1243,1.1363,1.0774,1.0432,1.0432,1.0297,1.0164,0.999,0.9947,0.9822,0.9669,0.8407,0.769,0.7595,0.5922,0.4301,0.2794,0.1948,0.0995,0.0,0.0,0.0,0.0,0.0,0.0,0.0,0.0,0.0,-0.0101,-0.1109,-0.1661,-0.2163,-0.3115,-0.4318,-0.5513,-0.5782,-0.6533,-0.7432,-0.758,-0.757,-0.7495,-0.7305,-0.717,-0.7028,-0.6987,-0.69,-0.6854,-0.6814,-0.6719,-0.6866,-0.7664,-0.7672,-0.7934,-0.934,-1.0008,-1.0565,-1.1124,-1.1811,-1.2305,-1.2305,-1.2522,-1.2744,-1.2933,-1.2766,-1.2549,-1.2211,-1.2184,-1.2151,-1.2071,-1.1864,-1.175,-1.175,-1.1543,-1.1389,-1.1389,-1.1389,-1.1389,-1.1389,-1.1349,-1.1309,-1.1309,-1.2624,-1.3475,-1.3998,-1.5209,-1.6129,1.7203,1.7811,1.8518,1.9225,1.9845,2.0468,2.1218,2.158,2.2059,2.2874,2.2697,2.2673,2.354,2.2387,2.1484,2.186,2.0718,1.9754,1.9754,1.9442,1.8661,1.7109,1.6932,1.6464,1.5278,1.3879,1.3041,1.305,1.1314,1.0287,1.0287,1.0141,0.9994,0.9987,0.9845,0.9825,0.9815,0.9468,0.932,0.9313,0.7486,0.5864,0.4357,0.1378,0.0055,0.0,0.0,0.0,0.0,0.0,0.0,0.0,0.0,0.0,0.0,-0.0051,-0.0907,-0.2013,-0.2063,-0.2916,-0.4266,-0.5572,-0.595,-0.6085,-0.7259,-0.7495,-0.7319,-0.7024,-0.6896,-0.6859,-0.6753,-0.6712,-0.6671,-0.6562,-0.6521,-0.648,-0.6379,-0.6349,-0.6953,-0.8927,-0.9339,-0.9976,-1.1922,-1.2268,-1.2305,-1.2305,-1.2311,-1.2318,-1.2325,-1.2318,-1.2204,-1.1946,-1.1919,-1.1764,-1.1442,-1.1409,-1.1409,-1.1409,-1.1395,-1.1389,-1.1389,-1.1389,-1.1389,-1.1389,-1.1149,-1.1009,-1.1009,-1.1068,-1.1963,-1.3617,-1.3522,-1.4646,2.0207,2.0541,2.0807,1.9975,1.9931,2.0253,2.0875,2.1324,2.1775,2.2213,2.2205,2.2189,2.2478,2.2108,2.1851,2.2253,2.1343,2.0666,2.0939,2.021,1.9403,1.8667,1.9078,1.9159,1.836,1.5836,1.4332,1.4676,1.2825,1.167,1.167,1.0529,0.9835,0.9835,0.9846,0.9727,0.953,0.9432,0.9283,0.903,0.7469,0.5941,0.445,0.2407,0.0918,0.0,0.0,0.0,0.0,0.0,0.0,0.0,0.0,0.0,0.0,0.0,-0.0303,-0.0656,-0.0656,-0.1561,-0.2853,-0.4049,-0.5052,-0.6002,-0.6982,-0.7329,-0.7309,-0.701,-0.6886,-0.6852,-0.6742,-0.6624,-0.6576,-0.6525,-0.6439,-0.6358,-0.631,-0.63,-0.649,-0.7176,-0.8389,-0.9523,-1.0196,-1.1403,-1.2305,-1.2305,-1.2305,-1.2231,-1.2074,-1.2011,-1.1904,-1.1603,-1.1577,-1.153,-1.1395,-1.1249,-1.1136,-1.1136,-1.0955,-1.0888,-1.0888,-1.0888,-1.0888,-1.0888,-1.0787,-1.0734,-1.074,-1.1825,-1.2624,-1.3221,-1.4251,-1.5127,2.2567,2.3012,2.3355,2.2454,2.2275,2.228,2.24,2.2664,2.2908,2.3029,2.2815,2.2746,2.3155,2.2561,2.2207,2.2755,2.1863,2.1301,2.2052,2.0886,2.0146,2.0506,2.0434,2.0294,2.0127,1.795,1.6448,1.6199,1.4413,1.3013,1.2338,1.1259,1.0418,0.9822,0.9771,0.9652,0.9466,0.9354,0.9178,0.8881,0.7381,0.6108,0.517,0.355,0.2063,0.0726,0.0721,0.0459,0.0,0.0,0.0,0.0,0.0,0.0,0.0,0.0,0.0,0.0,0.0,-0.0549,-0.1537,-0.3165,-0.4284,-0.527,-0.6759,-0.7217,-0.7163,-0.6915,-0.6807,-0.6732,-0.6583,-0.6511,-0.6436,-0.6436,-0.6368,-0.63,-0.63,-0.63,-0.6398,-0.6679,-0.779,-0.8739,-0.9069,-1.0446,-1.1624,-1.1919,-1.1991,-1.1957,-1.1913,-1.1812,-1.1597,-1.1303,-1.1269,-1.1229,-1.1129,-1.0949,-1.0868,-1.0868,-1.07,-1.0593,-1.0593,-1.0593,-1.0593,-1.0593,-1.0593,-1.0593,-1.0593,-1.1632,-1.2305,-1.2604,-1.3936,-1.4688,2.4213,2.5182,2.5999,2.6401,2.6524,2.6304,2.5624,2.548,2.5443,2.5205,2.4454,2.4222,2.5419,2.3812,2.2554,2.3458,2.24,2.1933,2.317,2.1697,2.1056,2.2452,2.1033,2.016,2.0561,2.0134,1.9199,1.7637,0.0,1.4338,1.2522,1.2273,1.1495,1.0001,0.9683,0.9605,0.9598,0.9296,0.9069,0.8871,0.7348,0.6578,0.6452,0.4822,0.3355,0.2116,0.2028,0.126,0.0101,0.0051,0.0,0.0,0.0,0.0,0.0,0.0,0.0,0.0,0.0,0.0,-0.0439,-0.2959,-0.3695,-0.4049,-0.6615,-0.7153,-0.6852,-0.6732,-0.6583,-0.6477,-0.6337,-0.63,-0.63,-0.63,-0.63,-0.6296,-0.6289,-0.6286,-0.6506,-0.7261,-0.7441,-0.7784,-0.8654,-0.9533,-1.0378,-1.1217,-1.1375,-1.1503,-1.1826,-1.1577,-1.1289,-1.1002,-1.0969,-1.0894,-1.0613,-1.0593,-1.0586,-1.0573,-1.0566,-1.0566,-1.0546,-1.0546,-1.0546,-1.0546,-1.0566,-1.0566,-1.0566,-1.0611,-1.1045,-1.1834,-1.2634,-1.3403,2.6482,2.6991,2.7358,2.6685,2.6524,2.6464,2.6265,2.6436,2.6528,2.6077,2.5219,2.4617,2.4856,2.4073,2.3773,2.4937,2.445,2.4237,2.5216,2.4407,2.3265,2.2035,2.2075,2.1608,1.9924,1.9953,1.9761,1.8966,1.7427,1.6259,1.5784,1.3522,1.2037,1.1615,1.0274,0.9554,0.9442,0.9144,0.8916,0.8767,0.8345,0.7514,0.6326,0.5906,0.4916,0.3439,0.2418,0.1812,0.141,0.0404,0.0,0.0,0.0,0.0,0.0,0.0,0.0,0.0,0.0,0.0,-0.0383,-0.2851,-0.3607,-0.4029,-0.6351,-0.699,-0.6829,-0.6607,-0.6542,-0.6477,-0.6337,-0.63,-0.63,-0.63,-0.63,-0.6269,-0.6112,-0.6088,-0.6115,-0.6212,-0.6821,-0.766,-0.8624,-0.9533,-1.0176,-1.0418,-1.0797,-1.1129,-1.1209,-1.1149,-1.0995,-1.0734,-1.0707,-1.0673,-1.06,-1.0593,-1.0492,-1.0241,-1.0234,-1.0134,-0.995,-0.9936,-0.9936,-0.9936,-1.012,-1.0234,-1.0234,-1.1081,-1.1586,-1.1834,-1.2634,-1.31,2.7642,2.8039,2.8324,2.7684,2.7565,2.7446,2.6955,2.7042,2.6896,2.5871,2.504,2.4559,2.4693,2.4084,2.3928,2.5037,2.489,2.5051,2.6296,2.5726,2.4899,2.4392,2.4058,2.3169,2.1197,2.0981,2.0593,1.9638,1.877,1.787,1.7032,1.5146,1.3795,1.309,1.1312,0.9961,0.9188,0.8954,0.8794,0.871,0.8577,0.8056,0.7172,0.7062,0.6236,0.482,0.0,0.3067,0.1963,0.1209,0.0552,0.0,0.0,0.0,0.0,0.0,0.0,0.0,0.0,0.0,-0.032,-0.2208,-0.2807,-0.3213,-0.5454,-0.606,-0.6108,-0.6398,-0.6467,-0.6402,-0.632,-0.63,-0.63,-0.63,-0.63,-0.6255,-0.6027,-0.5993,-0.5929,-0.5749,-0.6135,-0.6765,-0.7714,-0.8602,-0.9321,-0.9697,-1.0371,-1.0834,-1.0834,-1.0834,-1.0774,-1.0613,-1.0593,-1.0539,-1.0374,-1.0399,-1.0241,-0.9947,-0.9927,-0.9853,-0.9722,-0.9715,-0.9715,-0.9715,-0.984,-0.9927,-0.9927,-1.0555,-1.0873,-1.0903,-1.1704,-1.2089,2.8121,2.8448,2.8787,2.8787,2.8787,2.8524,2.7517,2.7301,2.6878,2.5344,2.4645,2.4434,2.483,2.4154,2.3799,2.4616,2.472,2.525,2.6855,2.6364,2.6291,2.7515,2.6185,2.4717,2.3398,2.2451,2.138,2.0078,1.9764,1.8927,1.7342,1.6761,1.5736,1.4169,1.2269,1.0616,0.9178,0.8828,0.8689,0.8648,0.8391,0.831,0.8235,0.8099,0.7385,0.6279,0.6079,0.4672,0.2515,0.2163,0.1395,0.0491,0.015,0.0098,0.0239,0.0048,0.0,0.0,0.0,0.0,-0.0217,-0.1386,-0.1793,-0.2219,-0.4417,-0.4971,-0.5138,-0.6168,-0.6395,-0.63,-0.63,-0.63,-0.63,-0.63,-0.63,-0.6252,-0.6037,-0.5932,-0.5867,-0.561,-0.5487,-0.5657,-0.6396,-0.734,-0.8253,-0.9011,-0.9977,-1.0579,-1.0539,-1.0533,-1.0533,-1.0533,-1.0499,-1.0372,-1.008,-1.006,-0.9933,-0.9639,-0.9626,-0.9606,-0.9573,-0.9566,-0.9566,-0.9566,-0.9606,-0.9626,-0.9626,-0.9666,-0.9715,-0.9708,-1.0437,-1.0736,2.8176,2.8172,2.8247,2.8247,2.8247,2.8085,2.7441,2.7293,2.7108,2.6373,2.5492,2.4965,2.5396,2.4982,2.4773,2.5547,2.595,2.6476,2.7459,2.799,2.796,2.6999,2.6912,2.6205,2.4408,2.2498,2.1216,2.0879,1.9556,1.8685,1.8579,1.7246,1.5636,1.3674,1.2129,1.1045,1.0556,0.9305,0.8587,0.8347,0.8347,0.8204,0.8029,0.8002,0.7889,0.7587,0.6481,0.0,0.5125,0.2916,0.2439,0.2935,0.0837,0.0632,0.1378,0.0376,0.0,0.0,0.0,0.0,-0.0212,-0.1423,-0.1793,-0.2171,-0.4299,-0.4915,-0.5122,-0.6054,-0.632,-0.63,-0.63,-0.63,-0.63,-0.63,-0.63,-0.6221,-0.5901,-0.565,-0.5494,-0.5443,-0.5412,-0.5462,-0.5591,-0.6957,-0.8059,-0.8188,-0.9582,-1.0506,-1.0221,-1.0194,-1.0194,-1.0194,-0.998,-0.9842,-0.9766,-0.976,-0.9633,-0.9311,-0.9291,-0.9184,-0.8965,-0.8958,-0.8958,-0.8958,-0.9164,-0.9291,-0.9291,-0.9566,-0.9715,-0.9715,-0.9853,-0.9911,2.8424,2.799,2.767,2.767,2.767,2.7532,2.7014,2.6889,2.665,2.5774,2.5462,2.5379,2.5554,2.5405,2.542,2.601,2.5968,2.6223,2.7289,2.7932,2.8149,2.7907,2.8022,2.7483,2.5817,2.4259,2.3059,2.2245,2.0534,1.9299,1.8747,1.78,1.6337,1.4347,1.3567,1.2714,1.1674,1.022,0.9423,0.9267,0.8534,0.8109,0.7988,0.7988,0.7988,0.7988,0.7335,0.6594,0.5792,0.4504,0.3845,0.3559,0.2351,0.1847,0.1753,0.1155,0.0547,0.0,0.0,0.0,-0.0083,-0.0669,-0.0867,-0.1172,-0.2715,-0.3183,-0.3491,-0.5018,-0.5473,-0.5589,-0.6141,-0.63,-0.6279,-0.6159,-0.6023,-0.5907,-0.5725,-0.5552,-0.5395,-0.5395,-0.5395,-0.5395,-0.5395,-0.6465,-0.7302,-0.7168,-0.8259,-0.9148,-0.9287,-0.9189,-0.9304,-0.9844,-0.9766,-0.9619,-0.9466,-0.9452,-0.9297,-0.9004,-0.8991,-0.8924,-0.8811,-0.8804,-0.8804,-0.8804,-0.8918,-0.8991,-0.8991,-0.9158,-0.9225,-0.9225,-0.9225,-0.9225,2.8541,2.7829,2.7256,2.7165,2.714,2.6964,2.6298,2.6147,2.5862,2.4963,2.5146,2.5498,2.5737,2.5805,2.5886,2.6229,2.5857,2.5911,2.7045,2.7492,2.8016,2.8799,2.8916,2.843,2.7161,2.6018,2.4766,2.3384,2.1315,1.9574,1.8393,1.7956,1.7002,1.5384,1.5062,1.4259,1.2837,1.1346,1.049,1.0155,0.898,0.8283,0.7988,0.7988,0.7988,0.7988,0.7955,0.7278,0.0,0.5881,0.5228,0.438,0.3795,0.3184,0.2509,0.2005,0.1211,0.0348,0.0087,0.0,0.0,0.0,0.0,-0.0196,-0.1293,-0.1607,-0.1997,-0.3828,-0.453,-0.4882,-0.5747,-0.6141,-0.6259,-0.603,-0.5803,-0.5589,-0.5589,-0.5504,-0.5395,-0.5395,-0.5395,-0.5385,-0.5351,-0.6081,-0.6675,-0.6604,-0.7376,-0.8133,-0.8656,-0.8553,-0.8711,-0.9416,-0.9499,-0.9399,-0.9138,-0.9118,-0.9024,-0.8824,-0.8804,-0.8804,-0.8804,-0.8804,-0.8804,-0.8804,-0.8804,-0.8804,-0.8804,-0.8804,-0.8804,-0.8804,-0.8804,-0.8804,2.8126,2.7546,2.719,2.67,2.6562,2.6298,2.5209,2.4971,2.4946,2.4813,2.4825,2.5197,2.6235,2.643,2.6397,2.632,2.625,2.6436,2.7097,2.7548,2.8097,2.8829,2.8916,2.8715,2.8218,2.6262,2.4672,2.3698,2.0576,1.8398,1.7741,1.7134,1.675,1.6539,1.5303,1.4459,1.4141,1.2723,1.1323,1.0023,0.9858,0.9167,0.7988,0.7988,0.7988,0.7982,0.7892,0.7727,0.0,0.6177,0.6197,0.6816,0.452,0.4189,0.4823,0.2598,0.1725,0.147,0.0382,0.0,0.0,0.0,0.0,-0.0196,-0.1293,-0.1607,-0.1841,-0.293,-0.3943,-0.4727,-0.4805,-0.555,-0.6259,-0.603,-0.5803,-0.5589,-0.5589,-0.5504,-0.5395,-0.5395,-0.5395,-0.5351,-0.5143,-0.5999,-0.682,-0.717,-0.8069,-0.8801,-0.9093,-0.9113,-0.9035,-0.8911,-0.8884,-0.8878,-0.8851,-0.8844,-0.8838,-0.8804,-0.8804,-0.8804,-0.8804,-0.8804,-0.8804,-0.8804,-0.8804,-0.8804,-0.8804,-0.8804,-0.8804,-0.8804,-0.8804,-0.8804,2.861,2.7902,2.719,2.6637,2.6235,2.5737,2.4996,2.4537,2.433,2.433,2.4594,2.5059,2.5799,2.626,2.6599,2.6845,2.6633,2.6567,2.6943,2.689,2.6999,2.7663,2.7549,2.7529,2.7881,2.6417,2.4709,2.3042,2.0776,1.8987,1.7953,1.7127,1.6627,1.6446,1.5939,1.5503,1.521,1.3885,1.2954,1.2323,1.0725,0.9706,0.9167,0.8382,0.7938,0.7899,0.7838,0.7709,0.0,0.6919,0.6907,0.7135,0.6018,0.5515,0.5255,0.408,0.2867,0.1737,0.1162,0.0528,0.0,0.0,0.0,-0.0078,-0.0501,-0.062,-0.086,-0.1883,-0.2488,-0.3099,-0.428,-0.5235,-0.5844,-0.5779,-0.5603,-0.5487,-0.5487,-0.5436,-0.5395,-0.5395,-0.5395,-0.5344,-0.5127,-0.5463,-0.5742,-0.5729,-0.6087,-0.6648,-0.7533,-0.7625,-0.7943,-0.8712,-0.8804,-0.8804,-0.8804,-0.8804,-0.8804,-0.8804,-0.8804,-0.8804,-0.8804,-0.8804,-0.8804,-0.8804,-0.8804,-0.8804,-0.8804,-0.8804,-0.8804,-0.8804,-0.8804,-0.8804,2.8663,2.8026,2.719,2.6637,2.6059,2.546,2.4913,2.4393,2.4054,2.4205,2.4556,2.5034,2.5724,2.6223,2.6612,2.7014,2.687,2.6718,2.6668,2.6455,2.6406,2.6585,2.6377,2.6387,2.6906,2.585,2.4316,2.2431,2.1157,1.9914,1.8581,1.7577,1.6737,1.6146,1.6146,1.6039,1.5784,1.4902,1.4262,1.3878,1.2037,1.0888,1.0396,0.9474,0.8751,0.8262,0.8211,0.7883,0.0,0.7278,0.7177,0.7018,0.6876,0.6405,0.5722,0.5128,0.3962,0.2606,0.1862,0.1108,0.0427,0.0116,0.0,0.0,0.0,0.0,-0.0155,-0.0912,-0.1353,-0.2053,-0.3983,-0.4833,-0.5271,-0.552,-0.5504,-0.5395,-0.5395,-0.5395,-0.5395,-0.5395,-0.5358,-0.5243,-0.5063,-0.5036,-0.5027,-0.4952,-0.4973,-0.5401,-0.6455,-0.6588,-0.6993,-0.8049,-0.8342,-0.856,-0.8785,-0.8804,-0.8804,-0.8804,-0.8804,-0.8804,-0.8804,-0.8804,-0.8804,-0.8804,-0.8804,-0.8804,-0.8804,-0.8804,-0.8804,-0.8804,-0.8804,-0.8804,2.7982,2.7657,2.719,2.6637,2.6059,2.546,2.4913,2.4393,2.4155,2.4662,2.4788,2.5159,2.6285,2.6499,2.6499,2.6499,2.6964,2.7017,2.6196,2.6581,2.6614,2.5827,2.5703,2.5566,2.5184,2.4316,2.3293,2.208,2.1545,0.0,1.9542,1.8326,1.7091,1.5832,1.5832,1.5784,1.5784,1.5778,1.5146,1.3926,1.3878,1.3017,1.146,1.1455,1.0688,0.9292,0.915,0.8446,0.0,0.7054,0.6889,0.6873,0.6763,0.6705,0.6536,0.5363,0.4874,0.4563,0.237,0.1581,0.1393,0.0331,0.0,0.0,0.0,0.0,0.0,0.0,-0.078,-0.2035,-0.3986,-0.4374,-0.4466,-0.5378,-0.5504,-0.5395,-0.5395,-0.5395,-0.5395,-0.5395,-0.5237,-0.5056,-0.4914,-0.4891,-0.5051,-0.5436,-0.5651,-0.5988,-0.6532,-0.6588,-0.6615,-0.6615,-0.7262,-0.7996,-0.8725,-0.8804,-0.8804,-0.8804,-0.8804,-0.8804,-0.8804,-0.8804,-0.8804,-0.8804,-0.8804,-0.8804,-0.8804,-0.8804,-0.8804,-0.8804,-0.8804,-0.8804,2.6675,2.6421,2.6,2.5473,2.4921,2.4456,2.4293,2.4117,2.4155,2.4675,2.5423,2.6084,2.6436,2.6801,2.7052,2.7052,2.7494,2.7644,2.6999,2.6994,2.6878,2.6424,2.596,2.5332,2.4297,2.3945,2.3528,2.2818,2.183,2.0998,2.0342,1.9125,1.8025,1.7124,1.6099,1.5625,1.5778,1.5438,1.5147,1.4905,1.3809,1.3026,1.2487,1.1605,1.0807,1.0028,0.9261,0.857,0.0,0.7101,0.6773,0.6756,0.6603,0.6546,0.6478,0.5882,0.52,0.4492,0.3676,0.2517,0.1323,0.0984,0.0473,0.0,0.0,0.0,0.0,0.0,-0.0678,-0.169,-0.2933,-0.3651,-0.4307,-0.5228,-0.5318,-0.5203,-0.5203,-0.5128,-0.506,-0.506,-0.502,-0.4908,-0.4789,-0.4762,-0.4781,-0.482,-0.4858,-0.5147,-0.5773,-0.5846,-0.6036,-0.6534,-0.6804,-0.7235,-0.799,-0.8507,-0.8804,-0.8804,-0.8804,-0.8804,-0.8804,-0.8804,-0.8804,-0.8804,-0.8804,-0.8804,-0.8804,-0.8804,-0.8804,-0.8804,-0.8804,-0.8804,2.5564,2.5498,2.5222,2.4863,2.4406,2.4004,2.4004,2.4004,2.4155,2.4675,2.5523,2.6235,2.6449,2.6776,2.7077,2.7291,2.757,2.7668,2.7332,2.7018,2.6486,2.569,2.5235,2.4619,2.3643,2.3545,2.3428,2.311,2.2252,2.1652,2.1401,2.0043,1.9021,1.8591,1.6793,1.5762,1.5504,1.5189,1.5102,1.5231,1.421,1.3699,1.3556,1.264,1.1756,1.091,0.9762,0.0,0.0,0.7023,0.6566,0.6586,0.6322,0.6254,0.6274,0.6034,0.5534,0.4919,0.44,0.3396,0.2286,0.1521,0.0702,0.0,0.0,0.0,0.0,0.0,-0.038,-0.1029,-0.1951,-0.2591,-0.323,-0.4151,-0.4513,-0.4606,-0.4606,-0.4763,-0.4887,-0.4887,-0.487,-0.4802,-0.4707,-0.4672,-0.46,-0.4505,-0.4491,-0.4653,-0.5058,-0.5136,-0.53,-0.5773,-0.6041,-0.6362,-0.6821,-0.7557,-0.7969,-0.7969,-0.7969,-0.7969,-0.7969,-0.8235,-0.8374,-0.8374,-0.8646,-0.8804,-0.8804,-0.8804,-0.8804,-0.8804,-0.8804,-0.8804,0.0,2.4838,2.4725,2.4725,2.4406,2.4054,2.4054,2.4079,0.0,2.4738,2.5322,2.5875,2.6399,2.6524,2.6713,2.719,2.7291,2.7308,2.7351,2.6846,2.5878,2.4172,2.3949,2.3737,2.3222,2.3125,2.3091,2.3091,2.2711,2.25,2.2471,2.0955,2.0006,1.9868,1.7811,1.6184,1.5136,1.503,1.5024,1.4975,1.4914,1.471,1.4449,1.4162,1.33,0.0,1.0557,0.0,0.0,0.6887,0.6383,0.6422,0.5962,0.5881,0.5942,0.5837,0.5779,0.5642,0.463,0.4245,0.3877,0.1921,0.0757,0.0097,0.0032,0.0,0.0,0.0,0.0,-0.0201,-0.1067,-0.1309,-0.1539,-0.2463,-0.3221,-0.3737,-0.3767,-0.4312,-0.4793,-0.4857,-0.4772,-0.4674,-0.4674,-0.4586,-0.4491,-0.4491,-0.4491,-0.4491,-0.4491,-0.4491,-0.4491,-0.4491,-0.5054,-0.5433,-0.5433,-0.615,-0.6615,-0.6669,-0.6669,-0.6696,-0.675,-0.7423,-0.7777,-0.7777,-0.8454,-0.8804,-0.8804,-0.8804,-0.8804,-0.8804,-0.8804,-0.8804,2.35,0.0,2.4192,2.4192,2.4406,2.4619,0.0,2.4933,2.5259,2.5385,2.6201,2.6839,2.6549,2.6839,2.7027,2.6738,2.704,2.7448,2.7841,2.8067,2.7598,2.591,2.528,2.4676,2.3885,2.3371,2.3091,2.3091,2.2711,2.2373,2.2051,2.1315,2.0235,1.8755,1.8166,1.7359,1.6242,1.5571,1.5042,1.4616,1.3941,1.3701,1.38,1.3547,1.3121,1.2492,0.0,0.0,0.8796,0.7449,0.6547,0.5949,0.584,0.5755,0.5688,0.5654,0.5566,0.546,0.5222,0.4632,0.3734,0.1902,0.1166,0.0866,0.0188,0.0,0.0,0.0,0.0,-0.0189,-0.1069,-0.1313,-0.1523,-0.2485,-0.276,-0.2964,-0.3527,-0.369,-0.3911,-0.4484,-0.4569,-0.4545,-0.4545,-0.4515,-0.4491,-0.4491,-0.4491,-0.4491,-0.4491,-0.4491,-0.4491,-0.4491,-0.4653,-0.4732,-0.4732,-0.5878,-0.6831,-0.7396,-0.745,-0.7696,-0.8262,-0.8454,-0.8533,-0.8533,-0.8725,-0.8804,-0.8804,-0.8804,-0.8804,-0.8804,-0.8804,-0.8804,2.3238,2.3753,2.4004,2.4004,2.4406,2.4788,2.4788,2.5034,2.531,2.5548,2.6088,2.6537,2.6499,2.6952,2.718,2.6927,2.7341,2.7664,2.7654,2.784,2.758,2.6419,2.553,2.4868,2.4409,2.3446,2.2808,2.2808,2.2233,2.1826,2.1602,2.0937,2.013,1.9069,1.8882,1.7993,1.6335,1.5448,1.4812,1.4552,1.3628,1.3293,1.3387,1.2993,1.2705,1.2481,0.0,0.0,0.9357,0.8114,0.7144,0.6382,0.6154,0.5861,0.5511,0.5403,0.5328,0.5254,0.5254,0.4622,0.366,0.2659,0.1842,0.111,0.0637,0.0269,0.0,0.0,0.0,-0.0123,-0.0586,-0.0701,-0.0845,-0.1326,-0.1675,-0.1978,-0.2379,-0.2655,-0.2954,-0.3372,-0.3735,-0.3987,-0.3959,-0.4267,-0.4491,-0.4491,-0.4491,-0.4491,-0.4491,-0.4491,-0.4491,-0.4491,-0.4491,-0.4491,-0.4491,-0.5199,-0.5796,-0.6199,-0.6231,-0.6416,-0.6821,-0.7117,-0.7605,-0.8289,-0.8619,-0.8804,-0.8804,-0.8804,-0.8804,-0.8804,-0.8804,-0.8804,2.2955,2.3652,2.3857,2.4079,2.4466,2.4863,2.5006,2.483,2.481,2.5569,2.5624,2.5694,2.6377,2.6876,2.719,2.719,2.7695,2.794,2.7418,2.7445,2.7309,2.6753,2.5753,2.5125,2.5049,2.3655,2.2725,2.2614,2.1762,2.1161,2.1093,2.0361,1.9853,1.9727,1.9375,1.8238,1.6325,1.5447,1.4865,1.4608,1.368,1.3184,1.3053,1.2492,1.2211,1.2065,0.0,0.0,0.98,0.8776,0.7918,0.719,0.6614,0.6041,0.5505,0.5184,0.5066,0.5066,0.5066,0.4516,0.3775,0.3636,0.2636,0.1437,0.1167,0.0658,0.0142,0.003,0.0,0.0,0.0,0.0,0.0,0.0,-0.0486,-0.095,-0.109,-0.1591,-0.2093,-0.2315,-0.2926,-0.3428,-0.3483,-0.4042,-0.4491,-0.4491,-0.4491,-0.4491,-0.4491,-0.4491,-0.4491,-0.4491,-0.4491,-0.4491,-0.4491,-0.4491,-0.4491,-0.4491,-0.4598,-0.4708,-0.4818,-0.5355,-0.6253,-0.7503,-0.8262,-0.8619,-0.8619,-0.8752,-0.8804,-0.8804,-0.8804,-0.8804,2.1044,2.1979,2.3202,2.4394,2.4823,2.5199,2.603,2.493,2.4223,2.598,2.5669,2.5379,2.6336,2.6562,2.6612,2.6612,2.7444,2.8224,2.8574,2.9072,2.9183,2.8582,2.7953,2.7224,2.6345,2.4861,2.3711,2.3225,2.197,2.1064,2.0723,2.0185,1.9543,1.8822,1.8734,1.8379,1.77,1.7099,1.6059,1.46,1.394,1.3204,1.2432,1.2127,1.1797,1.1509,0.0,1.0411,0.9691,0.9302,0.8625,0.7775,0.6795,0.6341,0.6125,0.525,0.4921,0.4921,0.4921,0.4843,0.4591,0.3841,0.3411,0.2944,0.1533,0.101,0.0812,0.017,0.0,0.0,0.0,0.0,0.0,0.0,-0.0084,-0.0336,-0.0978,-0.1202,-0.1647,-0.2899,-0.3289,-0.3594,-0.4211,-0.4405,-0.4491,-0.4491,-0.4491,-0.4491,-0.4491,-0.4491,-0.4491,-0.4491,-0.4491,-0.4491,-0.4491,-0.4491,-0.4491,-0.4491,-0.503,-0.5628,-0.6258,-0.6372,-0.6534,-0.6777,-0.7482,-0.7857,-0.7857,-0.8507,-0.8804,-0.8804,-0.8804,-0.8804,2.0687,2.1338,2.1985,2.3316,2.4269,2.4998,2.5481,2.4631,2.4215,2.5709,2.5409,2.5301,2.6666,2.719,2.7593,2.8196,2.8172,2.8298,2.8813,2.89,2.8775,2.8511,2.7758,2.7047,2.6546,2.4608,2.3171,2.266,2.1278,2.0332,1.993,1.9463,1.9007,1.8617,1.8383,1.8096,1.7676,1.7445,1.6773,1.5642,1.4204,1.327,1.2792,1.184,1.1323,1.1176,0.0,1.0561,1.0192,1.0066,0.9492,0.8656,0.8033,0.7183,0.6179,0.5176,0.4796,0.4796,0.4796,0.4741,0.4631,0.4216,0.3795,0.3298,0.2521,0.173,0.1034,0.0699,0.0308,0.0,0.0,0.0,0.0,0.0,0.0,-0.0084,-0.042,-0.0504,-0.0811,-0.1898,-0.2454,-0.2982,-0.3735,-0.4208,-0.4491,-0.4491,-0.4491,-0.4491,-0.4491,-0.4491,-0.4491,-0.4491,-0.4491,-0.4491,-0.4491,-0.4491,-0.4491,-0.4491,-0.4787,-0.5113,-0.5445,-0.5823,-0.6009,-0.6009,-0.6718,-0.7101,-0.7101,-0.745,-0.7616,-0.7616,-0.8023,-0.8209,2.0133,2.052,2.0661,2.1679,2.3034,2.4266,2.4692,2.4255,2.4136,2.5513,2.5488,2.5661,2.7041,2.7632,2.8235,2.9239,2.8775,2.8499,2.9013,2.8649,2.8298,2.8298,2.7458,2.6839,2.6707,2.4415,2.2717,2.2238,2.0693,1.958,1.916,1.8783,1.851,1.8315,1.8037,1.7656,1.7236,1.7227,1.6902,1.6287,1.4592,1.3508,1.3005,1.1817,1.1145,1.0875,1.0687,1.0593,1.0593,1.0593,1.0167,0.9441,0.907,0.774,0.5952,0.5362,0.4951,0.4665,0.4833,0.4727,0.4491,0.4491,0.4098,0.3539,0.3372,0.2536,0.1535,0.1202,0.0699,0.0224,0.0056,0.0,0.0,0.0,0.0,0.0,0.0,0.0,-0.0224,-0.095,-0.1563,-0.2232,-0.3176,-0.3846,-0.4294,-0.446,-0.4491,-0.4491,-0.4491,-0.4491,-0.4477,-0.4443,-0.447,-0.4491,-0.4491,-0.4491,-0.4491,-0.4491,-0.4491,-0.4491,-0.4491,-0.5003,-0.5273,-0.5273,-0.5982,-0.634,-0.634,-0.6507,-0.6588,-0.6615,-0.7182,-0.745,1.8207,1.8828,1.9433,1.9535,2.0896,2.2658,2.4382,2.384,2.3633,2.5955,2.6455,2.6624,2.7214,2.7318,2.7544,2.8134,2.8549,2.9026,2.9641,2.9239,2.8838,2.8838,2.8337,2.7787,2.7274,2.506,2.3416,2.2887,2.0674,1.9141,1.8676,1.8617,1.8247,1.75,1.7451,1.7227,1.6755,1.6746,1.629,1.5402,1.5245,1.4161,1.2293,1.2143,1.1564,1.062,1.06,1.0593,1.0593,1.0593,1.0363,0.9962,0.9009,0.7372,0.5635,0.6232,0.5631,0.4615,0.5238,0.5042,0.4491,0.4491,0.446,0.4294,0.3594,0.3289,0.2843,0.148,0.1062,0.0866,0.0168,0.0,0.0,0.0,0.0,0.0,0.0,0.0,-0.0224,-0.095,-0.1146,-0.1647,-0.3148,-0.3428,-0.3707,-0.4405,-0.4491,-0.4491,-0.4491,-0.4491,-0.4436,-0.425,-0.4382,-0.4491,-0.4491,-0.4491,-0.4491,-0.4491,-0.4491,-0.4491,-0.4491,-0.4546,-0.457,-0.457,-0.5246,-0.5569,-0.5569,-0.6258,-0.6588,-0.6588,-0.6642,-0.6669,1.8008,1.8828,1.9678,1.9678,2.059,2.1778,2.2786,2.2818,2.3175,2.5066,2.5737,2.6337,2.758,2.8373,2.88,2.8649,2.9089,2.9415,2.9277,2.9026,2.8512,2.7519,2.7241,2.6741,2.5837,2.3849,2.244,2.1992,2.0034,1.8691,1.8237,1.7998,1.7715,1.7393,1.7119,1.6768,1.6318,1.6318,1.6019,1.5376,1.5157,1.4621,1.3836,1.2547,1.1735,1.132,1.0839,1.0593,1.0593,1.0593,1.0388,0.9976,0.88,0.7875,0.7129,0.6747,0.5987,0.5164,0.5406,0.5054,0.4491,0.4491,0.4491,0.446,0.4181,0.3707,0.3204,0.2676,0.1842,0.0923,0.0196,0.0,0.0,0.0,0.0,0.0,0.0,0.0,-0.0224,-0.095,-0.109,-0.1424,-0.2482,-0.2649,-0.2899,-0.3649,-0.3763,-0.3929,-0.4436,-0.4491,-0.4467,-0.4389,-0.4457,-0.4416,-0.4202,-0.4382,-0.4453,-0.4308,-0.444,-0.4491,-0.4491,-0.4491,-0.4491,-0.4491,-0.4759,-0.4869,-0.4869,-0.5171,-0.5281,-0.5308,-0.6182,-0.6588,1.81,1.8848,1.958,1.9844,2.0371,2.0966,2.1719,2.2381,2.3299,2.4985,2.591,2.6771,2.8126,2.885,2.9189,2.8925,2.9264,2.9377,2.895,2.8599,2.7921,2.665,2.6336,2.5824,2.4876,2.3247,2.198,2.1441,1.9821,1.8577,1.8027,1.7607,1.7314,1.7178,1.6748,1.6309,1.5889,1.5889,1.5635,1.5215,1.4968,1.4805,1.4632,1.2929,1.1964,1.1608,1.0916,1.052,1.0311,1.0311,1.0107,0.9728,0.8755,0.8242,0.7992,0.7491,0.6691,0.5869,0.6113,0.5601,0.4814,0.4814,0.468,0.4491,0.4491,0.4125,0.3622,0.3428,0.2621,0.1647,0.0895,0.0532,0.0336,0.0336,0.0336,0.028,0.0056,0.0,-0.014,-0.0643,-0.0755,-0.0978,-0.173,-0.1842,-0.2093,-0.2843,-0.2954,-0.3164,-0.3706,-0.3951,-0.4128,-0.4328,-0.4307,-0.4214,-0.4008,-0.4206,-0.428,-0.4156,-0.427,-0.4392,-0.4487,-0.4491,-0.4491,-0.4491,-0.4491,-0.4491,-0.4491,-0.4491,-0.4491,-0.4515,-0.5496,-0.5937,1.8341,1.8598,1.8812,1.9697,1.9922,2.0273,2.1582,2.2737,2.4079,2.6095,2.7365,2.8273,2.8787,2.8473,2.8285,2.8787,2.8888,2.8888,2.8875,2.7971,2.7102,2.6549,2.5971,2.5372,2.4825,2.3535,2.2315,2.1451,2.0083,1.8911,1.8032,1.7607,1.7178,1.6707,1.6289,1.588,1.5391,1.541,1.5195,1.4813,1.4775,1.4582,1.4168,1.3299,1.2335,1.1278,1.087,1.0322,0.9708,0.9708,0.9506,0.9184,0.8891,0.8348,0.7803,0.8533,0.7883,0.6723,0.745,0.674,0.5515,0.5515,0.5058,0.4491,0.4491,0.4491,0.4322,0.3539,0.3345,0.3206,0.2425,0.1675,0.1118,0.1118,0.1118,0.0895,0.0168,0.0,0.0,0.0,0.0,-0.0224,-0.095,-0.109,-0.134,-0.2091,-0.2202,-0.2204,-0.2207,-0.2731,-0.3323,-0.3908,-0.3859,-0.3829,-0.3977,-0.3994,-0.3994,-0.3994,-0.3994,-0.4151,-0.4474,-0.4487,-0.4487,-0.4487,-0.4491,-0.4491,-0.4491,-0.4491,-0.4491,-0.4491,-0.4519,-0.4519,1.7107,1.8109,1.915,1.9414,2.0166,2.1025,2.1728,2.2646,2.4052,2.6558,2.761,2.816,2.8323,2.8536,2.8486,2.7871,2.8423,2.8624,2.7883,2.719,2.6386,2.5423,2.4808,2.4255,2.3659,2.2712,2.1788,2.09,1.99,1.881,1.7644,1.7158,1.6719,1.6279,1.583,1.5537,1.541,1.5117,1.4912,1.4775,1.418,1.3968,1.4107,1.3277,1.2728,1.2349,1.12,1.0601,1.0358,0.9643,0.9291,0.9184,0.8891,0.8672,0.8507,0.8725,0.8182,0.7396,0.7616,0.674,0.5515,0.5515,0.5058,0.4491,0.4491,0.4491,0.446,0.4208,0.3763,0.34,0.3735,0.3231,0.2508,0.2009,0.148,0.1034,0.0811,0.0364,0.0,0.0,0.0,-0.0056,-0.028,-0.0336,-0.0588,-0.1312,-0.1424,-0.1627,-0.2128,-0.2357,-0.251,-0.2576,-0.2645,-0.2622,-0.2461,-0.3021,-0.3156,-0.2634,-0.3489,-0.4035,-0.4148,-0.4227,-0.4284,-0.4284,-0.4436,-0.4491,-0.4491,-0.4491,-0.4491,-0.4519,-0.4976,-0.5191,1.6964,1.8186,1.9453,2.0146,2.0781,2.1418,2.228,2.3368,2.4665,2.629,2.7244,2.7846,2.8059,2.8197,2.8134,2.7682,2.7984,2.7959,2.7115,2.6512,2.5711,2.4619,2.4205,2.3766,2.3158,2.2659,2.1937,2.0845,2.0003,1.8955,1.7634,1.6857,1.6338,1.6105,1.5635,1.5332,1.5166,1.4912,1.4619,1.4277,1.375,1.3555,1.3607,1.3131,1.2847,1.2654,1.1032,1.0349,1.028,0.9405,0.9038,0.9024,0.8878,0.8804,0.8804,0.8804,0.8507,0.8129,0.8129,0.7364,0.6384,0.6384,0.59,0.5336,0.5336,0.5144,0.4893,0.4893,0.4343,0.3901,0.4377,0.4153,0.3594,0.2815,0.2313,0.1925,0.1619,0.095,0.0448,0.0448,0.0196,0.0,0.0,0.0,-0.0164,-0.0592,-0.0664,-0.0914,-0.1605,-0.168,-0.1733,-0.1909,-0.1989,-0.1978,-0.1815,-0.2288,-0.2401,-0.195,-0.2675,-0.3119,-0.3119,-0.3821,-0.4197,-0.4197,-0.4389,-0.4491,-0.4491,-0.4491,-0.4491,-0.4519,-0.4924,-0.5109,1.7317,1.8433,1.9603,2.1348,2.1523,2.1619,2.2998,2.4411,2.5496,2.5615,2.6506,2.7419,2.7871,2.7595,2.7394,2.7745,2.7469,2.704,2.6436,2.5812,2.5084,2.4117,2.3954,2.3715,2.3158,2.3108,2.254,2.1176,2.0427,1.9351,1.7914,1.6799,1.6136,1.6036,1.5615,1.5215,1.4785,1.4774,1.4316,1.3506,1.3467,1.3252,1.2905,1.2905,1.2729,1.2347,1.0635,0.9865,0.9736,0.9087,0.8804,0.8804,0.8804,0.8804,0.8804,0.8804,0.8804,0.8804,0.8804,0.8315,0.7696,0.7696,0.7208,0.6588,0.6588,0.6118,0.5597,0.5515,0.5054,0.457,0.4519,0.4491,0.4322,0.3594,0.34,0.3206,0.2454,0.173,0.1174,0.1118,0.0559,0.0083,0.0,0.0,0.0,0.0,0.0,-0.0192,-0.0738,-0.0807,-0.1033,-0.1585,-0.163,-0.163,-0.163,-0.1697,-0.1697,-0.163,-0.1741,-0.1784,-0.1719,-0.3243,-0.4095,-0.4095,-0.4355,-0.4491,-0.4491,-0.4491,-0.4491,-0.4491,-0.4491,-0.4491,1.5863,1.7192,1.862,2.043,2.1309,2.2035,2.307,2.3913,2.472,2.5578,2.659,2.7216,2.6901,2.7102,2.6904,2.5711,2.6151,2.6336,2.531,2.4695,2.4255,2.4029,2.3572,2.3246,2.3108,2.3108,2.2713,2.1773,2.1124,1.9932,1.8078,1.7314,1.6515,1.5586,1.5459,1.5215,1.4785,1.4416,1.3987,0.0,1.3174,1.2993,1.2905,1.2905,1.2558,1.1899,1.0981,1.0295,0.9736,0.9087,0.8804,0.8804,0.8804,0.8804,0.8804,0.8804,0.8804,0.8804,0.8804,0.8315,0.7696,0.7696,0.7208,0.6588,0.6588,0.6475,0.6253,0.5651,0.5406,0.5164,0.4625,0.4491,0.446,0.4294,0.3818,0.3345,0.3178,0.2508,0.1786,0.1202,0.0985,0.067,0.0107,0.0,0.0,0.0,0.0,-0.0049,-0.0168,-0.019,-0.0233,-0.0382,-0.0381,-0.0381,-0.0381,-0.0828,-0.0895,-0.0426,-0.1274,-0.1585,-0.1118,-0.2529,-0.3332,-0.3332,-0.411,-0.4491,-0.4491,-0.4491,-0.4491,-0.4491,-0.4491,-0.4491,1.5651,1.6965,1.8395,2.0381,2.123,2.1837,2.278,2.3454,2.4166,2.5204,2.6208,2.6751,2.6185,2.6289,2.6113,2.4963,2.531,2.5385,2.4544,2.418,2.3891,2.3584,2.3283,2.3108,2.3108,2.3108,2.2815,2.214,2.1247,2.0141,1.8857,1.7556,1.657,1.596,1.5575,1.5215,1.4785,1.4328,1.3899,1.3506,1.3076,1.2905,1.2905,1.2905,1.2691,1.2295,1.1575,1.0889,1.0244,0.9562,0.9087,0.8804,0.8804,0.8804,0.8804,0.8804,0.8804,0.8804,0.8804,0.8533,0.8235,0.8235,0.7969,0.7643,0.7643,0.7396,0.7047,0.6659,0.6059,0.5416,0.4988,0.4678,0.447,0.4375,0.4136,0.3929,0.3929,0.3249,0.2507,0.2126,0.1723,0.1209,0.0557,0.0196,0.0,0.0,0.0,0.0,0.0,0.0,0.0,0.0,0.0,0.0,0.0,-0.0292,-0.0337,-0.0022,-0.0583,-0.0806,-0.0493,-0.1546,-0.2269,-0.2569,-0.3125,-0.3563,-0.3917,-0.3926,-0.4125,-0.4491,-0.4491,-0.4491,1.5581,1.709,1.8607,2.0603,2.1142,2.1431,2.2364,2.3069,2.3759,2.4673,2.5742,2.6285,2.5586,2.5536,2.536,2.4612,2.4575,2.4481,2.3929,2.3853,2.364,2.3032,2.3045,2.3032,2.2844,2.2995,2.2832,2.2221,2.1178,2.031,1.9642,1.7885,1.6765,1.651,1.5921,1.5348,1.4823,1.4328,1.3899,1.3506,1.3076,1.2905,1.2905,1.2905,1.2905,1.2847,1.2129,1.1491,1.0914,1.0115,0.9458,0.8956,0.8831,0.8804,0.8804,0.8804,0.8804,0.8804,0.8804,0.8804,0.8804,0.8804,0.8804,0.8804,0.8804,0.8374,0.7857,0.7723,0.6795,0.5757,0.5523,0.51,0.4647,0.4393,0.4478,0.4594,0.4512,0.386,0.3266,0.3131,0.2385,0.16,0.0996,0.0482,0.0112,0.0022,0.0,0.0,0.0,0.0,0.0,0.0,0.0,0.0,0.0,0.0,0.0,0.0,0.0,0.0,0.0,-0.0578,-0.1156,-0.1641,-0.2005,-0.2511,-0.3122,-0.3105,-0.3456,-0.4098,-0.4098,-0.4098,1.4268,1.6813,1.9282,2.041,2.0947,2.1362,2.1959,2.282,2.3657,2.4213,2.5485,2.6185,2.5109,2.5297,2.5109,2.3572,2.3778,2.3904,2.3296,2.3221,2.3007,2.2456,2.2819,2.2732,2.1794,2.2543,2.2681,2.1681,2.1447,2.0841,1.967,1.8849,1.7825,1.6539,1.6397,1.5851,1.4813,1.4328,1.3899,1.3506,1.3076,1.2905,1.2905,1.2905,1.2905,1.2847,1.2129,1.174,1.1566,1.0312,0.9736,0.9614,0.9035,0.8804,0.8804,0.8804,0.8804,0.8804,0.8804,0.8804,0.8804,0.8804,0.8804,0.8804,0.8804,0.8725,0.8507,0.7883,0.7402,0.6916,0.6252,0.5845,0.5482,0.4944,0.4923,0.493,0.457,0.4267,0.3875,0.321,0.2386,0.1607,0.1,0.0831,0.0605,0.009,0.0,0.0,0.0,0.0,0.0,0.0,0.0,0.0,0.0,0.0,0.0,0.0,0.0,0.0,0.0,-0.0094,-0.0192,-0.0262,-0.153,-0.2242,-0.2353,-0.2338,-0.2397,-0.2508,-0.2508,-0.2508,1.4544,1.6778,1.8681,1.9656,2.0176,2.0745,2.1767,2.254,2.3322,2.4316,2.5062,2.5297,2.4506,2.4544,2.4356,2.3271,2.3321,2.3396,2.3145,2.3108,2.2895,2.2343,2.2493,2.2456,2.1995,2.2355,2.2443,2.1983,2.1656,2.1131,2.0259,1.9254,1.8394,1.7743,1.6922,1.615,1.542,1.4525,1.3773,1.3154,1.2993,1.2905,1.2905,1.2905,1.2905,1.2881,1.2559,1.2187,1.1765,1.1166,1.0491,0.9814,0.9891,0.9465,0.8857,0.9211,0.9133,0.8804,0.8804,0.8804,0.8804,0.8804,0.8804,0.8778,0.8611,0.8677,0.8692,0.8236,0.7821,0.7411,0.6834,0.6356,0.5888,0.5371,0.5107,0.4942,0.4765,0.4397,0.3944,0.3465,0.2796,0.2209,0.1947,0.163,0.1318,0.1051,0.1006,0.1006,0.1006,0.1006,0.0873,0.0538,0.0515,0.0359,0.0022,0.0,0.0,0.0,0.0,0.0,0.0,0.0,0.0,0.0,-0.0631,-0.1168,-0.1573,-0.1576,-0.1786,-0.2202,-0.2202,-0.2202,1.4554,1.6275,1.7585,1.8521,1.9327,2.0195,2.1393,2.2182,2.3004,2.4026,2.4402,2.4443,2.3879,2.3904,2.3803,2.3195,2.3108,2.3108,2.3108,2.3108,2.2895,2.2343,2.2406,2.241,2.2133,2.2234,2.2196,2.192,2.1506,2.1069,2.0503,1.9513,1.8874,1.8715,1.7633,1.6697,1.5917,1.4593,1.3578,1.2905,1.2905,1.2905,1.2905,1.2905,1.2905,1.2905,1.2905,1.2584,1.208,1.1888,1.1216,1.0338,1.0661,1.0192,0.9335,0.9692,0.9588,0.9263,0.891,0.891,0.9035,0.8857,0.8804,0.8751,0.8489,0.8549,0.8637,0.8343,0.8031,0.7654,0.7308,0.6862,0.6398,0.5812,0.547,0.5171,0.4715,0.428,0.3887,0.3651,0.3236,0.2876,0.2719,0.2317,0.1984,0.183,0.1808,0.1808,0.1808,0.1808,0.163,0.1185,0.114,0.0939,0.0493,0.0448,0.0381,0.0247,0.0224,0.0158,0.0,0.0,0.0,0.0,0.0,-0.027,-0.0807,-0.0829,-0.109,-0.1647,-0.1647,-0.1647,1.3513,1.4835,1.6128,1.7063,1.8618,2.0056,2.0564,2.1734,2.2681,2.2615,2.3394,2.3866,2.3258,2.3597,2.3803,2.3195,2.3108,2.3108,2.3108,2.3108,2.2895,2.2343,2.2744,2.2656,2.1631,2.2008,2.1882,2.0855,2.0754,2.0478,1.9874,1.9798,1.9423,1.8715,1.8635,1.771,1.5917,1.4329,1.332,1.2905,1.2905,1.2905,1.2905,1.2905,1.2905,1.2905,1.2905,1.2881,1.2798,1.208,1.1765,1.1641,1.104,1.0762,1.0618,1.0012,1.0192,1.0517,0.9237,0.9211,0.964,0.9008,0.8804,0.8751,0.8489,0.8409,0.8362,0.8012,0.7915,0.7831,0.7552,0.7457,0.7205,0.6369,0.6251,0.5876,0.4221,0.3825,0.3761,0.3631,0.3578,0.3376,0.2807,0.2672,0.245,0.1895,0.1808,0.1808,0.1808,0.1808,0.1784,0.1762,0.1763,0.1741,0.1719,0.1697,0.1451,0.0895,0.0851,0.0593,0.0024,0.0,0.0,0.0,0.0,-0.0028,-0.0056,-0.0056,-0.0084,-0.0112,-0.0112,-0.0112,1.3266,1.4544,1.564,1.6572,1.796,1.9332,2.0361,2.1184,2.1946,2.2735,2.3182,2.3346,2.3145,2.3283,2.3346,2.3145,2.3108,2.3108,2.3108,2.3108,2.2895,2.2343,2.2456,2.2447,2.2058,2.1882,2.1619,2.1257,2.0893,2.044,1.9836,1.9798,1.9669,1.9423,1.8965,1.7656,1.5463,1.4283,1.3438,1.2905,1.2905,1.2905,1.2905,1.2905,1.2905,1.2905,1.2905,1.2905,1.2881,1.2608,1.2236,1.1814,1.2064,1.1584,1.0813,1.1015,1.0965,1.0737,1.0236,0.9961,0.984,1.0012,0.938,0.8572,0.8692,0.8414,0.8023,0.7715,0.7776,0.7832,0.7571,0.7513,0.7284,0.6416,0.6227,0.6002,0.4981,0.4838,0.4644,0.3761,0.388,0.3939,0.3372,0.3284,0.3195,0.2993,0.2948,0.2948,0.2948,0.2948,0.2812,0.243,0.2386,0.2228,0.183,0.1808,0.1719,0.1496,0.1474,0.1215,0.0595,0.0585,0.0406,0.0,0.0,0.0,0.0,0.0,0.0,0.0,0.0,0.0,1.2375,1.3687,1.4914,1.5895,1.713,1.8556,2.0205,2.0895,2.1556,2.2831,2.3108,2.3108,2.3108,2.3108,2.3198,2.3454,2.3708,2.3872,2.3872,2.3649,2.3373,2.3003,2.2719,2.2556,2.2556,2.2083,2.1681,2.1506,2.1006,0.0,1.9836,1.9798,1.9723,1.9547,1.8698,1.728,1.5308,1.4291,1.3515,1.2905,1.2905,1.2905,1.2905,1.2905,1.2905,1.2905,1.2905,1.2905,1.2905,1.2905,1.2608,1.2212,1.2715,1.2329,1.1534,1.1724,1.1665,1.1434,1.0965,1.0661,1.0517,1.0745,0.9984,0.8989,0.8916,0.8629,0.8162,0.7512,0.767,0.7932,0.7461,0.7337,0.7181,0.6606,0.6477,0.6301,0.5717,0.5512,0.5176,0.434,0.4461,0.4591,0.4228,0.4166,0.4166,0.4166,0.399,0.3858,0.3858,0.3711,0.3442,0.3034,0.3012,0.2832,0.2433,0.241,0.2322,0.2119,0.2095,0.1841,0.1231,0.1202,0.102,0.0606,0.0608,0.0626,0.0661,0.0223,0.0,0.0,0.0,0.0,0.0,0.0,0.0,1.4914,1.619,1.7755,2.002,2.0851,2.1511,2.28,2.3078,2.3078,2.3108,2.3138,2.3395,2.4176,2.4879,2.5342,2.5342,2.4709,2.4263,2.4263,2.3573,2.3108,2.3108,2.2606,2.2083,2.1531,2.1006,2.044,1.9836,1.9798,1.9572,1.9045,1.7922,1.6762,1.5556,1.4404,1.3552,1.2929,1.2929,1.2929,1.2905,1.2905,1.2905,1.2905,1.2905,1.2905,1.2905,1.2905,1.2905,1.2905,1.2905,1.2905,1.2798,1.2104,1.2295,1.2691,1.1334,1.1266,1.169,1.1048,1.0541,1.0051,0.9198,0.9016,0.8829,0.744,0.7659,0.8114,0.7264,0.7042,0.7021,0.7021,0.7021,0.6852,0.6328,0.576,0.5346,0.5308,0.5308,0.5329,0.5303,0.5303,0.5303,0.5303,0.4805,0.443,0.443,0.3965,0.3648,0.3648,0.3648,0.3644,0.3622,0.3622,0.3372,0.2763,0.2719,0.2452,0.1847,0.1829,0.1816,0.1811,0.1814,0.1875,0.1995,0.0688,0.0056,0.0028,0.0,0.0,1.0602,0.0,0.0,0.0,0.0,0.0,1.8372,1.9241,2.0292,2.1901,2.223,2.2414,2.2975,2.3573,2.4031,2.4263,2.3972,2.3725,2.3725,2.356,2.3424,2.3424,2.3258,2.3108,2.3108,2.2606,2.2083,0.0,2.1006,2.044,1.9836,1.9798,1.9736,1.9597,1.8535,1.7568,1.681,1.5672,1.4595,1.3552,1.3552,1.3324,1.2905,1.2905,1.2905,1.2905,1.2905,1.2905,1.2905,1.2905,1.2905,1.2905,1.2905,1.2905,1.2881,1.2666,1.2715,1.2847,1.2437,1.2089,1.1794,1.1805,1.1146,1.0264,0.9875,0.9516,0.9108,0.8424,0.8392,0.8531,0.8291,0.7946,0.7663,0.7663,0.7321,0.6958,0.681,0.6656,0.6289,0.5454,0.5653,0.5809,0.5367,0.5303,0.5303,0.5303,0.5151,0.5043,0.5043,0.4918,0.4831,0.4831,0.4831,0.4657,0.422,0.4176,0.3939,0.3394,0.335,0.3117,0.2626,0.2607,0.244,0.2087,0.2088,0.2099,0.2146,0.1683,0.1229,0.0783,0.0252,0.0,0.989,1.1304,1.2668,1.3484,0.0,0.0,1.7259,1.8038,1.892,2.0717,2.0938,2.1101,2.2055,2.2472,2.2863,2.338,2.3068,2.3069,2.3949,2.3577,2.3321,2.3564,2.3305,2.3108,2.3108,2.2819,2.2393,2.187,2.1358,2.0679,1.9849,1.9798,1.9698,1.9459,1.8643,1.7782,1.6932,1.6049,1.5107,1.4167,1.3909,1.3613,1.3262,1.3017,1.2905,1.2905,1.2905,1.2905,1.2905,1.2905,1.2905,1.2905,1.2905,1.2905,1.2905,1.2905,1.2905,1.2905,1.2905,1.2608,1.2282,1.2426,1.1762,1.0844,1.0487,1.0083,0.9582,0.8896,0.8695,0.8695,0.8695,0.8459,0.8234,0.8234,0.7801,0.7384,0.7384,0.7384,0.7105,0.6182,0.6301,0.6428,0.6081,0.6012,0.6012,0.6012,0.5825,0.568,0.568,0.5459,0.5303,0.5303,0.5303,0.5151,0.4805,0.4543,0.4264,0.3943,0.3729,0.3507,0.3289,0.327,0.3169,0.2951,0.2961,0.2987,0.3031,0.2392,0.189,0.1535,0.1118,0.0923,0.885,0.9852,1.1027,1.2839,1.3381,0.0,1.6232,1.6879,1.7504,1.9202,1.9354,1.9497,2.0592,2.0517,2.0689,2.1977,2.2143,2.2802,2.4856,2.4127,2.3572,2.4111,2.3479,2.3007,2.3007,2.2957,2.2694,2.2171,2.1619,2.0865,1.9849,1.9798,1.9585,1.9108,1.8556,1.7744,1.6608,1.608,1.5446,1.4789,1.426,1.3933,1.3768,1.3238,1.2968,1.2905,1.2905,1.2905,1.2905,1.2905,1.2905,1.2905,1.2905,1.2905,1.2905,1.2905,1.2905,1.2905,1.2905,1.2905,1.2895,1.2846,1.2299,1.1545,1.1,1.0594,1.0156,0.9148,0.8878,0.8878,0.8878,0.8837,0.8777,0.8777,0.8378,0.7995,0.7995,0.7995,0.7829,0.7294,0.7147,0.7105,0.7105,0.7042,0.7,0.7,0.6605,0.6285,0.6285,0.5825,0.5497,0.5497,0.5497,0.5454,0.5416,0.4913,0.4561,0.45,0.4052,0.3842,0.3996,0.3979,0.403,0.409,0.4136,0.4245,0.4455,0.3021,0.2313,0.2313,0.2232,0.2202,0.7849,0.8619,0.9634,1.0578,1.1411,0.0,1.348,1.4824,1.6121,1.719,1.7842,1.8525,1.9455,1.9577,1.9917,2.1218,2.1059,2.1411,2.3301,2.3323,2.3208,2.3322,2.2795,2.2443,2.2443,2.2071,2.1581,2.1056,2.0464,2.0037,1.9811,1.9798,1.9761,1.966,1.9121,1.852,1.7864,1.7316,1.6504,1.541,1.532,1.4744,1.3792,1.3684,1.3348,1.2905,1.2905,1.2905,1.2905,1.2905,1.2905,1.2905,1.2905,1.2905,1.2905,1.2905,1.2905,1.2905,1.2905,1.2905,1.2846,1.2447,1.2213,1.194,1.1122,1.0835,1.0672,1.0135,0.9981,0.9981,0.9981,0.9666,0.9339,0.9339,0.8938,0.8541,0.8541,0.8541,0.8513,0.839,0.8028,0.7725,0.7725,0.7321,0.7,0.7,0.6915,0.6852,0.6852,0.6747,0.6656,0.6656,0.6656,0.6486,0.6072,0.5916,0.5631,0.5151,0.5026,0.5034,0.5172,0.5158,0.5019,0.473,0.4946,0.5392,0.612,0.4073,0.3093,0.3065,0.248,0.2202,0.7551,0.7971,0.8605,0.9929,1.0561,0.0,0.0,1.3217,1.4234,1.5595,1.5999,1.6538,1.7984,1.8068,1.8397,1.9909,1.9756,1.9925,2.1318,2.196,2.2393,2.2656,2.2234,2.1895,2.1895,2.1656,2.1282,2.0729,2.0427,2.0138,1.9823,1.9798,1.9798,1.9798,1.9271,1.8744,1.8216,1.7664,1.694,1.6051,1.5742,1.5141,1.426,1.426,1.3766,1.2929,1.3214,1.3176,1.2905,1.2905,1.2905,1.2905,1.2905,1.2905,1.2905,1.2905,1.2905,1.2905,1.2905,1.2905,1.2866,1.2627,1.2389,1.2086,1.1436,1.0958,1.0547,1.0361,1.0303,1.0303,1.0303,1.0098,0.9902,0.9902,0.9478,0.9099,0.9099,0.9099,0.9099,0.9099,0.8878,0.8614,0.8337,0.8041,0.7752,0.7489,0.7447,0.7342,0.7042,0.7,0.7,0.7,0.7,0.6894,0.6619,0.6349,0.6072,0.5766,0.5459,0.5365,0.5494,0.5504,0.5514,0.5551,0.5814,0.6153,0.6588,0.5483,0.4937,0.4937,0.4573,0.4405,0.7244,0.7326,0.7574,0.9298,0.9572,0.9848,0.0,0.0,0.0,1.3961,1.4126,1.4483,1.6098,1.6201,1.6599,1.8238,1.8397,0.0,0.0,2.0511,0.0,2.1853,2.1584,2.1358,2.1358,2.1358,2.1131,2.0566,2.0629,2.044,1.9836,1.9798,1.9798,1.9798,1.9371,1.8845,1.8216,1.7765,1.72,1.6488,1.6008,1.5454,1.488,1.488,1.4224,1.3104,1.36,1.3467,1.2905,1.2905,1.2905,1.2905,1.2905,1.2905,1.2905,1.2905,1.2905,1.2905,1.2905,1.2905,1.2905,1.2905,1.2529,1.2002,1.1496,1.0851,1.0303,1.0303,1.0303,1.0303,1.0303,1.0303,1.0303,1.0303,0.9961,0.9677,0.9766,0.9716,0.9677,0.9766,0.9716,0.9478,0.8938,0.8756,0.8553,0.8118,0.8057,0.7884,0.7391,0.7335,0.7335,0.7335,0.7231,0.7168,0.7168,0.6668,0.6349,0.6349,0.5889,0.5668,0.5792,0.5736,0.5971,0.6526,0.6697,0.687,0.702,0.702,0.6885,0.6588,0.6588,0.6588,0.6204,0.6089,0.6219,0.7077,0.7189,0.7531,0.9245,0.0,1.0982,1.1941,0.0,1.3199,1.3415,0.0,0.0,1.6238,1.7063,1.7962,1.9194,1.9365,1.9667,2.0507,2.0721,2.0779,2.0779,2.0779,2.0553,1.9936,2.0402,2.044,1.9836,1.9798,1.9798,1.9798,1.9748,1.9233,1.8216,1.8141,1.7576,1.65,1.6423,1.6073,1.5499,1.5499,1.4846,1.3708,1.3768,1.3467,1.2905,1.2905,1.2905,1.2905,1.2905,1.2905,1.2905,1.2905,1.2905,1.2905,1.2905,1.2905,1.2905,1.2905,1.2338,1.1506,1.0694,1.0381,1.0303,1.0303,1.0303,1.0303,1.0303,1.0303,1.0303,1.0303,1.0264,1.0332,1.0734,1.0495,1.0332,1.0753,1.0495,1.004,0.9498,0.9019,0.8675,0.8614,0.8602,0.8574,0.8513,0.8513,0.8513,0.8513,0.809,0.7808,0.7808,0.7259,0.6915,0.6915,0.6852,0.6823,0.6834,0.6593,0.6863,0.77,0.7498,0.7779,0.856,0.856,0.7883,0.6588,0.6588,0.6588,0.6023,0.5986,0.5997,0.0,0.0,0.0,0.8253,0.0,0.9418,1.0777,0.0,0.0,0.0,0.0,0.0,0.0,1.5142,1.5811,1.6628,0.0,1.8415,1.9521,0.0,0.0,1.9946,2.0409,2.0453,1.9849,2.0365,2.044,1.9836,1.9798,1.9798,1.9798,1.9798,1.9447,1.8669,1.8367,1.7802,1.7024,1.6663,1.6194,1.561,1.5952,1.5466,1.4329,1.4329,1.399,1.3396,1.3041,1.2905,1.2905,1.2905,1.2905,1.2905,1.2905,1.2905,1.2905,1.2905,1.2905,1.2866,1.2588,1.2275,1.1833,1.0932,1.0686,1.0649,1.038,1.0303,1.0361,1.063,1.0495,1.038,1.063,1.0706,1.0764,1.0962,1.1094,1.1142,1.1019,1.0848,1.0553,1.005,0.9775,0.9518,0.9219,0.9159,0.9059,0.8736,0.8695,0.8695,0.8695,0.8214,0.7899,0.7899,0.7342,0.7,0.7,0.7,0.708,0.7275,0.7713,0.802,0.8183,0.8991,0.9409,0.9387,0.9387,0.9059,0.8442,0.8064,0.7883,0.5667,0.0,0.0,0.0,0.0,0.0,0.0,0.0,0.0,0.0,0.999,0.0,0.0,0.0,1.2776,1.3065,0.0,1.3981,1.4325,1.5527,1.689,1.8414,0.0,0.0,0.0,2.0177,2.0429,1.9537,2.022,2.0377,1.9623,1.9585,1.966,1.9798,1.9798,1.9472,1.8782,1.8405,1.7852,1.7137,1.6722,1.6259,1.5864,1.6303,1.5932,1.4949,1.4766,1.4352,1.3755,1.3152,1.2905,1.2905,1.2905,1.2905,1.2905,1.2905,1.2905,1.2905,1.2905,1.2914,1.2855,1.243,1.229,1.2152,1.1216,1.1068,1.1113,1.063,1.0602,1.0764,1.0943,1.0859,1.0802,1.1132,1.1226,1.1244,1.1394,1.1627,1.1708,1.1468,1.1163,1.0917,1.0743,1.0486,1.0166,0.9784,0.9716,0.9578,0.9179,0.9139,0.9139,0.9139,0.8655,0.8337,0.8337,0.7814,0.7454,0.7454,0.7454,0.7581,0.7816,0.8656,0.8994,0.877,1.0092,1.0568,1.0064,1.0064,1.0064,1.0038,0.9211,0.8804,0.0,0.0,0.0,0.4282,0.0,0.0,0.0,0.0,0.7013,0.0,0.0,0.0,0.0,1.0742,1.1834,1.1849,1.252,0.0,0.0,1.3723,1.4959,1.7007,1.823,0.0,0.0,2.0167,2.035,1.8765,1.9927,2.0214,1.9096,1.9033,1.9259,1.9786,1.9798,1.9296,1.8242,1.8216,1.7652,1.6525,1.65,1.65,1.6466,1.65,1.6173,1.5543,1.4949,1.4352,1.3755,1.3152,1.2905,1.2905,1.2905,1.2905,1.2905,1.2905,1.2905,1.2905,1.2905,1.2933,1.2944,1.2593,1.245,1.2229,1.1291,1.1367,1.1664,1.1132,1.1356,1.1645,1.1132,1.1375,1.1756,1.1774,1.1774,1.1902,1.2354,1.2102,1.192,1.2372,1.1617,1.1087,1.1648,1.0935,1.0303,1.0283,1.0283,1.0264,1.0264,1.0244,1.0244,1.0244,0.9765,0.9439,0.9439,0.8958,0.8635,0.8635,0.8635,0.8643,0.8651,0.9325,0.9672,0.9665,1.0409,1.0788,1.0771,1.0771,1.0771,1.0737,0.9413,0.8804,0.0,0.0,0.4048,0.3469,0.0,0.0,0.0,0.0,0.0,0.0,0.0,0.0,0.0,0.8886,0.9296,0.9296,0.9964,1.068,0.0,1.2931,1.4545,1.5733,1.6915,1.7903,0.0,0.0,1.896,1.8002,1.8215,1.84,1.8396,1.8409,1.883,1.976,1.9798,1.9623,1.9258,1.8555,1.8016,1.7626,1.6851,1.65,1.65,1.65,1.6402,1.6139,1.513,1.4583,1.4306,1.332,1.3128,1.3467,1.3065,1.3382,1.4037,1.3647,1.3047,1.2449,1.2499,1.2489,1.2476,1.2433,1.2408,1.2285,1.1714,1.1664,1.1756,1.159,1.1394,1.1394,1.1872,1.1902,1.1884,1.2192,1.2264,1.2312,1.2473,1.2615,1.2685,1.2526,1.2213,1.193,1.1813,1.1516,1.1169,1.0821,1.0764,1.0649,1.0341,1.0303,1.0303,1.0303,0.9824,0.9498,0.9498,0.8999,0.8695,0.8695,0.8695,0.8783,0.8959,0.9598,0.9988,1.0024,1.0876,1.1244,1.1066,1.0798,1.0676,1.0652,0.9708,0.9568,0.2383,0.2851,0.0,0.246,0.3393,0.0,0.368,0.0,0.4683,0.0,0.0,0.0,0.0,0.0,0.7994,0.7994,0.8457,0.9083,0.0,1.149,1.2999,1.3893,1.5377,1.6693,1.75,1.7999,1.7908,1.6999,1.7355,1.7675,0.0,0.0,1.8577,1.976,1.9798,1.971,1.9522,1.8643,1.8103,1.7903,1.6939,1.65,1.65,1.65,1.65,1.6423,1.522,1.4698,1.4617,1.3406,1.3262,1.3755,1.3372,1.3836,1.4606,1.3789,1.3189,1.2791,1.2847,1.287,1.2827,1.274,1.2705,1.2591,1.2187,1.2174,1.2229,1.1865,1.1773,1.1845,1.2148,1.226,1.2372,1.2685,1.2738,1.2738,1.2738,1.2995,1.3112,1.282,1.2593,1.2433,1.2312,1.2142,1.1859,1.1372,1.1282,1.1113,1.0611,1.0553,1.0486,1.0322,1.0,0.9784,0.9784,0.9459,0.9259,0.9259,0.9259,0.9354,0.9508,1.0234,1.0648,1.0696,1.1605,1.1897,1.1561,1.1301,1.1097,1.0949,1.0463,1.0545]}]]